[[{"header":{"parameterUnit":"m.s-1","parameterCategory":1,"la1":30.6,"la2":28.766,"lo1":-90.7593,"lo2":-88.6598,"dy":0.0162,"dx":0.0183,"nx":116,"ny":114,"refTime":"2024-06-17T06:00:00:Z","depth":0,"parameterNumber":2,"parameterNumberName":"U-component_of_WINDS"},"data":[0.0,0.0,0.0,0.0,0.0,0.0,0.0,0.0,0.0,0.0,0.0,0.0,0.0,0.0,0.0,0.0,0.0,0.0,0.0,0.0,0.0,0.0,0.0,0.0,0.0,0.0,0.0,0.0,0.0,0.0,0.0,0.0,0.0,0.0,0.0,0.0,0.0,0.0,0.0,0.0,0.0,0.0,0.0,0.0,0.0,0.0,0.0,0.0,0.0,0.0,0.0,0.0,0.0,0.0,0.0,0.0,0.0,0.0,0.0,0.0,0.0,0.0,0.0,0.0,0.0,0.0,0.0,0.0,0.0,0.0,0.0,0.0,0.0,0.0,0.0,0.0,0.0,0.0,0.0,0.0,0.0,0.0,0.0,0.0,0.0,0.0,0.0,0.0,0.0,0.0,0.0,0.0,0.0,0.0,0.0,0.0,0.0,0.0,0.0,0.0,0.0,0.0,0.0,0.0,0.0,0.0,0.0,0.0,0.0,0.0,0.0,0.0,0.0,0.0,0.0,0.0,0.0,0.0,0.0,0.0,0.0,0.0,0.0,0.0,0.0,0.0,0.0,0.0,0.0,0.0,0.0,0.0,0.0,0.0,0.0,0.0,0.0,0.0,0.0,0.0,0.0,0.0,0.0,0.0,0.0,0.0,0.0,0.0,0.0,0.0,0.0,0.0,0.0,0.0,0.0,0.0,0.0,0.0,0.0,0.0,0.0,0.0,0.0,0.0,0.0,0.0,0.0,0.0,0.0,0.0,0.0,0.0,0.0,0.0,0.0,0.0,0.0,0.0,0.0,0.0,0.0,0.0,0.0,0.0,0.0,0.0,0.0,0.0,0.0,0.0,0.0,0.0,0.0,0.0,0.0,0.0,0.0,0.0,0.0,0.0,0.0,0.0,0.0,0.0,0.0,0.0,0.0,0.0,0.0,0.0,0.0,0.0,0.0,0.0,0.0,0.0,0.0,0.0,0.0,0.0,0.0,0.0,0.0,0.0,0.0,0.0,0.0,0.0,0.0,0.0,0.0,0.0,0.0,0.0,0.0,0.0,0.0,0.0,0.0,0.0,0.0,0.0,0.0,0.0,0.0,0.0,0.0,0.0,0.0,0.0,0.0,0.0,0.0,0.0,0.0,0.0,0.0,0.0,0.0,0.0,0.0,0.0,0.0,0.0,0.0,0.0,0.0,0.0,0.0,0.0,0.0,0.0,0.0,0.0,0.0,0.0,0.0,0.0,0.0,0.0,0.0,0.0,0.0,0.0,0.0,0.0,0.0,0.0,0.0,0.0,0.0,0.0,0.0,0.0,0.0,0.0,0.0,0.0,0.0,0.0,0.0,0.0,0.0,0.0,0.0,0.0,0.0,0.0,0.0,0.0,0.0,0.0,0.0,0.0,0.0,0.0,0.0,0.0,0.0,0.0,0.0,0.0,0.0,0.0,0.0,0.0,0.0,0.0,0.0,0.0,0.0,0.0,0.0,0.0,0.0,0.0,0.0,0.0,0.0,0.0,0.0,0.0,0.0,0.0,0.0,0.0,0.0,0.0,0.0,0.0,0.0,0.0,0.0,0.0,0.0,0.0,0.0,0.0,0.0,0.0,0.0,0.0,0.0,0.0,0.0,0.0,0.0,0.0,0.0,0.0,0.0,0.0,0.0,0.0,0.0,0.0,0.0,0.0,0.0,0.0,0.0,0.0,0.0,0.0,0.0,0.0,0.0,0.0,0.0,0.0,0.0,0.0,0.0,0.0,0.0,0.0,0.0,0.0,0.0,0.0,0.0,0.0,0.0,0.0,0.0,0.0,0.0,0.0,0.0,0.0,0.0,0.0,0.0,0.0,0.0,0.0,0.0,0.0,0.0,0.0,0.0,0.0,0.0,0.0,0.0,0.0,0.0,0.0,0.0,0.0,0.0,0.0,0.0,0.0,0.0,0.0,0.0,0.0,0.0,0.0,0.0,0.0,0.0,0.0,0.0,0.0,0.0,0.0,0.0,0.0,0.0,0.0,0.0,0.0,0.0,0.0,0.0,0.0,0.0,0.0,0.0,0.0,0.0,0.0,0.0,0.0,0.0,0.0,0.0,0.0,0.0,0.0,0.0,0.0,0.0,0.0,0.0,0.0,0.0,0.0,0.0,0.0,0.0,0.0,0.0,0.0,0.0,0.0,0.0,0.0,0.0,0.0,0.0,0.0,0.0,0.0,0.0,0.0,0.0,0.0,0.0,0.0,0.0,0.0,0.0,0.0,0.0,0.0,0.0,0.0,0.0,0.0,0.0,0.0,0.0,0.0,0.0,0.0,0.0,0.0,0.0,0.0,0.0,0.0,0.0,0.0,0.0,0.0,0.0,0.0,0.0,0.0,0.0,0.0,0.0,0.0,0.0,0.0,0.0,0.0,0.0,0.0,0.0,0.0,0.0,0.0,0.0,0.0,0.0,0.0,0.0,0.0,0.0,0.0,0.0,0.0,0.0,0.0,0.0,0.0,0.0,0.0,0.0,0.0,0.0,0.0,0.0,0.0,0.0,0.0,0.0,0.0,0.0,0.0,0.0,0.0,0.0,0.0,0.0,0.0,0.0,0.0,0.0,0.0,0.0,0.0,0.0,0.0,0.0,0.0,0.0,0.0,0.0,0.0,0.0,0.0,0.0,0.0,0.0,0.0,0.0,0.0,0.0,0.0,0.0,0.0,0.0,0.0,0.0,0.0,0.0,0.0,0.0,0.0,0.0,0.0,0.0,0.0,0.0,0.0,0.0,0.0,0.0,0.0,0.0,0.0,0.0,0.0,0.0,0.0,0.0,0.0,0.0,0.0,0.0,0.0,0.0,0.0,0.0,0.0,0.0,0.0,0.0,0.0,0.0,0.0,0.0,0.0,0.0,0.0,0.0,0.0,0.0,0.0,0.0,0.0,0.0,0.0,0.0,0.0,0.0,0.0,0.0,0.0,0.0,0.0,0.0,0.0,0.0,0.0,0.0,0.0,0.0,0.0,0.0,0.0,0.0,0.0,0.0,0.0,0.0,0.0,0.0,0.0,0.0,0.0,0.0,0.0,0.0,0.0,0.0,0.0,0.0,0.0,0.0,0.0,0.0,0.0,0.0,0.0,0.0,0.0,0.0,0.0,0.0,0.0,0.0,0.0,0.0,0.0,0.0,0.0,0.0,0.0,0.0,0.0,0.0,0.0,0.0,0.0,0.0,0.0,0.0,0.0,0.0,0.0,0.0,0.0,0.0,0.0,0.0,0.0,0.0,0.0,0.0,0.0,0.0,0.0,0.0,0.0,0.0,0.0,0.0,0.0,0.0,0.0,0.0,0.0,0.0,0.0,0.0,0.0,0.0,0.0,0.0,0.0,0.0,0.0,0.0,0.0,0.0,0.0,0.0,0.0,0.0,0.0,0.0,0.0,0.0,0.0,0.0,0.0,0.0,0.0,0.0,0.0,0.0,0.0,0.0,0.0,0.0,0.0,0.0,0.0,0.0,0.0,0.0,0.0,0.0,0.0,0.0,0.0,0.0,0.0,0.0,0.0,0.0,0.0,0.0,0.0,0.0,0.0,0.0,0.0,0.0,0.0,0.0,0.0,0.0,0.0,0.0,0.0,0.0,0.0,0.0,0.0,0.0,0.0,0.0,0.0,0.0,0.0,0.0,0.0,0.0,0.0,0.0,0.0,0.0,0.0,0.0,0.0,0.0,0.0,0.0,0.0,0.0,0.0,0.0,0.0,0.0,0.0,0.0,0.0,0.0,0.0,0.0,0.0,0.0,0.0,0.0,0.0,0.0,0.0,0.0,0.0,0.0,0.0,0.0,0.0,0.0,0.0,0.0,0.0,0.0,0.0,0.0,0.0,0.0,0.0,0.0,0.0,0.0,0.0,0.0,0.0,0.0,0.0,0.0,0.0,0.0,0.0,0.0,0.0,0.0,0.0,0.0,0.0,0.0,0.0,0.0,0.0,0.0,0.0,0.0,0.0,0.0,0.0,0.0,0.0,0.0,0.0,0.0,0.0,0.0,0.0,0.0,0.0,0.0,0.0,0.0,0.0,0.0,0.0,0.0,0.0,0.0,0.0,0.0,0.0,0.0,0.0,0.0,0.0,0.0,0.0,0.0,0.0,0.0,0.0,0.0,0.0,0.0,0.0,0.0,0.0,0.0,0.0,0.0,0.0,0.0,0.0,0.0,0.0,0.0,0.0,0.0,0.0,0.0,0.0,0.0,0.0,0.0,0.0,0.0,0.0,0.0,0.0,0.0,0.0,0.0,0.0,0.0,0.0,0.0,0.0,0.0,0.0,0.0,0.0,0.0,0.0,0.0,0.0,0.0,0.0,0.0,0.0,0.0,0.0,0.0,0.0,0.0,0.0,0.0,0.0,0.0,0.0,0.0,0.0,0.0,0.0,0.0,0.0,0.0,0.0,0.0,0.0,0.0,0.0,0.0,0.0,0.0,0.0,0.0,0.0,0.0,0.0,0.0,0.0,0.0,0.0,0.0,0.0,0.0,0.0,0.0,0.0,0.0,0.0,0.0,0.0,0.0,0.0,0.0,0.0,0.0,0.0,0.0,0.0,0.0,0.0,0.0,0.0,0.0,0.0,0.0,0.0,0.0,0.0,0.0,0.0,0.0,0.0,0.0,0.0,0.0,0.0,0.0,0.0,0.0,0.0,0.0,0.0,0.0,0.0,0.0,0.0,0.0,0.0,0.0,0.0,0.0,0.0,0.0,0.0,0.0,0.0,0.0,0.0,0.0,0.0,0.0,0.0,0.0,0.0,0.0,0.0,0.0,0.0,0.0,0.0,0.0,0.0,0.0,0.0,0.0,0.0,0.0,0.0,0.0,0.0,0.0,0.0,0.0,0.0,0.0,0.0,0.0,0.0,0.0,0.0,0.0,0.0,0.0,0.0,0.0,0.0,0.0,0.0,0.0,0.0,0.0,0.0,0.0,0.0,0.0,0.0,0.0,0.0,0.0,0.0,0.0,0.0,0.0,0.0,0.0,0.0,0.0,0.0,0.0,0.0,0.0,0.0,0.0,0.0,0.0,0.0,0.0,0.0,0.0,0.0,0.0,0.0,0.0,0.0,0.0,0.0,0.0,0.0,0.0,0.0,0.0,0.0,0.0,0.0,0.0,0.0,0.0,0.0,0.0,0.0,0.0,0.0,0.0,0.0,0.0,0.0,0.0,0.0,0.0,0.0,0.0,0.0,0.0,0.0,0.0,0.0,0.0,0.0,0.0,0.0,0.0,0.0,0.0,0.0,0.0,0.0,0.0,0.0,0.0,0.0,0.0,0.0,0.0,0.0,0.0,0.0,0.0,0.0,0.0,0.0,0.0,0.0,0.0,0.0,0.0,0.0,0.0,0.0,0.0,0.0,0.0,0.0,0.0,0.0,0.0,0.0,0.0,0.0,0.0,0.0,0.0,0.0,0.0,0.0,0.0,0.0,0.0,0.0,0.0,0.0,0.0,0.0,0.0,0.0,0.0,0.0,0.0,0.0,0.0,0.0,0.0,0.0,0.0,0.0,0.0,0.0,0.0,0.0,0.0,0.0,0.0,0.0,0.0,0.0,0.0,0.0,0.0,0.0,0.0,0.0,0.0,0.0,0.0,0.0,0.0,0.0,0.0,0.0,0.0,0.0,0.0,0.0,0.0,0.0,0.0,0.0,0.0,0.0,0.0,0.0,0.0,0.0,0.0,0.0,0.0,0.0,0.0,0.0,0.0,0.0,0.0,0.0,0.0,0.0,0.0,0.0,0.0,0.0,0.0,0.0,0.0,0.0,0.0,0.0,0.0,0.0,0.0,0.0,0.0,0.0,0.0,0.0,0.0,0.0,0.0,0.0,0.0,0.0,0.0,0.0,0.0,0.0,0.0,0.0,0.0,0.0,0.0,0.0,0.0,0.0,0.0,0.0,0.0,0.0,0.0,0.0,0.0,0.0,0.0,0.0,0.0,0.0,0.0,0.0,0.0,0.0,0.0,0.0,0.0,0.0,0.0,0.0,0.0,0.0,0.0,0.0,0.0,0.0,0.0,0.0,0.0,0.0,0.0,0.0,0.0,0.0,0.0,0.0,0.0,0.0,0.0,0.0,0.0,0.0,0.0,0.0,0.0,0.0,-0.7131,-0.5245,0.0,0.0,0.0,0.0,0.0,0.0,0.0,0.0,0.0,0.0,0.0,0.0,0.0,0.0,0.0,0.0,0.0,0.0,0.0,0.0,0.0,0.0,0.0,0.6072,0.6715,0.667,0.7571,0.8082,0.7976,0.0,0.0,0.0,0.0,0.0,0.4802,0.4863,0.4488,0.3644,0.3771,0.3954,0.4154,0.4546,0.4785,0.4875,0.0,0.0,0.0,0.0,0.0,0.0,0.0,0.0,0.0,0.0,0.0,0.0,0.0,0.0,0.0,0.0,0.0,0.0,0.0,0.0,0.0,0.0,0.0,0.0,0.0,0.0,0.0,0.0,0.0,0.0,0.0,0.0,0.0,0.0,0.0,0.0,0.0,0.0,0.0,0.0,0.0,0.0,0.0,0.0,0.0,0.0,0.0,0.0,0.0,0.0,0.0,0.0,0.0,0.0,0.0,0.0,0.0,0.0,0.0,0.0,0.0,0.0,0.0,0.0,0.0,0.0,0.0,0.0,0.0,0.0,-1.2281,-1.028,0.0,0.0,0.0,0.0,0.0,0.0,0.0,0.0,0.0,0.0,0.0,0.0,0.0,0.0,0.0,0.0,0.0,0.0,0.0,0.0,0.0,0.4629,0.4897,0.6384,0.7138,0.6598,0.789,0.8386,0.7577,0.6813,0.0,0.0,0.5569,0.5175,0.4999,0.4938,0.42,0.2759,0.2747,0.2869,0.3197,0.521,0.5949,0.5606,0.5576,0.0,0.0,0.0,0.0,0.0,0.0,0.0,0.0,0.0,0.0,0.0,0.0,0.0,0.0,0.0,0.0,0.0,0.0,0.0,0.0,0.0,0.0,0.0,0.0,0.0,0.0,0.0,0.0,0.0,0.0,0.0,0.0,0.0,0.0,0.0,0.0,0.0,0.0,0.0,0.0,0.0,0.0,0.0,0.0,0.0,0.0,0.0,0.0,0.0,0.0,0.0,0.0,0.0,0.0,0.0,0.0,0.0,0.0,0.0,0.0,0.0,0.0,0.0,-1.9038,-1.9336,-1.9552,-1.9392,-2.0226,-2.1602,-1.839,-1.6743,-1.6117,-1.378,0.0,0.0,0.0,0.0,0.0,0.0,0.0,0.0,0.0,0.0,0.0,0.0,0.0,0.0,0.0,0.0,0.0,0.0,0.0,0.4962,0.574,0.6423,0.7119,0.7866,0.8258,0.8441,0.8426,0.8101,0.7569,0.6815,0.6697,0.623,0.5354,0.4544,0.4043,0.3808,0.3176,0.3049,0.3391,0.4836,0.5541,0.5627,0.6013,0.617,0.6122,0.0,0.0,0.0,0.0,0.0,0.0,0.0,0.0,0.0,0.0,0.0,0.0,0.0,0.0,0.0,0.0,0.0,0.0,0.0,0.0,0.0,0.0,0.0,0.0,0.0,0.0,0.0,0.0,0.0,0.0,0.0,0.0,0.0,0.0,0.0,0.0,0.0,0.0,0.0,0.0,0.0,-1.1501,-1.2336,0.0,0.0,0.0,0.0,0.0,0.0,0.0,0.0,0.0,0.0,0.0,0.0,0.0,-2.1757,-2.23,-2.3412,-2.3883,-2.364,-2.4758,-2.5007,-2.4563,-2.4824,-2.5082,-2.5275,-2.4492,0.0,-1.9226,-1.6758,0.0,0.0,0.0,0.0,0.0,0.0,0.0,0.0,0.0,0.0,0.0,0.0,0.0,0.0,0.0,0.0,0.0,0.0,0.0,0.0,0.0,0.6698,0.7339,0.735,0.7998,0.8115,0.7466,0.725,0.6618,0.5433,0.5392,0.4921,0.3906,0.3557,0.315,0.2645,0.247,0.2458,0.2646,0.4001,0.4635,0.471,0.4922,0.5652,0.6729,0.6369,0.0,0.0,0.0,0.0,0.0,0.0,0.0,0.0,0.0,0.0,0.0,0.0,0.0,0.0,0.0,0.0,0.0,0.0,0.0,0.0,0.0,0.0,0.0,0.0,0.0,0.0,0.0,0.0,0.0,0.0,0.0,0.0,0.0,0.0,0.0,0.0,0.0,0.0,0.0,-1.1741,-1.3384,-1.3779,-1.3965,-1.3874,0.0,0.0,0.0,0.0,0.0,0.0,0.0,0.0,0.0,-2.3212,-2.4022,-2.4609,-2.505,-2.6052,-2.6573,-2.6613,-2.7308,-2.7589,-2.7454,-2.7455,-2.7535,-2.7655,-2.7014,-2.5832,-2.4121,-2.1573,-2.0125,-1.9453,0.0,0.0,0.0,0.0,-2.0649,-2.0822,0.0,0.0,0.0,0.0,0.0,0.0,0.0,0.0,0.0,0.0,0.0,0.0,0.5168,0.6025,0.6519,0.6422,0.68,0.6825,0.6302,0.5749,0.4969,0.391,0.386,0.3519,0.2764,0.2623,0.2105,0.1201,0.1393,0.1497,0.1532,0.2885,0.3546,0.3546,0.396,0.4946,0.6316,0.6356,0.6075,0.5613,0.0,0.0,0.0,0.0,0.0,0.0,0.0,0.0,0.0,0.0,0.0,0.0,0.0,0.0,0.0,0.0,0.0,0.0,0.0,0.0,0.0,0.0,0.0,0.0,0.0,0.0,0.0,0.0,0.0,0.0,0.0,0.0,0.0,0.0,0.0,0.0,0.0,-1.4608,-1.5574,-1.5767,-1.6532,-1.6713,0.0,0.0,0.0,0.0,0.0,0.0,-2.2798,-2.3661,-2.4546,-2.5586,-2.636,-2.6921,-2.7281,-2.7936,-2.8377,-2.8647,-2.8831,-2.9058,-2.9215,-2.8965,-2.8951,-2.9112,-2.8986,-2.8938,-2.8703,-2.5623,-2.4058,-2.3496,-2.2693,-2.2557,-2.3093,-2.5387,-2.6429,-2.7085,0.0,0.0,0.0,0.0,0.0,0.0,0.0,0.0,0.0,0.0,0.0,0.3045,0.4151,0.3598,0.3817,0.5507,0.4243,0.4024,0.5546,0.4026,0.3046,0.2977,0.2959,0.2936,0.2902,0.2088,0.1142,0.0086,0.009,0.0093,0.0126,0.1598,0.2286,0.2347,0.3817,0.4357,0.4216,0.5101,0.5346,0.5181,0.5741,0.0,0.0,0.0,0.0,0.0,0.0,0.0,0.0,0.0,0.0,0.0,0.0,0.0,0.0,0.0,0.0,0.0,0.0,0.0,0.0,0.0,0.0,0.0,0.0,0.0,0.0,0.0,0.0,0.0,0.0,0.0,0.0,0.0,0.0,0.0,0.0,0.0,0.0,-2.0323,-2.1356,0.0,0.0,0.0,0.0,-2.2118,-2.3017,-2.4043,-2.5277,-2.5905,-2.6907,-2.8364,-2.8668,-2.9121,-2.974,-2.978,-2.9806,-2.982,-2.9847,-2.986,-2.986,-2.9579,-2.9446,-2.9565,-3.144,-3.2249,-3.1942,-2.7637,-2.5665,-2.5317,-2.4679,-2.5713,-2.7629,-2.8028,-2.9479,-3.133,0.0,0.0,0.0,0.0,0.0,0.4319,0.3801,0.3519,0.3363,0.3362,0.2937,0.2843,0.3423,0.3402,0.3653,0.4374,0.3962,0.3869,0.4281,0.3718,0.2974,0.2094,0.2053,0.1729,0.1041,0.0729,0.0374,0.0,-0.1153,-0.1145,0.0,-0.0639,-0.0319,0.08,0.1368,0.1523,0.1554,0.3631,0.4275,0.3947,0.399,0.3842,0.0,0.0,0.0,0.0,0.0,0.0,0.0,0.0,0.0,0.0,0.0,0.0,0.0,0.0,0.0,0.0,0.0,0.0,0.0,0.0,0.0,0.0,0.0,0.0,0.0,0.0,0.0,0.0,0.0,0.0,0.0,0.0,0.0,0.0,0.0,0.0,0.0,-2.2626,-2.3701,0.0,-2.318,-2.3794,-2.4382,-2.4676,-2.5904,-2.6894,-2.7468,-2.8243,-2.8898,-2.9432,-2.974,-2.9993,-3.0207,-3.0394,-3.0474,-3.0474,-3.0474,-3.0474,-3.0474,-3.0368,-3.0327,-3.036,-3.0891,-3.1042,-3.0689,-2.8947,-2.9558,-3.1375,-2.9552,-2.9139,-2.9737,-3.1194,-3.22,-3.3285,0.0,0.0,0.0,0.0,0.4277,0.3932,0.3414,0.2923,0.2602,0.2568,0.2118,0.1989,0.2541,0.2476,0.2633,0.3202,0.2895,0.2782,0.31,0.2238,0.1316,0.042,-0.0211,-0.0897,-0.1705,-0.1792,-0.1833,-0.1827,-0.3031,-0.3002,-0.1863,-0.3034,-0.2969,-0.183,-0.183,-0.1816,-0.169,0.0061,0.1604,0.288,0.3059,0.2993,0.2774,0.0,0.0,0.0,0.0,0.0,0.0,0.0,0.0,0.0,0.0,0.0,0.0,0.0,0.0,0.0,0.0,0.0,0.0,0.0,0.0,0.0,0.0,0.0,0.0,0.0,0.0,0.0,0.0,0.0,0.0,0.0,0.0,0.0,0.0,-2.2145,-2.342,-2.4165,-2.5411,-2.5945,-2.5157,-2.5985,-2.668,-2.6974,-2.8031,-2.8821,-2.9179,-2.9847,-3.0301,-3.0501,-3.0795,-3.1042,-3.1149,-3.1336,-3.143,-3.143,-3.143,-3.143,-3.1383,-3.1183,-3.1089,-3.1109,-3.1519,-3.1534,-3.1371,-3.1939,-3.3456,-3.5138,-3.1794,-3.071,-3.1349,-3.3371,-3.4561,-3.5694,0.0,0.0,0.0,0.4436,0.3801,0.3275,0.3317,0.2054,0.1459,0.2476,0.1084,0.0397,0.1449,0.0635,0.0579,0.2014,0.082,0.0597,0.197,-0.0479,-0.2015,-0.2081,-0.3761,-0.4843,-0.5116,-0.5295,-0.5397,-0.5424,-0.5468,-0.5469,-0.5402,-0.5469,-0.5469,-0.5402,-0.5402,-0.5391,-0.542,-0.5384,-0.2614,0.1845,0.2907,0.3242,0.3096,0.0,0.0,0.0,0.0,0.0,0.0,0.0,0.0,0.0,0.0,0.0,0.0,0.0,0.0,0.0,0.0,0.0,0.0,0.0,0.0,0.0,0.0,0.0,0.0,0.0,0.0,0.0,0.0,0.0,0.0,0.0,0.0,0.0,-2.2243,-2.3713,-2.4898,-2.5257,-2.6827,-2.7604,-2.6961,-2.7976,-2.8778,-2.9015,-2.9366,-2.9806,-3.0413,-3.0688,-3.1102,-3.1724,-3.1971,-3.2251,-3.2594,-3.2594,-3.2594,-3.2594,-3.2594,-3.2594,-3.2581,-3.2005,-3.1738,-3.1806,-3.3427,-3.4125,-3.4261,-3.6278,-3.6889,-3.6021,-3.1064,-3.0464,-3.2631,-3.4458,-3.6508,-3.8678,0.0,0.0,0.3462,0.3674,0.304,0.2327,0.1813,0.1377,0.1012,0.077,0.0311,0.0108,0.0412,0.018,0.0161,0.0583,0.0245,-0.0269,-0.0948,-0.1634,-0.2589,-0.39,-0.463,-0.515,-0.5458,-0.5526,-0.5604,-0.5697,-0.6992,-0.6971,-0.5729,-0.7039,-0.6936,-0.5694,-0.56,-0.5532,-0.5541,-0.5455,-0.4616,-0.3329,-0.3043,-0.2862,-0.2771,0.0,0.0,0.0,0.0,0.0,0.0,0.0,0.0,0.0,0.0,0.0,0.0,0.0,0.0,0.0,0.0,0.0,0.0,0.0,0.0,0.0,0.0,0.0,0.0,0.0,0.0,0.0,0.0,0.0,0.0,0.0,-2.6861,-2.922,-2.7598,-2.8136,-2.9071,-3.0016,-3.0898,-3.0766,-2.8937,-2.9432,-2.9958,-2.9993,-3.0707,-3.1189,-3.135,-3.1845,-3.2179,-3.2353,-3.2433,-3.2514,-3.2594,-3.2594,-3.2594,-3.2594,-3.2594,-3.2594,-3.2581,-3.2433,-3.2353,-3.2375,-3.2593,-3.2589,-3.2401,-3.2732,-3.3716,-3.4782,-3.2675,-3.3016,-3.4828,-3.5359,-3.7772,-4.0869,0.0,0.3303,0.3057,0.2925,0.2258,0.1592,0.116,0.0843,0.0484,0.0054,0.0,0.0,0.0,0.0,0.0,0.0,-0.057,-0.1263,-0.2057,-0.3271,-0.4814,-0.6674,-0.7105,-0.7414,-0.7721,-0.7887,-0.7995,-0.8055,-0.9105,-0.91,-0.809,-0.9959,-1.0229,-0.9279,-0.9974,-1.0304,-1.0298,-1.0221,-1.0106,-0.9992,-1.0004,-0.8097,-0.5234,-0.5222,-0.5143,-0.5096,-0.5824,-0.5982,-0.5981,-0.6631,0.0,0.0,0.0,0.0,0.0,0.0,0.0,0.0,0.0,0.0,0.0,0.0,0.0,0.0,0.0,0.0,0.0,0.0,0.0,0.0,0.0,0.0,0.0,0.0,-3.0884,-3.3413,-3.3978,-3.3291,-3.3082,-3.3976,-3.4604,-3.4429,-3.3235,-3.2615,-3.2334,-3.2415,-3.2089,-3.1952,-3.2072,-3.3554,-3.4387,-3.4387,-3.4513,-3.4584,-3.4584,-3.3483,-3.2955,-3.2955,-3.2955,-3.2955,-3.2955,-3.2835,-3.2781,-3.2755,-3.246,-3.2118,-3.1919,-3.2633,-3.3585,-3.4426,0.0,0.0,0.0,0.0,-3.9354,-4.1873,0.0,0.297,0.2804,0.2178,0.1467,0.0978,0.0978,0.0415,0.0,0.0,0.0,0.0,0.0,0.0,-0.0052,-0.0213,-0.146,-0.2319,-0.2569,-0.5382,-0.7832,-0.9572,-1.0086,-1.0466,-1.0765,-1.1043,-1.1234,-1.1247,-1.1247,-1.1358,-1.165,-1.333,-1.4216,-1.4491,-1.6128,-1.6878,-1.6814,-1.6827,-1.666,-1.6453,-1.6453,-1.249,-0.6555,-0.6573,-0.654,-0.6715,-0.8246,-0.8611,-0.8595,-1.0139,0.0,0.0,0.0,0.0,0.0,0.0,0.0,0.0,0.0,0.0,0.0,0.0,0.0,0.0,0.0,0.0,0.0,0.0,0.0,0.0,0.0,0.0,0.0,0.0,-3.4231,-3.6367,-4.006,-3.86,-3.7267,-3.7483,-3.7929,-3.8211,-3.8208,-3.6516,-3.5546,-3.5832,-3.4117,-3.3209,-3.3484,-3.5973,0.0,0.0,0.0,-3.7625,-3.7282,-3.5004,-3.37,-3.3414,-3.3414,-3.3414,-3.34,-3.3146,-3.3026,-3.3013,-3.2768,-3.2633,-3.2783,-3.4609,-3.5359,-3.506,-3.262,-3.4216,-3.8076,-3.9526,-4.1084,-4.2101,0.0,0.2687,0.2147,0.1437,0.07,0.021,0.021,0.0089,0.0,0.0,0.0,0.0,0.0,0.0,-0.0444,-0.1514,-0.2132,-0.3488,-0.594,-0.8049,-0.9413,-0.9889,-1.0366,-1.0772,-1.1104,-1.1253,-1.1409,-1.1531,-1.1531,-1.2437,-1.4192,-1.455,-1.5542,-1.699,-1.7232,-1.7223,-1.6936,-1.6855,-1.6786,-1.6711,-1.6711,-1.5505,-1.3698,-1.3708,-1.3553,-1.335,-1.3691,-1.3776,-1.376,-1.3992,-1.4025,-1.3902,-1.3464,-1.3004,0.0,0.0,0.0,0.0,0.0,0.0,0.0,0.0,0.0,0.0,0.0,0.0,0.0,0.0,0.0,0.0,0.0,0.0,0.0,-3.5845,-3.9199,-4.1643,-4.1081,-4.2633,-4.3066,-4.0948,-4.0964,-4.0586,-3.9153,-3.8818,-3.8854,-3.9305,-3.9145,-3.9085,-3.9117,-3.9932,-4.0367,-4.0367,-4.0432,-3.9399,-3.7331,-3.6805,-3.55,-3.3414,-3.3414,0.0,-3.3414,-3.336,-3.3334,-3.3307,-3.3026,-3.4101,-3.5952,-3.5792,-3.6514,-3.7904,-3.9005,-3.9783,-4.0457,-4.2258,-4.2932,-4.2587,0.2713,0.211,0.1425,0.0672,0.0238,0.0,0.0,0.0,0.0,0.0,0.0,0.0,0.0,-0.0488,-0.1086,-0.1836,-0.3431,-0.5493,-0.8076,-1.0043,-1.1295,-1.1717,-1.2964,-1.3798,-1.4113,-1.4239,-1.4348,-1.4405,-1.4569,-1.5229,-1.6326,-1.7404,-1.8392,-1.9327,-2.0249,-2.0485,-2.0155,-2.0094,-1.9881,-1.9598,-1.9598,-1.922,-1.8468,-1.6722,-1.5839,-1.5669,-1.6545,-1.6779,-1.6761,-1.7584,-1.7619,-1.7236,-1.687,-1.6377,-1.5838,0.0,0.0,0.0,0.0,0.0,0.0,0.0,0.0,0.0,0.0,0.0,0.0,0.0,0.0,-3.3685,-3.5413,0.0,-3.9679,-4.0105,-4.2334,-4.3881,-4.3457,-4.4727,-4.5178,-4.3806,-4.4141,-4.4086,-4.3135,-4.2447,-4.211,-4.2347,-4.1467,-4.0954,-4.0954,-4.2332,-4.3102,-4.3102,-4.3102,-4.186,-3.9269,-3.7953,-3.5981,-3.3414,-3.3414,-3.3414,-3.3414,-3.3414,-3.3414,-3.345,-3.4652,-3.5796,-3.7034,-3.8791,-4.0772,-4.2764,-4.3609,-4.2852,-4.1469,-4.3384,-4.3926,-4.3344,0.2289,0.1492,0.07,0.0098,0.0,0.0,0.0,0.0,-0.0064,-0.023,-0.0289,-0.0375,-0.054,-0.1347,-0.2091,-0.2565,-0.5135,-0.7654,-0.9844,-1.1549,-1.2973,-1.4021,-1.5701,-1.6726,-1.6973,-1.7137,-1.7213,-1.7213,-1.7552,-1.7898,-1.837,-2.0156,-2.1186,-2.1594,-2.319,-2.3661,-2.3292,-2.3292,-2.2972,-2.2498,-2.2498,-2.2151,-2.1371,-1.8565,-1.726,-1.7076,-1.8512,-1.8799,-1.8795,-2.0633,-2.0848,-2.0374,-2.0534,-2.037,-1.985,-1.8553,-1.9251,0.0,0.0,0.0,0.0,0.0,0.0,0.0,0.0,-3.1207,-3.1753,-3.5326,-3.6719,-3.793,-4.0117,-4.1211,-4.2305,-4.3848,-4.4394,-4.4941,-4.5801,-4.584,-4.5844,-4.5844,-4.6465,-4.6928,-4.7051,-4.5863,-4.5205,-4.5278,-4.3656,-4.2673,-4.2673,-4.4654,-4.5755,-4.5755,-4.5755,-4.456,-4.1955,-3.9836,-3.7478,-3.4919,-3.4919,-3.4919,-3.4919,-3.4919,-3.4919,-3.5054,-3.7659,-3.8598,-3.8512,-4.2478,-4.5201,-4.6733,-4.6426,-4.4753,-4.2666,-4.3991,-4.4473,-4.3984,0.0,0.1076,0.0098,0.0014,0.0,0.0,0.0,0.0,-0.0284,-0.1057,-0.1316,-0.1725,-0.2485,-0.2785,-0.3628,-0.5387,-0.7186,-0.9336,-1.1895,-1.2557,-1.382,-1.5979,-1.6416,-1.6726,-1.6973,-1.7137,-1.7213,-1.7213,-1.7552,-1.8688,-2.0563,-2.1074,-2.2238,-2.3852,-2.4046,-2.3848,-2.3292,-2.3292,-2.3126,-2.2853,-2.2853,-2.2492,-2.1904,-2.1529,-2.1026,-2.0557,-2.0748,-2.0468,-2.0286,-2.2533,-2.2868,-2.2661,-2.4289,-2.4629,-2.4261,-2.3567,-2.3062,-2.3113,-2.4996,-2.7099,-2.9398,-3.1877,-3.1991,-3.285,0.0,-3.8056,-3.7673,-4.043,-4.1387,-4.1914,-4.2598,-4.3437,-4.4355,-4.5293,-4.5508,-4.582,-4.668,-4.6465,-4.623,-4.623,-4.6641,-4.709,-4.7461,-4.7703,-4.7928,-4.8362,-4.8142,-4.8023,-4.8023,-4.832,-4.8459,-4.8459,-4.8459,-4.7214,-4.4589,-4.4258,-4.2863,-4.0319,-4.0319,-4.0319,-4.0319,-4.0319,-4.0319,-4.0464,-4.3006,-4.3709,-4.3157,-4.5947,-4.6828,-4.6367,-4.6328,-4.6056,-4.5706,-4.5168,-4.4726,-4.4023,0.0,0.0713,0.0,0.0,0.0,0.0,0.0,-0.0429,-0.0891,-0.1255,-0.1847,-0.2374,-0.275,-0.3535,-0.474,-0.649,-0.8402,-1.0255,-1.2043,-1.426,-1.6232,-1.7828,-1.908,-1.9874,-2.0139,-2.0404,-2.0513,-2.0513,-2.0813,-2.1515,-2.2586,-2.2866,-2.3533,-2.4412,-2.4412,-2.4128,-2.3581,-2.3581,-2.33,-2.2996,-2.3992,-2.4014,-2.3424,-2.3489,-2.2989,-2.2134,-2.1185,-2.0588,0.0,-2.1291,-2.1369,-2.1164,-2.2108,-2.278,-2.3128,-2.2872,-2.425,-2.6516,-2.9659,-3.1358,-3.2609,-3.418,-3.543,-3.6875,-3.9219,-3.9785,-4.041,-4.248,-4.3262,-4.3711,-4.4141,-4.4922,-4.5625,-4.5976,-4.6465,-4.6816,-4.687,-4.6562,-4.6211,-4.5976,-4.6308,-4.6836,-4.7519,-4.7969,-4.8379,-4.8874,-4.8913,-4.8913,-4.8913,-4.8913,-4.8913,-4.8913,-4.8913,-4.7632,-4.5031,-4.4984,-4.3737,-4.1187,-4.1187,-4.1187,-4.1187,-4.1187,-4.2003,-4.3482,-4.4542,-4.5472,-4.6398,-4.725,-4.7207,-4.6508,-4.4788,-4.5021,-4.6191,-4.5332,-4.4902,-4.4522,0.0,0.0504,0.0,0.0,0.0,0.0,0.0,-0.074,-0.1395,-0.1648,-0.2512,-0.3234,-0.3568,-0.4516,-0.5647,-0.6932,-0.8862,-1.0712,-1.2404,-1.5511,-1.7989,-1.9504,-2.1078,-2.2044,-2.2371,-2.2632,-2.2813,-2.2893,-2.318,-2.3434,-2.3661,-2.3941,-2.4195,-2.4396,-2.4396,-2.4115,-2.3647,-2.3647,-2.3655,-2.372,-2.4857,-2.5269,-2.5095,-2.4528,-2.3726,-2.2646,-2.1025,-2.0147,-1.9805,-2.0235,-2.0204,-2.014,-2.0955,-2.2035,-2.3124,-2.3594,-2.6404,-2.9904,-3.2541,-3.4004,-3.5092,-3.6172,-3.8105,-3.9844,-4.0195,-4.1094,-4.2246,-4.3613,-4.4258,-4.4668,-4.4961,-4.5625,-4.6211,-4.6445,-4.6992,-4.7324,-4.7129,-4.6641,-4.6152,-4.5766,-4.584,-4.6289,-4.7148,-4.7812,-4.834,-4.8698,-4.8835,-4.8913,-4.8913,-4.8913,-4.8913,-4.8913,-4.8913,-4.7976,-4.6102,-4.6083,-4.5126,-4.3309,-4.3309,-4.3309,-4.3309,-4.3309,-4.4323,-4.6083,-4.6083,-4.6875,-4.8164,-4.7754,-4.7324,-4.6698,-4.449,-4.4277,-4.5253,-4.5211,-4.5117,-4.4879,0.0,0.0,0.0,0.0,0.0,0.0,0.0,-0.074,-0.1632,-0.2542,-0.3536,-0.4597,-0.5774,-0.6115,-0.6431,-0.6877,-0.8501,-1.0736,-1.365,-1.583,-1.8238,-2.0911,-2.1403,-2.1863,-2.2371,-2.2432,-2.2579,-2.2893,-2.318,-2.3292,-2.3305,-2.3647,-2.383,-2.383,-2.383,-2.3621,-2.3305,-2.3305,-2.4128,-2.5387,-2.5041,-2.5742,-2.6755,-2.4501,-2.3067,-2.2007,-2.0392,-1.9279,-1.878,-2.0347,-2.0719,-2.0845,-2.3004,-2.4825,-2.6471,-2.8108,-3.078,-3.3179,-3.291,-3.4668,-3.7027,-3.8672,-4.0098,-4.1484,-4.2716,-4.3301,-4.3769,-4.4277,-4.4707,-4.5,-4.4977,-4.5391,-4.5957,-4.6733,-4.6889,-4.709,-4.75,-4.6836,-4.6152,-4.5766,-4.5312,-4.541,-4.625,-4.748,-4.8223,-4.8223,-4.8613,-4.8913,-4.8913,-4.8913,-4.8913,-4.8913,-4.8913,-4.8848,-4.8755,-4.8755,-4.8755,-4.8663,-4.8663,-4.8663,-4.8663,-4.8663,-4.8709,-4.8755,-4.8755,-4.8567,-4.8164,-4.7754,-4.7324,-4.685,-4.6377,-4.4738,-4.2942,-4.4957,-4.5391,-4.4918,0.0,0.0,0.0,0.0,0.0,-0.0168,-0.0658,-0.1581,-0.2339,-0.2661,-0.4114,0.0,0.0,0.0,0.0,0.0,-0.837,-1.0464,-1.3,-1.5286,-1.7542,-1.9877,-2.0788,-2.1349,-2.155,-2.1937,-2.2178,-2.2318,-2.2378,-2.2539,-2.2692,-2.2832,-2.2979,-2.3215,-2.338,-2.3193,-2.2705,-2.2939,-2.3876,-2.5291,-2.6066,-2.7285,-2.8612,-2.7627,-2.57,-2.3263,0.0,-1.9415,-1.7996,-1.853,-1.8646,-1.8883,-2.0769,-2.2537,-2.4738,-2.8952,-3.1706,-3.3738,-3.5351,-3.7031,-3.8691,-4.0156,-4.1484,-4.2579,-4.3029,-4.3633,-4.4121,-4.3965,-4.4297,-4.4512,-4.4199,-4.4746,-4.5527,-4.6367,-4.6992,-4.7519,-4.793,-4.75,-4.6777,-4.5844,-4.5801,-4.5762,-4.5488,-4.6367,-4.7285,-4.8144,-4.834,-4.8555,-4.8894,-4.8913,-4.8913,-4.8913,-4.8913,-4.905,-4.9297,-4.9004,-4.9004,-4.9297,-4.905,-4.8913,-4.8913,-4.8913,-4.8913,-4.8913,-4.8913,-4.8613,-4.8203,-4.8047,-4.7578,-4.6737,-4.4968,-4.4609,-4.4958,-4.3995,-4.4415,-4.5351,0.0,0.0,0.0,0.0,0.0,0.0,0.0,0.0,0.0,0.0,0.0,0.0,0.0,0.0,0.0,0.0,0.0,-0.9897,-1.167,-1.3876,-1.603,-1.806,-1.8991,-1.9715,-2.029,-2.0695,-2.1042,-2.1363,-2.1363,-2.1617,-2.2111,-2.2111,-2.2271,-2.2599,-2.2766,-2.2632,-2.2271,-2.2505,-2.3842,-2.5841,-2.6211,-2.7729,-2.9601,-2.8137,-2.5853,0.0,-2.0849,-1.9004,-1.7624,-1.7624,-1.7923,-1.8556,-2.0202,-2.2873,-2.6151,-3.0177,-3.2891,-3.5078,-3.7363,-3.8926,-4.0215,-4.1563,-4.2755,-4.3516,-4.334,-4.375,-4.3984,-4.3379,-4.3242,-4.3144,-4.2851,-4.3008,-4.3769,-4.5547,-4.6308,-4.7031,-4.8066,-4.7851,-4.7207,-4.625,-4.623,-4.6152,-4.5699,-4.6211,-4.6933,-4.791,-4.8262,-4.8555,-4.8894,-4.905,-4.9101,-4.9101,-4.9285,-4.9473,-4.9766,-4.9316,-4.916,-4.9277,-4.905,-4.8913,-4.8913,-4.8913,-4.8913,-4.8913,-4.8913,-4.8737,-4.8418,-4.8281,-4.7891,-4.7165,-4.5321,-4.4305,-4.3796,-4.2917,-4.2877,-4.3421,0.0,0.0,0.0,0.0,0.0,0.0,0.0,0.0,0.0,0.0,0.0,0.0,0.0,0.0,0.0,0.0,0.0,0.0,-0.9902,-1.1771,-1.3747,-1.575,-1.6238,-1.7219,-1.8821,-1.8863,-1.9276,-2.0117,-2.0117,-2.0588,-2.1448,-2.1448,-2.1609,-2.189,-2.1871,-2.1871,-2.189,-2.1871,-2.3799,-2.6732,-2.5421,-2.6912,-2.9514,-2.6049,-2.3581,-2.1661,-1.9367,-1.8195,-1.7767,-1.7782,-1.8704,-2.0111,-2.1799,-2.5989,-3.0594,-3.2007,-3.4525,-3.7203,-3.8867,-4.0293,-4.1641,-4.2872,-4.3769,-4.4277,-4.3789,-4.3633,-4.3359,-4.2441,-4.1582,-4.1035,-4.0957,-4.0332,-4.0957,-4.4274,-4.4938,-4.5801,-4.791,-4.7891,-4.748,-4.6967,-4.6621,-4.6543,-4.685,-4.6928,-4.7168,-4.7578,-4.8405,-4.8894,-4.8933,-4.9297,-4.9484,-4.9523,-4.9961,-5.0176,-5.0176,-4.9605,-4.9157,-4.8913,-4.8755,-4.8755,-4.8913,-4.8913,-4.8913,-4.8913,-4.8913,-4.8913,-4.8874,-4.8418,-4.8223,-4.8125,-4.7285,-4.4066,-4.0209,-4.2092,-4.1349,-3.9937,0.0,0.0,0.0,0.0,0.0,0.0,0.0,0.0,0.0,0.0,0.0,0.0,0.0,0.0,0.0,0.0,0.0,0.0,-0.9087,-1.0182,-1.1976,-1.4743,-1.5615,-1.6742,-1.8209,-1.8463,-1.8718,-1.8931,-1.8931,-1.9158,-1.9599,-1.9599,-1.976,-2.007,-2.0254,-2.0241,-2.0084,-2.0267,-2.1482,-2.3237,-2.258,-2.3627,-2.5437,-2.4208,-2.2293,-2.0172,-1.9551,-1.9017,-1.865,-1.9005,-2.2025,-2.5935,-2.7513,-3.0339,-3.3392,-3.507,-3.6988,-3.8926,-4.0664,-4.207,-4.3223,-4.3887,-4.4238,-4.4199,-4.3418,-4.2734,-4.1855,-4.0332,-3.9336,-3.8457,-3.75,-3.8457,-4.0098,-4.2266,-4.4258,-4.6152,-4.7949,-4.8398,-4.8307,-4.75,-4.7598,-4.7519,-4.6928,-4.75,-4.793,-4.8047,-4.8242,-4.8652,-4.9316,-4.9426,-4.9668,-5.0,-5.0117,-5.0176,-5.0176,-4.7827,-4.7413,-4.8848,-4.6915,-4.7008,-4.8913,-4.8913,-4.8913,-4.8913,-4.8913,-4.8913,-4.8894,-4.8776,-4.8496,-4.8164,-4.7617,-4.6472,-4.5062,-4.5262,-4.4977,-4.453,0.0,0.0,0.0,0.0,0.0,0.0,0.0,0.0,0.0,0.0,0.0,0.0,0.0,0.0,0.0,0.0,0.0,0.0,0.0,-0.8133,-0.9738,-1.2017,-1.2744,-1.3744,-1.5116,-1.5383,-1.5664,-1.5921,-1.5963,-1.6577,-1.7682,-1.7682,-1.8145,-1.9013,-1.9158,-1.9132,-1.9027,-1.9158,-2.0118,0.0,0.0,-2.1655,-2.3078,-2.2257,-2.0733,-1.9005,-1.8819,-1.9788,-2.1425,-2.323,-2.6473,-3.0006,-3.1621,-3.3674,-3.5815,-3.7359,-3.9004,-4.0684,-4.2226,-4.3574,-4.4551,-4.4433,-4.3683,-4.2614,-4.1242,-3.9486,-3.7655,-3.585,-3.5309,-3.4895,-3.4056,-3.5896,-3.8281,-4.0586,-4.3125,-4.5547,-4.7637,-4.8503,-4.8718,-4.8249,-4.834,-4.8301,-4.7832,-4.8203,-4.8496,-4.8496,-4.8496,-4.8789,-4.9445,-4.9707,-5.0019,-5.0449,-5.0449,-5.0273,-4.9902,-4.8225,-4.7883,-4.8848,-4.74,-4.7493,-4.8913,-4.8913,-4.8913,-4.8913,-4.8913,-4.8913,-4.8913,-4.8913,-4.8757,-4.8457,-4.8027,-4.6928,-4.5389,-4.3909,-4.3919,-4.4479,0.0,0.0,0.0,0.0,0.0,0.0,0.0,0.0,0.0,0.0,0.0,0.0,0.0,0.0,0.0,0.0,0.0,0.0,0.0,0.0,-0.7511,-0.9065,-0.936,-1.0117,-1.1479,-1.1605,-1.1915,-1.2453,-1.2591,-1.3672,-1.5591,-1.5599,-1.6471,-1.8004,-1.8004,-1.8113,-1.825,-1.825,-1.9039,-2.0225,-1.9465,-2.0015,-2.113,0.0,-1.8879,-1.7969,-1.7938,-2.035,-2.4166,-2.8152,-3.0912,-3.3019,-3.4746,-3.6406,-3.7969,-3.9258,-4.0742,-4.2246,-4.3535,-4.4766,-4.5426,-4.4252,-4.249,-4.0421,-3.8031,-3.5285,-3.2688,-3.0733,-3.0668,-3.0879,-3.0788,-3.3006,-3.5908,-3.9104,-4.1836,-4.4453,-4.7129,-4.8268,-4.8835,-4.8894,-4.8913,-4.8933,-4.8991,-4.8991,-4.9011,-4.907,-4.9089,-4.9199,-4.959,-5.0019,-5.043,-5.0801,-5.0703,-5.0273,-4.9484,-4.9126,-4.8893,-4.8913,-4.857,-4.857,-4.8913,-4.8913,-4.8913,-4.8913,-4.8913,-4.8913,-4.8913,-4.8913,-4.8913,-4.8855,-4.8379,-4.6664,-4.4078,-4.1499,-4.1636,-4.2773,0.0,0.0,0.0,0.0,0.0,0.0,0.0,0.0,0.0,0.0,-0.0384,-0.079,0.0,0.0,0.0,0.0,0.0,0.0,0.0,0.0,0.0,-0.9142,-0.9309,-1.0003,-1.1469,-1.152,-1.1595,-1.1701,-1.1833,-1.2231,-1.2879,-1.2981,-1.3908,-1.5433,-1.5433,-1.6036,-1.7021,-1.7021,-1.7051,-1.7081,-1.6922,-1.6877,-1.6868,-1.6629,0.0,0.0,-1.8405,-2.0056,-2.2215,-2.8467,-3.2679,-3.5703,-3.7773,-3.9121,-4.0215,-4.1445,-4.2344,-4.3144,-4.4433,-4.5234,-4.5062,-4.235,-4.1232,-3.9622,-3.5287,-3.2997,0.0,-2.9008,-2.7902,-2.7574,-2.8397,-3.0418,-3.3321,-3.7559,-4.0684,-4.3631,-4.6621,-4.7773,-4.8457,-4.8855,-4.8913,-4.905,-4.9375,-4.9414,-4.9551,-4.9969,-4.9941,-4.998,-5.0058,-5.0469,-5.0723,-5.0801,-5.0117,-4.9621,-4.9484,-4.7009,-4.685,-4.8848,-4.6728,-4.6822,-4.8913,-4.8913,-4.8913,-4.8913,-4.8913,0.0,-4.8913,-4.8913,-4.8913,-4.8855,-4.8379,-4.7703,-4.687,-4.5961,-4.5649,-4.5612,0.0,0.0,0.0,0.0,0.0,0.0,0.0,0.0,0.0,0.0,0.0,-0.0206,-0.0702,-0.0759,0.0,0.0,0.0,0.0,0.0,0.0,0.0,-0.7936,-0.7546,-0.7886,-0.9184,-0.938,-0.9459,-0.9459,0.0,-1.0226,-1.1072,-1.1126,-1.2276,-1.4322,-1.4322,-1.5047,-1.6222,-1.6222,-1.6166,-1.6046,-1.6046,-1.6046,-1.6059,0.0,0.0,0.0,-1.793,-1.9637,-2.1783,-2.5834,-2.9547,-3.3248,-3.7793,-3.9805,-4.0684,-4.1797,-4.1826,-4.1792,-4.2823,-4.256,-4.1495,-3.967,-3.7734,-3.5295,-3.1533,-2.8749,-2.636,-2.4216,-2.4005,-2.4322,-2.4606,-2.735,-3.0701,-3.418,-3.7195,-4.0655,-4.4989,-4.6152,-4.7129,-4.8718,-4.8913,-4.9089,-4.9492,-4.9484,-4.9707,-5.0137,-5.0391,-5.0508,-5.0508,-5.0703,-5.0703,-5.0488,-4.9863,-4.9414,-4.918,-4.7747,-4.7651,-4.8848,-4.6242,-4.5661,-4.6868,-4.6868,-4.6868,-4.6962,-4.832,-4.8913,-4.8913,-4.8913,-4.8913,-4.8874,-4.8679,-4.8144,-4.7404,-4.5894,-4.5732,-4.6114,0.0,0.0,0.0,0.0,0.0,0.0,0.0,0.0,0.0,0.0,0.0,0.0,0.0,0.0,0.0,0.0,0.0,0.0,0.0,0.0,0.0,0.0,0.0,-0.5841,-0.6761,0.0,0.0,0.0,-0.7837,0.0,0.0,0.0,0.0,0.0,0.0,0.0,-1.5415,-1.5676,-1.5808,0.0,0.0,0.0,0.0,0.0,0.0,0.0,0.0,-1.8879,-2.0996,-2.3057,-2.5641,-2.899,-3.512,-3.8188,-3.9682,-4.0568,-4.0353,-4.0042,-4.0937,-3.9815,-3.8224,-3.7473,-3.4662,-3.1355,-2.8612,-2.5211,-2.2158,-2.0201,-2.068,-2.1537,-2.1705,-2.4614,-2.8044,-3.1284,-3.4003,-3.7688,-4.3329,-4.4726,-4.6055,-4.8483,-4.8933,0.0,-4.9629,-4.9746,-4.998,-5.041,-5.0762,-5.0898,-5.0801,-5.0625,-5.0371,-5.0039,-4.9609,-4.9219,-4.8913,-4.8913,-4.8913,-4.8848,-4.6822,-4.5849,-4.5849,-4.5849,-4.5849,-4.5943,-4.8023,-4.8913,-4.8913,-4.8913,-4.8913,-4.8913,-4.8913,-4.8444,-4.747,-4.544,-4.5404,-4.6143,0.0,0.0,0.0,0.0,0.0,0.0,0.0,0.0,0.0,0.0,0.0,0.0,0.0,0.0,0.0,0.0,0.0,0.0,0.0,0.0,0.0,0.0,0.0,0.0,0.0,0.0,0.0,0.0,0.0,0.0,0.0,0.0,0.0,0.0,0.0,0.0,0.0,-1.532,0.0,0.0,0.0,0.0,0.0,0.0,0.0,0.0,0.0,-1.7389,-1.82,-2.2057,-2.3572,-2.4555,-2.8648,-3.2895,-3.6513,-3.7359,-3.8344,-3.9274,-4.015,-3.9297,-3.7882,-3.6794,-3.4165,-3.1063,-2.8152,-2.4656,-2.163,-2.012,-1.9488,-1.9818,-2.177,-2.2836,-2.5221,-3.0872,-3.3358,-3.6568,-4.2377,-4.459,-4.6269,-4.8047,0.0,0.0,-5.0078,-5.0469,-5.0859,-5.1289,-5.1299,-5.1211,-5.082,-5.0058,-4.9582,-4.959,-4.916,-4.8952,-4.8913,-4.8913,-4.8913,-4.8913,-4.8663,-4.8524,-4.8524,-4.8524,-4.8524,-4.857,-4.8801,-4.8913,0.0,-4.8913,-4.8913,-4.8913,-4.8913,-4.8574,-4.806,-4.7489,-4.7087,-4.6772,0.0,0.0,0.0,0.0,0.0,0.0,0.0,0.0,0.0,0.0,0.0,0.0,0.0,0.0,0.0,0.0,0.0,0.0,0.0,0.0,0.0,0.0,0.0,0.0,0.0,0.0,0.0,0.0,0.0,0.0,0.0,0.0,0.0,0.0,0.0,0.0,0.0,0.0,0.0,0.0,0.0,0.0,0.0,0.0,0.0,0.0,0.0,0.0,-1.7916,-1.9358,-2.0345,-2.1188,-2.2512,-2.5755,-3.0003,-3.4595,-3.4963,-3.4433,-3.6988,-3.6518,-3.5103,-3.4364,-3.3295,-3.1541,-2.7983,-2.5045,-2.2421,-2.0037,-1.9212,-1.9238,-2.0325,-2.0808,-2.2376,-2.6433,-2.842,-3.1506,-3.7315,-4.0029,-4.2617,-4.5898,-4.724,-4.8535,-5.0039,-5.0332,-5.0703,-5.1338,-5.0957,-5.0605,-5.043,-5.0098,-4.9805,-4.9484,-4.9101,-4.8913,-4.8913,-4.8913,-4.8913,-4.8848,-4.7307,-4.6523,-4.6523,-4.6542,-4.6542,-4.6616,-4.8227,-4.8913,0.0,-4.8913,-4.8913,-4.8913,-4.8913,-4.8594,-4.8164,-4.7734,-4.7305,-4.6831,0.0,0.0,0.0,0.0,0.0,0.0,0.0,0.0,0.0,0.0,0.0,0.0,0.0,0.0,0.0,0.0,0.0,0.0,0.0,0.0,0.0,0.0,0.0,0.0,0.0,0.0,-0.7855,-0.795,0.0,0.0,0.0,0.0,0.0,0.0,0.0,0.0,0.0,0.0,0.0,0.0,0.0,0.0,0.0,0.0,0.0,0.0,0.0,0.0,0.0,0.0,0.0,-1.8866,-1.8811,-2.0638,-2.4069,-3.0549,-3.1244,-3.0578,-3.3575,-3.3212,-3.2193,-3.2999,-3.2052,-3.0302,-2.8239,-2.5239,-2.2211,-1.9879,-1.9132,-1.8983,-1.9348,-1.9599,-2.067,-2.3367,-2.5445,-2.8732,-3.4284,-3.7415,-4.0566,-4.4394,-4.5859,-4.7363,-4.9394,-5.0176,-5.0801,-5.1338,-5.0762,-5.0312,-5.0243,-5.0058,-4.9785,-4.9336,-4.907,-4.8913,-4.8913,-4.8913,-4.8913,-4.8848,-4.7008,-4.6149,-4.6149,-4.6167,-4.6167,-4.6242,-4.8088,-4.8913,0.0,-4.8913,-4.8913,-4.8913,-4.8913,-4.8718,-4.834,-4.7773,-4.7383,-4.7051,0.0,0.0,0.0,0.0,0.0,0.0,0.0,0.0,0.0,0.0,0.0,0.0,0.0,0.0,0.0,0.0,0.0,0.0,0.0,0.0,0.0,0.0,0.0,0.0,0.0,0.0,-0.7963,-0.8294,-0.8294,-0.8294,0.0,0.0,0.0,0.0,0.0,0.0,0.0,0.0,0.0,0.0,0.0,0.0,0.0,0.0,0.0,0.0,0.0,0.0,0.0,0.0,0.0,0.0,0.0,-1.8532,-1.9563,-2.4705,-2.7362,-2.889,-3.021,-2.9644,-2.9576,-3.3501,-3.0221,-2.6682,-2.9016,-2.4985,-2.0489,-1.9575,-1.9132,-1.8983,-1.9348,-1.9599,-2.0571,-2.2946,-2.5973,-2.9825,-3.4794,-3.8366,-4.1465,-4.4082,-4.5156,-4.6367,-4.8066,-5.0109,-5.1377,-5.1377,-5.1035,-5.0625,-5.0195,-4.9766,-4.9336,-4.8933,-4.8913,-4.8913,-4.8913,-4.8913,-4.8913,-4.8913,-4.8848,-4.8848,-4.8848,-4.8848,-4.8848,-4.8848,-4.8913,-4.8913,0.0,-4.8913,-4.8913,-4.8913,-4.8913,-4.8913,-4.8796,-4.7936,-4.7578,-4.7461,0.0,0.0,0.0,0.0,0.0,0.0,0.0,0.0,0.0,0.0,0.0,0.0,0.0,0.0,0.0,0.0,0.0,0.0,0.0,0.0,0.0,0.0,0.0,0.0,0.0,0.0,-0.8065,-0.8294,-0.8396,-0.8444,-0.8444,-0.8444,-0.8362,0.0,0.0,0.0,0.0,0.0,0.0,0.0,0.0,0.0,0.0,0.0,0.0,0.0,0.0,0.0,0.0,0.0,0.0,0.0,0.0,0.0,0.0,-2.0586,-2.2566,-2.4692,-2.7509,-2.8252,-2.8479,-2.9396,-2.8981,-2.7978,-2.663,-2.4329,-2.1877,-1.9838,-1.9321,-1.9252,-1.9374,-1.9468,-2.0156,-2.2088,-2.5468,-2.8903,-3.1987,-3.7091,-4.1269,-4.3262,-4.6348,-4.8516,-4.9062,-5.0,-5.0586,-5.0586,-5.0176,-4.9863,-4.9746,-4.9316,-4.905,-4.8913,-4.8913,-4.8913,-4.8913,-4.8913,-4.8913,-4.8913,-4.8913,-4.8913,-4.8913,-4.8913,-4.8913,-4.8913,-4.8913,-4.8913,-4.8913,-4.8913,-4.8913,-4.8913,-4.8913,-4.8913,-4.8796,-4.7936,-4.7578,-4.7461,0.0,0.0,0.0,0.0,0.0,0.0,0.0,0.0,0.0,0.0,0.0,0.0,0.0,0.0,0.0,0.0,0.0,0.0,0.0,0.0,0.0,0.0,0.0,0.0,-0.3998,-0.614,-0.7636,-0.8464,-0.8526,-0.8648,-0.8764,-0.8764,-0.8621,-0.8395,-0.9107,0.0,0.0,0.0,0.0,0.0,0.0,0.0,0.0,0.0,0.0,0.0,0.0,0.0,0.0,0.0,0.0,0.0,0.0,0.0,0.0,0.0,-1.9666,-2.1339,-2.4419,-2.5769,-2.6396,-2.6879,-2.6812,-2.6247,-2.4888,-2.3229,-2.1471,-1.9755,-1.9401,-1.9401,-1.9401,-1.9481,-1.992,-2.1122,-2.4885,-2.8405,-3.0734,-3.6386,-4.1172,-4.3535,-4.6758,-4.8789,-4.8789,-4.9629,-5.0176,-5.0176,-4.9785,-4.9484,-4.9484,-4.9101,-4.8913,-4.8913,-4.8913,-4.8913,-4.8913,-4.8913,-4.8913,-4.8913,-4.8913,-4.8913,-4.8913,-4.8913,-4.8913,-4.8913,-4.8913,-4.8913,0.0,-4.8913,-4.8913,-4.8913,-4.8913,-4.8913,-4.8815,-4.8066,-4.7715,-4.748,0.0,0.0,0.0,0.0,0.0,0.0,0.0,0.0,0.0,0.0,0.0,0.0,0.0,0.0,0.0,0.0,0.0,0.0,0.0,0.0,0.0,0.0,0.0,0.0,-0.3964,-0.5331,-0.6898,-0.871,-0.8743,-0.8906,-0.9241,-0.9255,-0.8981,-0.8539,-0.8532,-0.9068,0.0,0.0,0.0,0.0,0.0,0.0,0.0,0.0,0.0,0.0,0.0,0.0,0.0,0.0,0.0,0.0,0.0,0.0,0.0,0.0,0.0,0.0,0.0,-2.2352,-2.344,-2.5366,-2.379,-2.212,-2.3499,-2.1702,0.0,-1.9428,-1.9361,-1.9401,-1.9495,-1.9653,-1.999,-2.0581,-2.4625,-2.8588,-3.1109,-3.6534,-4.1523,-4.4902,-4.6699,-4.7676,-4.7676,-4.9187,-5.0078,-5.0078,-4.9707,-4.9473,-4.9473,-4.9082,-4.8913,-4.8913,-4.8913,-4.8913,-4.8913,-4.8913,-4.8913,-4.8913,-4.8913,-4.8913,-4.8913,-4.8913,-4.8913,0.0,-4.8913,-4.8913,-4.8913,-4.8913,-4.8913,-4.8913,-4.8913,-4.8913,-4.8855,-4.834,-4.791,-4.7519,0.0,0.0,0.0,0.0,0.0,0.0,0.0,0.0,0.0,0.0,0.0,0.0,0.0,0.0,0.0,0.0,0.0,0.0,0.0,0.0,0.0,0.0,0.0,0.0,-0.3964,-0.547,-0.7035,-0.871,-0.9055,-0.932,-0.9503,-0.9612,-0.9367,-0.8798,-0.871,-0.9212,0.0,0.0,0.0,0.0,0.0,0.0,0.0,0.0,0.0,0.0,0.0,-1.4378,0.0,0.0,0.0,0.0,0.0,0.0,0.0,0.0,-1.7969,-1.8249,-1.8796,0.0,-1.9996,-2.0284,-1.9979,-1.9663,0.0,-1.9448,-1.9076,-1.9038,-1.9025,-1.9372,-2.0494,-2.0214,-2.1009,-2.4655,-2.7888,-3.1098,-3.4382,-4.0045,-4.4844,-4.7682,-4.8366,-4.86,-4.86,-4.8972,-4.9206,-4.9206,-4.9128,-4.907,-4.907,-4.8952,-4.8913,-4.8913,-4.8913,-4.8913,-4.8913,-4.8913,-4.8913,-4.8913,-4.8913,-4.8913,-4.8913,-4.8913,-4.8913,-4.8913,-4.8913,-4.8913,-4.8913,-4.8913,-4.8913,-4.8913,-4.8913,-4.8913,-4.8815,-4.8008,-4.7656,-4.7461,0.0,0.0,0.0,0.0,0.0,0.0,0.0,0.0,0.0,0.0,0.0,0.0,0.0,0.0,0.0,0.0,0.0,0.0,0.0,0.0,0.0,0.0,0.0,-0.1999,-0.3964,-0.4882,-0.6458,-0.8791,-0.9123,-0.9462,-0.9778,-0.9785,-0.9548,-0.9123,-0.8696,-0.8827,0.0,0.0,0.0,0.0,0.0,0.0,0.0,0.0,0.0,0.0,-1.4986,-1.4548,0.0,-1.5693,-1.6447,-1.6752,0.0,0.0,0.0,0.0,-1.7702,-1.7836,-1.7836,-1.8543,-1.9292,-1.9132,-1.9305,-1.945,-1.929,-1.9076,-1.893,-1.9092,-1.9025,-1.9223,-2.0307,-2.0454,-2.1357,-2.4311,-2.7275,-3.1297,-3.7238,-4.225,-4.6211,-4.862,-4.8913,-4.8913,-4.8913,-4.8913,-4.8913,-4.8913,-4.8913,-4.8913,-4.8913,-4.8913,-4.8913,-4.8913,-4.8913,-4.8913,-4.8913,-4.8913,-4.8913,-4.8913,-4.8913,-4.8913,-4.8913,-4.8913,-4.8913,-4.8913,-4.8913,-4.8913,-4.8913,-4.8913,-4.8913,-4.8913,-4.8913,-4.8913,-4.8855,-4.8385,-4.7955,-4.7519,0.0,0.0,0.0,0.0,0.0,0.0,0.0,0.0,0.0,0.0,0.0,0.0,0.0,0.0,0.0,0.0,0.0,0.0,0.0,0.0,0.0,0.0,-0.0296,-0.159,-0.4325,-0.4497,-0.5987,-0.8946,-0.9192,-0.953,-0.9984,-0.9934,-0.972,-0.9342,-0.8641,-0.8328,0.0,0.0,0.0,0.0,0.0,0.0,0.0,0.0,0.0,0.0,0.0,0.0,0.0,-1.6497,-1.7318,-1.7685,-1.8141,0.0,0.0,0.0,0.0,0.0,-1.7715,-1.8798,-1.988,-1.9653,-1.985,-2.0117,-2.0077,-1.949,-1.9078,-1.9401,-1.9239,-1.9276,-2.012,-2.1109,-2.2272,-2.3636,-2.7083,-3.2211,-3.9712,-4.3695,-4.6391,-4.8088,-4.8663,-4.8913,-4.8913,-4.8913,-4.8913,-4.8913,-4.8913,-4.8913,-4.8913,-4.8913,-4.8913,-4.8913,-4.8913,-4.8913,-4.8913,-4.8913,-4.8913,-4.8913,-4.8913,-4.8913,-4.8913,-4.8913,-4.8913,-4.8913,-4.8913,0.0,-4.8913,-4.8913,-4.8913,-4.8913,-4.8913,-4.8913,-4.8894,-4.8835,-4.8346,-4.7611,0.0,0.0,0.0,0.0,0.0,0.0,0.0,0.0,0.0,0.0,0.0,0.0,0.0,0.0,0.0,0.0,0.0,0.0,0.0,0.0,0.0,-0.1655,-0.1705,-0.3078,-0.6041,-0.6139,-0.712,-0.9152,-0.9523,-0.9798,-1.0021,-1.0283,-0.9988,-0.9192,-0.8696,-0.8478,-0.8478,-0.8498,0.0,0.0,0.0,0.0,0.0,0.0,0.0,0.0,0.0,0.0,0.0,-1.4301,-1.5241,-1.5992,-1.7069,0.0,0.0,0.0,0.0,0.0,-1.817,-1.9455,-2.0271,-1.8998,-1.9279,-1.98,-1.9589,-1.9428,-1.9415,-1.9679,-1.9693,-2.0227,-2.2091,-2.3818,-2.62,-2.9913,-3.5348,-3.9821,-4.1836,-4.4486,-4.6082,-4.5647,-4.7539,-4.8913,-4.8913,-4.8913,-4.8913,-4.8913,-4.8913,-4.8913,-4.8913,-4.8913,-4.8913,-4.8913,-4.8913,-4.8913,-4.8913,-4.8913,-4.8913,-4.8913,-4.8913,-4.8913,-4.8913,-4.8913,-4.8913,-4.8913,0.0,-4.8913,-4.8913,-4.8913,-4.8913,-4.8913,-4.8913,-4.8913,-4.8855,-4.8437,-4.8223,-4.7716,0.0,0.0,0.0,0.0,0.0,0.0,0.0,0.0,0.0,0.0,0.0,0.0,0.0,0.0,0.0,0.0,0.0,0.0,0.0,0.0,-0.0963,-0.3086,-0.3188,-0.4233,-0.6463,-0.6641,-0.7598,-0.943,-0.9737,-0.953,-0.8805,-0.8718,-0.8334,-0.7774,-0.8267,-0.8505,-0.8505,-0.8505,-0.8662,0.0,0.0,0.0,0.0,0.0,0.0,0.0,0.0,0.0,0.0,0.0,-1.615,-1.6875,-1.7292,0.0,0.0,0.0,0.0,0.0,-1.7675,-1.8866,-1.991,-1.9519,-2.0454,-2.1448,-2.1315,-2.0927,-2.0699,-2.1122,-2.0962,-2.1208,-2.2639,-2.4129,-2.6214,-2.959,-3.4237,-3.7703,-3.8548,-4.1062,-4.286,-4.2933,-4.4021,-4.5285,-4.6682,-4.6775,-4.74,-4.8801,-4.8913,-4.8913,-4.8913,-4.8913,-4.8913,-4.8913,-4.8913,-4.8913,-4.8913,-4.8913,-4.8913,-4.8913,-4.8913,-4.8913,-4.8913,-4.8913,-4.8913,-4.8913,0.0,-4.8913,-4.8913,-4.8913,-4.8913,-4.8913,-4.8913,-4.8913,-4.8815,-4.8105,-4.7871,-4.7599,0.0,0.0,0.0,0.0,0.0,0.0,0.0,0.0,0.0,0.0,0.0,0.0,0.0,0.0,0.0,0.0,0.0,0.0,0.0,0.0,-0.1245,-0.4075,-0.425,-0.519,-0.7136,-0.7354,-0.8178,-0.9683,-0.9539,-0.8652,-0.7173,-0.7161,-0.6956,-0.6614,-0.7969,-0.8567,-0.8533,-0.8533,-0.8689,0.0,0.0,0.0,0.0,0.0,0.0,0.0,0.0,0.0,0.0,0.0,0.0,0.0,0.0,0.0,0.0,-1.7582,-1.7313,-1.7259,-1.7541,-1.8478,-1.9575,-2.0224,-2.151,-2.2679,-2.3027,-2.2479,-2.2104,-2.2792,-2.2579,-2.2532,-2.3281,-2.4925,-2.712,-3.0057,-3.3117,-3.5258,-3.563,-3.8197,-4.0098,-4.0238,-4.085,-4.1955,-4.3927,-4.4116,-4.5173,-4.7791,-4.7446,-4.7605,-4.8848,-4.832,-4.8273,-4.8848,-4.8913,-4.8913,-4.8913,-4.8913,-4.8913,-4.8913,-4.8913,-4.8913,-4.8913,-4.8913,-4.8913,-4.8913,-4.8913,-4.8913,-4.8913,-4.8913,-4.8913,-4.8913,-4.8913,-4.8913,-4.8815,-4.8008,-4.7656,-4.7461,0.0,0.0,0.0,0.0,0.0,0.0,0.0,0.0,0.0,0.0,0.0,0.0,0.0,0.0,0.0,0.0,0.0,0.0,0.0,0.0,-0.1245,-0.4075,-0.4381,-0.595,-0.9127,-0.9084,-0.9334,-0.9988,-0.8491,-0.6928,-0.5333,-0.6728,-0.7125,-0.6757,-0.8211,-0.8798,-0.8696,-0.8696,-0.8764,-0.8912,-0.9023,0.0,0.0,0.0,0.0,0.0,0.0,0.0,0.0,0.0,0.0,0.0,0.0,0.0,-1.8009,-1.7969,-1.7582,-1.7421,-1.849,-1.9078,-1.9669,-2.0762,-2.1381,-2.2037,-2.3429,-2.3255,-2.3134,-2.4199,-2.4412,-2.4516,-2.4863,-2.8121,-3.1925,-3.559,-3.7231,-3.7595,-3.6338,-3.8656,-3.9755,-3.7824,-3.9739,-4.1283,-4.1476,-4.1476,-4.2529,-4.5079,-4.3119,-4.3832,-4.8663,-4.657,-4.6383,-4.8801,-4.8913,-4.8913,-4.8913,-4.8913,-4.8913,-4.8913,-4.8913,-4.8913,-4.8913,-4.8913,-4.8913,-4.8913,-4.8913,-4.8913,-4.8913,-4.8913,-4.8913,-4.8913,-4.8913,-4.8913,-4.8855,-4.834,-4.791,-4.7519,0.0,0.0,0.0,0.0,0.0,0.0,0.0,0.0,0.0,0.0,0.0,0.0,0.0,0.0,0.0,0.0,0.0,0.0,0.0,0.0,-0.1255,-0.4075,-0.4388,-0.5939,-0.9012,-0.9408,-0.9815,-1.0324,-0.7555,-0.5343,-0.3628,-0.4004,-0.4508,-0.5199,-0.6729,-0.7889,-0.871,-0.871,-0.9307,-1.0268,-1.0268,0.0,0.0,0.0,0.0,0.0,0.0,0.0,0.0,0.0,-1.6538,-1.7152,-1.6872,-1.7355,-1.7889,-1.7355,-1.7048,-1.7033,-1.7675,-1.8732,-1.9826,-2.0641,-2.2869,-2.511,-2.6126,-2.5402,-2.5245,-2.7754,-2.722,-2.636,-2.6653,-2.8428,-3.0424,-3.2222,-3.3603,-3.4315,-3.4023,-3.5198,-3.5802,-3.4941,-3.5734,-3.6987,-3.8636,-3.8782,-3.9836,-4.2434,-4.1764,-4.2051,-4.4021,-4.4701,-4.5455,-4.6429,-4.8023,-4.8134,-4.6476,-4.6476,-4.5661,-4.4163,-4.7353,-4.8913,-4.8913,-4.8913,-4.8913,-4.8913,-4.8913,-4.8913,-4.8913,-4.8913,-4.8913,-4.8913,-4.8913,-4.8737,-4.8398,-4.7969,-4.7539,-4.7109,0.0,0.0,0.0,0.0,0.0,0.0,0.0,0.0,0.0,0.0,0.0,0.0,0.0,0.0,0.0,0.0,0.0,0.0,0.0,0.0,-0.1245,-0.4071,-0.4388,-0.5916,-0.8939,-0.9467,-0.9951,-1.0383,-0.7539,-0.5188,-0.3327,-0.3623,-0.4234,-0.5194,-0.668,-0.7932,-0.8941,-0.9301,-1.0078,-1.1137,-1.1619,-1.2936,0.0,0.0,0.0,0.0,0.0,0.0,0.0,0.0,-1.6366,-1.6898,-1.6752,-1.7248,-1.7769,-1.7275,-1.7194,-1.7315,-1.7541,-1.8625,-1.9867,-2.0766,-2.3318,-2.6274,-2.8935,-2.8087,-2.7576,-3.0491,-2.9281,-2.7802,-2.819,-2.8684,-2.9215,-2.994,-3.1129,-3.2104,-3.2541,-3.2973,-3.3307,-3.34,-3.3414,-3.4086,-3.5882,-3.608,-3.7134,-3.9787,-3.9981,-4.0657,-4.229,-4.4069,-4.5379,-4.6195,-4.7167,-4.6822,-4.5031,-4.4211,-4.2911,-4.1235,-4.4796,-4.6868,-4.7698,-4.8505,-4.8913,-4.8913,-4.8913,-4.8913,-4.8913,-4.8913,-4.8913,-4.8913,-4.8913,-4.8594,-4.8164,-4.7734,-4.7305,-4.6831,0.0,0.0,0.0,0.0,0.0,0.0,0.0,0.0,0.0,0.0,0.0,0.0,0.0,0.0,0.0,0.0,0.0,0.0,0.0,0.0,-0.1245,-0.4071,-0.4384,-0.5971,-0.913,-0.9449,-0.9754,-1.0084,-0.8537,-0.6737,-0.4729,-0.6324,-0.7094,-0.7154,-0.8561,-0.9267,-0.947,-1.0604,-1.1109,-1.1237,-1.2706,-1.3986,-1.4986,0.0,0.0,0.0,0.0,0.0,0.0,0.0,-1.6297,-1.6444,-1.7327,-1.7608,-1.7649,-1.7929,-1.8237,-1.849,-1.849,-1.896,-1.9762,-2.1234,-2.2298,-2.477,-3.1547,-3.1207,-2.9977,-3.1906,-3.0353,-2.8791,-2.9379,-2.9245,-2.9339,-3.0266,-3.1149,-3.1925,-3.2514,-3.2848,-3.3093,-3.3374,-3.3414,-3.3414,-3.3414,-3.3414,-3.4471,-3.7085,-3.7282,-3.9496,-4.4636,-4.4937,-4.6149,-4.8755,-4.6383,-4.5031,-4.4984,-4.2482,-4.1187,-4.1139,-4.1139,-4.2529,-4.5079,-4.7698,-4.8848,-4.8913,-4.8913,-4.8913,-4.8913,-4.8913,-4.8913,-4.8913,-4.8913,-4.8594,-4.8144,-4.7734,-4.7305,-4.6831,0.0,0.0,0.0,0.0,0.0,0.0,0.0,0.0,0.0,0.0,0.0,0.0,0.0,0.0,0.0,0.0,0.0,0.0,0.0,0.0,-0.1213,-0.3948,-0.4198,-0.5635,-0.85,-0.9056,-0.894,-0.8191,-0.7854,-0.6594,-0.4563,-0.5226,-0.6017,-0.6844,-0.7437,-0.8213,-0.9062,-0.9411,-1.0754,-1.2716,-1.3327,-1.4781,-1.6536,0.0,0.0,0.0,0.0,0.0,0.0,0.0,0.0,0.0,-1.6605,-1.7235,-1.7809,-1.7528,-1.7943,-1.849,-1.849,-1.9519,-2.0842,-2.1897,-2.6079,-3.0601,-3.3127,-3.215,-3.1197,-3.2978,-3.1326,-2.9646,-3.0079,-3.0065,-3.0127,-3.0595,-3.1223,-3.1925,-3.2514,-3.2848,-3.3093,-3.3374,-3.3414,-3.3414,-3.3414,-3.3414,-3.37,-3.4471,-3.4571,-3.603,-3.9399,-4.1332,-4.3499,-4.6083,-4.7214,-4.6008,-4.2338,-4.1572,-3.9351,-3.5734,-3.7576,-4.0754,-4.5031,-4.5802,-4.7148,-4.8913,-4.8913,-4.8913,-4.8913,-4.8913,-4.8913,-4.8913,-4.8913,-4.8464,-4.7754,-4.7617,-4.7109,-4.6465,0.0,0.0,0.0,0.0,0.0,0.0,0.0,0.0,0.0,0.0,0.2311,0.1005,0.0,0.0,0.0,0.0,0.0,0.0,0.0,-0.1482,-0.2467,-0.4614,-0.4851,-0.6036,-0.8412,-0.8941,-0.8804,-0.8009,-0.8202,-0.7608,-0.6246,-0.6605,-0.7178,-0.7944,-0.8165,-0.8589,-0.9198,-0.9723,-1.0912,-1.2499,-1.3287,-1.4473,-1.5779,0.0,0.0,0.0,0.0,0.0,0.0,0.0,0.0,0.0,-1.6257,-1.6767,-1.7341,-1.7354,-1.7983,-1.8771,-1.9239,-2.0468,-2.1924,-2.3166,-2.7614,-3.2483,-3.56,-3.4768,-3.3444,-3.3722,-3.1834,-3.0181,-3.0474,-3.0574,-3.0621,-3.0915,-3.1356,-3.1925,-3.2514,-3.2741,-3.2959,-3.336,-3.3414,-3.3414,-3.3414,-3.3414,-3.3414,-3.3414,-3.4386,-3.5635,-3.7233,-3.9787,-4.1907,-4.3452,-4.4021,-4.2816,-3.969,-3.8636,-3.6509,-3.3414,-3.5004,-3.7904,-4.2003,-4.3006,-4.437,-4.5914,-4.6915,-4.793,-4.8913,-4.8913,-4.8913,-4.8913,-4.8913,-4.8385,-4.7578,-4.7578,-4.7031,-4.6158,0.0,0.0,0.0,0.0,0.0,0.0,0.0,0.0,0.0,0.0,0.1288,0.0,0.0,0.0,0.0,0.0,0.0,0.0,0.0,-0.3732,-0.4403,-0.5756,-0.6085,-0.7013,-0.8696,-0.9009,-0.9083,-0.8912,-0.9225,-0.9211,-0.8919,-0.9554,-0.9926,-1.0014,-1.0282,-1.0177,-0.9875,-1.0941,-1.1279,-1.1176,-1.2688,-1.3334,-1.3521,-1.4319,0.0,0.0,0.0,0.0,0.0,0.0,0.0,0.0,-1.6179,-1.6337,-1.6538,-1.7341,-1.8223,-1.9183,-2.0361,-2.155,-2.2899,-2.4703,-2.7626,-3.1724,-3.8076,-3.7862,-3.5906,-3.4421,-3.2138,-3.0533,-3.0782,-3.0849,-3.0955,-3.1223,-3.149,-3.1912,-3.2474,-3.2554,-3.2755,-3.3267,-3.3334,-3.3347,-3.3374,-3.3374,-3.3387,-3.3414,-3.5585,-3.7036,-3.7282,-3.9545,-4.093,-4.1138,-3.8864,-3.7512,-3.7286,-3.4955,-3.365,-3.3414,-3.3414,-3.4621,-3.7036,-3.9642,-4.0995,-4.1332,-4.3879,-4.6336,-4.857,-4.8801,-4.8874,-4.8855,-4.8894,-4.8385,-4.7578,-4.7353,-4.6739,-4.567,0.0,0.0,0.0,0.0,0.0,0.0,0.0,0.0,0.0,0.0,0.0,0.0,0.0,0.0,0.0,0.0,0.0,0.0,0.0,-0.3779,-0.445,-0.5902,-0.7237,-0.8249,-0.8852,-0.8832,-0.8852,-0.8912,-0.9145,-0.911,-0.8947,-1.0903,-1.1771,-1.174,-1.2829,-1.2563,-1.1304,-1.0829,-1.0685,-1.0836,-1.138,-1.216,-1.2966,-1.3158,-1.3681,0.0,0.0,0.0,0.0,0.0,0.0,0.0,-1.6179,-1.6643,-1.7045,-1.7246,-1.8237,-1.9508,-2.0458,-2.1729,-2.3281,-2.5302,-2.8899,-3.2903,-3.6579,-3.5702,-3.4568,-3.6215,-3.3468,-3.0795,-3.1076,-3.133,-3.155,-3.1557,-3.1623,-3.1845,-3.2144,-3.2198,-3.2332,-3.2741,-3.2781,-3.2875,-3.3053,-3.3066,-3.316,-3.3387,-3.39,-3.5104,-3.7183,-3.7806,-3.8949,-4.0774,-4.0511,-3.9273,-3.7005,-3.6623,-3.5451,-3.3414,-3.3414,-3.37,-3.4336,-3.6938,-3.9269,-4.1332,-4.3897,-4.5303,-4.5979,-4.8042,-4.8698,-4.8379,-4.8776,-4.8385,-4.7334,-4.5402,-4.4387,-4.3568,0.0,0.0,0.0,0.0,0.0,0.0,0.0,0.0,0.0,0.0,0.0,0.0,0.0,0.0,0.0,0.0,0.0,0.0,0.0,-0.5529,-0.6011,-0.6923,-0.7884,-0.8485,-0.8615,-0.9132,-0.9531,-0.9751,-1.0482,-1.0631,-1.0346,-1.2539,-1.3633,-1.3808,-1.4212,-1.346,-1.1848,-1.1008,-1.0264,-0.9656,-0.9861,-1.0302,-1.0958,-1.2158,-1.2897,-1.3435,-1.4461,0.0,0.0,0.0,0.0,0.0,0.0,0.0,-1.6618,-1.7072,-1.7929,-1.9052,-2.0494,-2.2104,-2.421,-2.7801,-3.0627,-3.3212,-3.5981,-3.4945,-3.3777,-3.5131,-3.2843,-3.0675,-3.0969,-3.1263,-3.1503,-3.165,-3.1711,-3.177,-3.2064,-3.2104,-3.2211,-3.2554,-3.2594,-3.2648,-3.2808,-3.2822,-3.2888,-3.2986,-3.3,-3.3628,-3.4962,-3.506,-3.5594,-3.6805,-3.697,-3.6356,-3.4867,-3.4974,-3.4388,-3.3,-3.3133,-3.328,-3.3464,-3.482,-3.6839,-3.9463,-4.2068,-4.3744,-4.4825,-4.6243,-4.7351,-4.7975,-4.5649,-4.5206,-4.552,-4.2845,-4.1613,-4.0857,0.0,0.0,0.0,0.0,0.0,0.0,0.0,0.0,0.0,0.0,0.0,0.0,0.0,0.0,0.0,0.0,0.0,0.0,0.0,-0.7353,-0.7767,-0.804,-0.8201,-0.8424,-0.8704,-0.9697,-1.0484,-1.1106,-1.2345,-1.2972,-1.2984,-1.4504,-1.5486,-1.596,-1.5267,-1.4045,-1.2396,-1.1261,-0.9868,-0.8444,-0.8778,-0.8933,-0.9183,-1.1464,-1.24,-1.2752,-1.4761,-1.5605,-1.5808,-1.5808,0.0,0.0,0.0,0.0,-1.5955,-1.6792,-1.7422,-1.8276,-2.0214,-2.2298,-2.5047,-2.9748,-3.1364,-3.2408,-3.4593,-3.383,-3.2676,-3.2734,-3.148,-3.048,-3.0675,-3.0996,-3.1303,-3.1557,-3.2002,-3.2395,-3.2641,-3.3002,-3.3242,-3.3071,-3.305,-3.2932,-3.2562,-3.2514,-3.2541,-3.2594,-3.2594,-3.2594,-3.2594,-3.2594,-3.2567,-3.2527,-3.2567,-3.2567,-3.2514,-3.2567,-3.2594,-3.2594,-3.2835,-3.3053,-3.3334,-3.328,-3.4446,-3.6716,-3.932,-4.1414,-4.307,-4.363,-4.4975,-4.6298,-4.1988,-4.1479,-4.2824,-3.9991,-3.8787,-3.8113,0.0,0.0,0.0,0.0,0.0,0.0,0.0,0.0,0.0,0.0,0.0664,0.0,0.0,0.0,0.0,0.0,0.0,0.0,-0.5628,0.0,0.0,-0.8253,-0.8287,-0.8954,-1.0357,-1.0253,-1.1026,-1.27,-1.3905,-1.5565,-1.7592,-1.7124,-1.7253,-1.7863,-1.6872,-1.5594,-1.4087,-1.1414,-0.9429,-0.8174,-0.9356,-0.9838,-0.9987,-1.1427,-1.267,-1.3727,-1.404,-1.4854,-1.5808,-1.5808,-1.5808,0.0,0.0,0.0,-1.5875,-1.631,-1.6832,-1.7582,-1.8865,-2.1784,-2.5074,-2.7608,-2.8668,-2.9283,-2.9872,-2.9765,-2.9656,-2.9958,-3.0236,-3.0413,-3.0453,-3.0862,-3.1189,-3.1276,-3.328,-3.4841,-3.4885,-3.673,-3.7284,-3.5178,-3.4958,-3.4196,-3.2372,-3.2158,-3.2265,-3.2581,-3.2594,-3.2594,-3.2594,-3.2594,-3.2474,-3.2171,-3.246,-3.2474,-3.2171,-3.246,-3.2594,-3.2594,-3.2634,-3.2808,-3.3026,-3.2822,-3.3031,-3.3704,-3.6343,-3.7488,-3.7643,-3.9944,-4.0836,-4.0705,-4.0417,-4.0241,-3.9865,-3.7414,-3.6445,-3.5994,0.0,0.0,0.0,0.0,0.0,0.0,0.0,0.0,0.0,0.0,0.0,0.0,0.0,0.0,0.0,0.0,0.0,0.0,-0.5425,-0.6268,0.0,-0.7979,-0.881,-0.9576,-1.0289,-1.1611,-1.2758,-1.374,-1.5006,-1.6863,-1.9221,-1.9005,-1.9087,-1.937,-1.8155,-1.6063,-1.3339,-1.122,-0.9483,-0.8211,-0.8688,-0.9832,-1.1291,-1.1736,-1.3261,-1.5128,-1.5009,-1.532,-1.5808,-1.5808,-1.5808,-1.5808,-1.5808,0.0,0.0,0.0,-1.6446,-1.7474,-1.996,-2.2111,-2.4262,-2.6814,-2.7776,-2.8217,-2.8684,-2.8881,-2.9028,-2.9205,-2.9579,-3.0012,-3.0346,-3.0568,-3.0795,-3.0955,-3.2129,-3.3508,-3.487,-3.6129,-3.7021,-3.7344,-3.6144,-3.4932,-3.3964,-3.2694,-3.1965,-3.2099,-3.2099,-3.2099,-3.2099,-3.2099,-3.2045,-3.1864,-3.2032,-3.2045,-3.1864,-3.2032,-3.2179,-3.2291,-3.2291,-3.25,-3.2781,-3.2648,-3.2755,-3.3157,-3.556,-3.6436,-3.6168,-3.7382,-3.8553,-3.932,-3.6571,-3.6336,-3.7274,-3.4555,-3.3568,-3.3412,0.0,0.0,0.0,0.0,0.0,0.0,0.0,0.0,0.0,0.0,0.0,0.0,0.0,0.0,0.0,0.0,0.0,0.0,-0.4986,0.0,0.0,0.0,-0.9178,-1.0122,-1.0485,-1.274,-1.4195,-1.4802,-1.582,-1.7622,-2.0134,-2.0361,-2.057,-2.0789,-1.944,-1.6717,-1.3052,-1.1545,-0.9989,-0.8538,-0.8726,-1.0339,-1.2737,-1.3185,-1.4925,-1.7083,-1.6637,-1.6422,-1.6302,0.0,0.0,0.0,0.0,-1.5808,0.0,0.0,0.0,-1.7141,-2.016,-2.1577,-2.288,-2.5585,-2.676,-2.7428,-2.811,-2.8484,-2.8695,-2.8855,-2.9112,-2.9446,-3.0079,-3.0306,-3.048,-3.0648,-3.1471,-3.27,-3.4542,-3.602,-3.7121,-3.7759,-3.6709,-3.5515,-3.4368,-3.2614,-3.1583,-3.1711,-3.1711,-3.1711,-3.1711,-3.1711,-3.1711,-3.1711,-3.1711,-3.1711,-3.1711,-3.1711,-3.1784,-3.1998,-3.1998,-3.2144,-3.2474,-3.2407,-3.2527,-3.2893,-3.4548,-3.5108,-3.4769,-3.4864,-3.5979,-3.7196,-3.3219,-3.3005,-3.466,-3.249,-3.1711,-3.1711,0.0,0.0,0.0,0.0,0.0,0.0,0.0,0.0,0.0,0.0,0.0,0.0,0.0,0.0,-0.0022,-0.009,0.0,0.0,0.0,0.0,0.0,0.0,0.0,0.0,-1.177,-1.3175,-1.4642,-1.6199,-1.6273,-1.7903,-2.1042,-2.1056,-2.1527,-2.2304,-2.085,-1.813,-1.4569,-1.2979,-1.1074,-0.9244,-1.0456,-1.2164,-1.4232,-1.6458,-1.841,-1.984,-1.8743,-1.8156,0.0,0.0,0.0,0.0,0.0,-1.5808,-1.5808,0.0,0.0,0.0,-1.7796,-1.9263,-2.0851,-2.2972,-2.4796,-2.6305,-2.7175,-2.7603,-2.7936,-2.8511,-2.8644,-2.8831,-2.9419,-3.0025,-3.0413,-3.0426,-3.262,-3.4336,-3.4427,-3.8396,-3.9605,-3.515,-3.6498,-3.6085,-3.1816,-3.1296,-3.137,-3.1698,-3.1711,-3.1711,-3.1711,-3.1711,-3.1711,-3.1711,-3.1711,-3.1711,-3.1711,-3.1711,-3.1724,-3.1738,-3.1738,-3.1837,-3.2118,-3.1837,-3.1877,-3.2144,-3.2276,-3.2197,-3.1928,-3.1928,-3.2009,-3.2056,-3.1819,-3.1772,-3.1928,-3.1772,-3.1711,-3.1711,0.0,0.0,0.0,0.0,0.0,0.0,0.0,0.0,0.0,0.0,0.0,0.0,0.0,0.0,0.0,0.0,-0.0713,0.0,0.0,0.0,0.0,0.0,0.0,0.0,-1.3151,-1.4459,-1.5395,-1.5992,-1.5992,-1.7235,-1.972,-2.0094,-2.0637,-2.1302,-2.0524,-1.8743,-1.6226,-1.4302,-1.3222,-1.283,-1.3394,-1.5332,-1.7894,-1.8006,-1.9775,-2.1984,-2.0454,0.0,0.0,0.0,0.0,0.0,-1.6166,-1.5858,-1.5551,-1.5551,-1.5818,-1.6393,-1.7662,-1.8543,-1.9653,-2.1897,-2.338,-2.4556,-2.5663,-2.6667,-2.7482,-2.7696,-2.8203,-2.8671,-2.8885,-2.9406,-2.986,-3.0047,-3.1071,-3.2415,-3.3948,-3.5772,-3.6925,-3.6792,-3.6137,-3.5014,-3.3391,-3.2019,-3.1276,-3.1383,-3.1557,-3.1711,-3.1711,-3.1711,-3.1711,-3.1711,-3.1711,-3.1711,-3.1711,-3.1711,-3.1711,-3.1711,-3.1711,-3.1764,-3.1824,-3.1764,-3.173,-3.1824,-3.1824,-3.177,-3.1711,-3.1711,-3.1711,-3.1711,-3.1711,-3.1711,-3.1711,-3.1711,-3.1711,-3.1711,0.0,0.0,0.0,0.0,0.0,0.0,0.0,0.0,0.3226,0.1956,0.0,0.0,0.0,0.0,-0.135,-0.135,-0.2442,-0.3828,-0.5426,-0.6078,0.0,0.0,0.0,0.0,-1.3199,-1.4926,-1.5808,-1.5808,-1.5901,-1.6862,-1.8609,-1.9225,-2.0027,-2.0975,-2.0201,-1.8991,-1.7417,-1.6293,-1.5531,-1.515,-1.553,-1.735,-1.9877,-1.9956,-2.1628,-2.3728,0.0,0.0,0.0,0.0,0.0,0.0,-1.6926,-1.6166,-1.5538,-1.5538,-1.5885,-1.6444,-1.7089,-1.7702,-1.8704,-2.0855,-2.1811,-2.2745,-2.4649,-2.5758,-2.652,-2.7014,-2.7749,-2.8364,-2.8564,-2.8925,-2.9312,-2.9713,-2.994,-3.0704,-3.2387,-3.3456,-3.4381,-3.5258,-3.4604,-3.3813,-3.3118,-3.1762,-3.1022,-3.1209,-3.141,-3.157,-3.1711,-3.1711,-3.1711,-3.1711,-3.1711,-3.1711,-3.1711,-3.1711,-3.1711,-3.1711,-3.1711,-3.1711,-3.1711,-3.1711,-3.1711,-3.1711,-3.1711,-3.1711,-3.1711,-3.1711,-3.1711,-3.1711,-3.1711,-3.1711,-3.1711,-3.1711,-3.1711,-3.1711,0.0,0.0,0.0,0.0,0.0,0.0,0.0,0.0,0.3301,0.1915,0.0,0.0,0.0,0.0,0.0,-0.4064,-0.5124,-0.5813,-0.5855,-0.6956,0.0,0.0,0.0,0.0,-1.2013,-1.4495,-1.5808,-1.5808,-1.6112,-1.686,-1.7969,-1.8569,-1.98,-2.1422,-2.0017,-1.894,-1.8154,-1.8888,-1.79,-1.5947,-1.6761,-1.8172,-2.0032,-2.2505,-2.4168,0.0,-2.4489,-2.3901,0.0,-2.1011,0.0,0.0,0.0,-1.678,-1.5821,-1.5808,-1.6046,-1.6257,0.0,0.0,0.0,-1.9677,-2.0117,-2.0971,-2.4195,-2.473,-2.4933,-2.6413,-2.7215,-2.7816,-2.8457,-2.8577,-2.8778,-2.9366,-2.9459,-2.9566,-2.9847,-3.185,-3.2425,-3.0169,-3.1909,-3.2512,-3.0587,-3.04,-3.0595,-3.1169,-3.1223,-3.1356,-3.1698,-3.1711,-3.1711,-3.1711,-3.1711,-3.1711,-3.1711,-3.1711,-3.1711,-3.1711,-3.1711,-3.1711,-3.1711,-3.1711,-3.1711,-3.1711,-3.1711,-3.1711,-3.1711,-3.1711,-3.1711,-3.1711,-3.1711,-3.1711,-3.1711,-3.1711,-3.1711,-3.1711,0.0,0.0,0.0,0.0,0.0,0.5693,0.4348,0.3863,0.2857,0.0,0.0,0.0,-0.2735,-0.3652,-0.4506,-0.5379,-0.574,-0.6285,-0.7056,-0.7502,-0.8599,-1.054,-1.1408,-1.2748,-1.4687,-1.5439,-1.5808,-1.5808,-1.5888,-1.6315,-1.7062,-1.7488,-1.813,-1.8996,-1.9038,-1.8895,-1.866,-1.8438,-1.9069,-2.0221,-1.9825,-2.1356,-2.3899,-2.4168,0.0,0.0,0.0,-2.5585,-2.4756,0.0,-2.2178,-2.0227,0.0,0.0,-1.638,-1.5928,-1.6339,-1.6844,-1.631,0.0,0.0,0.0,0.0,0.0,0.0,-2.1857,-2.2953,-2.4813,-2.5545,-2.6239,-2.7682,-2.7949,-2.815,-2.8751,-2.9018,-2.9148,-2.9228,-3.0019,-3.0332,-2.9695,-3.0345,-3.0643,-3.0079,-3.0279,-3.056,0.0,-3.1102,-3.1356,-3.1698,-3.1711,-3.1711,-3.1711,-3.1711,-3.1711,-3.1711,-3.1711,-3.1711,-3.1711,-3.1711,-3.1711,-3.1711,-3.1711,-3.1711,-3.1711,-3.1711,-3.1711,-3.1711,-3.1711,-3.1711,-3.1711,-3.1711,-3.1711,-3.1711,-3.1711,-3.1711,-3.1711,0.0,0.0,0.0,0.0,0.3497,0.2793,0.1856,0.1297,0.0425,0.0,0.0,0.0,-0.5741,-0.5705,-0.5974,-0.7026,-0.7088,-0.7279,-0.7864,-0.7896,-0.8554,-1.0099,-1.0763,-1.2137,-1.434,-1.4797,-1.5347,-1.6019,-1.5861,-1.5981,-1.6328,-1.6672,-1.706,-1.7476,-1.7716,-1.809,-1.8476,-1.7742,-1.8931,-2.1309,-2.1911,-2.3207,-2.4863,-2.5625,-2.64,0.0,0.0,0.0,-2.6159,-2.5558,-2.3634,0.0,0.0,-1.7983,-1.7328,-1.674,-1.7127,-1.7635,-1.7141,-1.7381,-1.7822,-1.8184,0.0,0.0,-2.0151,-2.0806,-2.159,-2.3625,-2.4516,-2.5251,-2.64,-2.68,-2.7175,-2.7762,-2.811,-2.847,-2.8921,-2.9192,-2.9299,-2.9299,-2.9553,-2.974,-2.974,-3.0007,-3.0301,-3.0595,-3.0875,-3.1223,-3.1698,-3.1711,-3.1711,-3.1711,-3.1711,-3.1711,-3.1711,-3.1711,-3.1711,-3.1711,-3.1711,-3.1711,-3.1711,-3.1711,-3.1711,-3.1711,-3.1711,-3.1711,-3.1711,-3.1711,-3.1711,-3.1711,-3.1711,-3.1711,-3.1711,-3.1711,-3.1711,-3.1711,0.0,0.0,0.3165,0.1359,-0.0209,-0.137,-0.1849,-0.2687,-0.3358,0.0,-0.5518,-0.7373,-0.8728,-0.8131,-0.795,-0.8756,-0.8648,-0.8498,-0.8355,-0.816,-0.8083,-0.8212,-0.9377,-1.0814,-1.2532,-1.3489,-1.4715,-1.6244,-1.5992,-1.5835,-1.5808,-1.6099,-1.6366,-1.6593,-1.6339,-1.6834,-1.7836,-1.7182,-1.8236,-2.0504,-2.2913,-2.3941,-2.4352,0.0,-2.7308,-2.7041,-2.7562,-2.7575,-2.7309,-2.6653,-2.4596,0.0,0.0,-1.972,-1.8731,-1.7983,-1.821,0.0,-1.8263,-1.8437,0.0,0.0,-1.8784,0.0,-2.0686,-2.0628,-2.065,-2.2558,-2.3572,-2.4252,-2.4743,-2.5355,-2.5931,-2.644,-2.6867,-2.759,-2.8764,-2.8921,-2.8948,-2.8948,-2.9259,-2.9446,-2.9486,-2.9713,-3.0007,-3.0386,-3.0635,-3.1022,-3.1591,-3.1617,-3.1631,-3.1623,-3.1623,-3.1684,-3.1711,-3.1711,-3.1711,-3.1711,-3.1711,-3.1711,-3.1711,-3.1711,-3.1711,-3.1711,-3.1711,-3.1711,-3.1711,-3.1711,-3.1711,-3.1711,-3.1711,-3.1711,-3.1711,-3.1711,-3.1711,-3.1772,0.0,0.3066,0.084,-0.3084,-0.5145,-0.6743,-0.8099,-0.7399,-0.7192,-0.8433,-0.8848,-0.9242,-0.993,-0.9486,-0.9275,-0.9568,-0.9115,-0.8757,-0.8635,-0.8377,-0.8646,-0.9567,-0.9962,-1.125,-1.3568,-1.4109,-1.4875,-1.5888,-1.6099,-1.6059,-1.5808,-1.5861,-1.5928,-1.5968,-1.5915,-1.6275,-1.7034,-1.8022,-1.941,-2.0989,-2.1496,-2.338,-2.5932,-2.6453,-2.7161,-2.7938,-2.8058,-2.8058,-2.7857,-2.6787,-2.5692,-2.4449,0.0,0.0,-2.0962,-1.9185,-1.9412,-2.011,-1.9348,-1.9492,-1.973,-1.9196,0.0,0.0,-1.885,-1.9145,-1.9786,-2.0624,-2.0944,-2.1518,-2.3054,-2.383,-2.4315,-2.4663,-2.5596,-2.6747,-2.8165,-2.8537,-2.8684,-2.8684,-2.8951,-2.9219,-2.9459,-2.9539,-2.9793,-3.036,-3.0635,-3.0849,-3.0955,-3.0969,-3.1076,-3.1303,-3.1316,-3.1423,-3.1711,-3.1711,-3.1711,-3.1711,-3.1711,-3.1711,-3.1711,-3.1711,-3.1711,-3.1711,-3.1711,-3.1711,-3.1711,-3.1711,-3.1711,-3.1711,-3.1711,-3.1711,-3.1711,-3.1711,-3.1711,-3.2022,0.2355,0.0077,-0.2654,-0.6693,-0.9326,-1.1288,-1.2452,-1.197,-1.1887,-1.3125,-1.3452,-1.3459,-1.3236,-1.3078,-1.2563,-1.1432,-1.086,-1.0061,-0.8873,-0.854,-0.8618,-0.9135,-0.912,-1.0515,-1.3545,-1.3495,-1.446,-1.6486,-1.6364,-1.6126,-1.5808,-1.5808,-1.6115,-1.6687,-1.6368,-1.6927,-1.809,-1.8517,-1.9546,-2.1015,-2.2498,-2.4502,-2.6667,-2.7268,-2.7856,-2.8419,-2.8419,-2.8312,-2.7978,-2.6653,-2.5879,0.0,0.0,-2.2907,-2.2552,0.0,-2.0975,-2.1349,-2.0468,-2.0441,-2.0641,-2.0481,0.0,0.0,0.0,-1.9602,-1.9682,-2.0681,-2.0535,-2.0557,-2.1764,-2.2398,-2.284,-2.3247,-2.4302,-2.5422,-2.6266,-2.7281,-2.7989,-2.8136,-2.8417,-2.8711,-2.9018,-2.9179,-2.9513,-3.01,-3.0274,-3.0488,-3.0782,-3.0795,-3.0929,-3.1162,-3.1176,-3.137,-3.1711,-3.1711,-3.1711,-3.1711,-3.1711,-3.1711,-3.1711,-3.1711,-3.1711,-3.1711,-3.1711,-3.1711,-3.1724,-3.1824,-3.1891,-3.1877,-3.173,-3.1711,-3.1738,-3.1837,-3.2722,-3.405,-0.0181,-0.2909,-0.5924,-0.9439,-1.2352,-1.4419,-1.5073,-1.5237,-1.5639,-1.66,-1.7269,-1.7262,-1.6221,-1.657,-1.5998,-1.3799,-1.2986,-1.1852,-1.0156,-0.9189,-0.8795,-0.901,-0.8739,-1.0203,-1.3588,-1.315,-1.4274,-1.7032,-1.6538,-1.6152,-1.5888,-1.5888,-1.6486,-1.7515,-1.7128,-1.7889,-1.9455,-1.9065,-1.995,-2.177,-2.4218,-2.5558,-2.6267,-2.7722,-2.827,-2.8297,-2.8524,-2.8444,-2.8072,-2.6707,-2.6091,-2.5625,-2.4342,-2.4088,0.0,0.0,0.0,0.0,0.0,0.0,0.0,0.0,0.0,-2.1064,0.0,0.0,0.0,-2.098,-2.0615,0.0,0.0,0.0,0.0,-2.1911,0.0,0.0,0.0,-2.5504,0.0,-2.7134,-2.755,-2.7924,-2.831,-2.8564,-2.8991,-2.9655,-2.9539,-2.974,-3.0501,-3.0541,-3.0728,-3.1129,-3.1142,-3.1316,-3.1711,-3.1711,-3.1711,-3.1711,-3.1711,-3.1711,-3.1711,-3.1711,-3.1711,-3.1724,-3.173,-3.1805,-3.1818,-3.2064,-3.2185,-3.2171,-3.1979,-3.1885,-3.1959,-3.2654,-3.3954,-3.554,-0.2125,-0.4449,-0.7381,-1.0727,-1.3106,-1.4649,-1.4983,-1.538,-1.6005,-1.7011,-1.7758,-1.7646,-1.6168,-1.7624,-1.8033,-1.6342,-1.4815,-1.4013,-1.411,-1.1202,-1.0099,-1.1507,-1.1059,-1.2076,-1.4917,-1.4807,-1.5275,-1.6391,-1.6324,-1.6284,-1.6244,-1.6244,-1.6591,-1.7273,-1.7662,-1.8556,-1.9786,-2.0241,-2.2064,-2.4636,-2.5224,-2.477,0.0,-2.6147,-2.6987,-2.712,-2.823,-2.8591,-2.8404,0.0,-2.7135,-2.6814,0.0,-2.5251,-2.5651,0.0,0.0,0.0,0.0,0.0,0.0,0.0,-2.3073,0.0,0.0,0.0,-2.102,-1.9883,0.0,0.0,0.0,0.0,0.0,0.0,0.0,0.0,-2.2245,-2.314,-2.4168,-2.5251,-2.5904,-2.656,-2.7376,-2.7483,-2.7936,-2.9015,-2.8163,-2.8219,-2.9566,-2.9633,-3.0007,-3.0822,-3.0849,-3.1116,-3.1711,-3.1711,-3.1711,-3.1711,-3.1711,-3.1711,-3.1711,-3.1711,-3.1711,-3.1724,-3.1944,-3.2051,-3.2078,-3.242,-3.2541,-3.2541,-3.25,-3.25,-3.2778,-3.5068,-3.4664,-3.3671,-0.3613,-0.5862,-0.8608,-1.1318,-1.3269,-1.4658,-1.5207,-1.7608,-1.9761,-2.0895,-2.219,-2.2757,-2.2103,-2.2326,-2.1961,-2.0486,0.0,-1.8142,0.0,0.0,-1.388,-1.4143,-1.3497,-1.4113,-1.6188,-1.5835,-1.6084,-1.706,-1.6687,-1.6433,-1.6297,-1.6297,-1.6979,-1.821,-1.8943,-2.0224,-2.1857,-2.1957,-2.2693,-2.387,-2.4315,-2.4035,0.0,-2.7081,-2.8364,-2.839,-2.8551,-2.8711,-2.8601,0.0,-2.6867,0.0,0.0,0.0,0.0,0.0,0.0,0.0,0.0,0.0,0.0,0.0,0.0,0.0,-2.1349,0.0,-2.0993,0.0,0.0,0.0,0.0,0.0,0.0,0.0,-2.0575,0.0,0.0,0.0,-2.2485,0.0,0.0,0.0,-2.6146,-2.6253,-2.6667,-2.7641,-2.7295,-2.7509,-2.8687,-2.9249,-2.9726,-3.0261,-3.0608,-3.0996,-3.141,-3.1583,-3.1711,-3.1711,-3.1711,-3.1711,-3.1711,-3.1711,-3.1711,-3.1724,-3.1971,-3.2104,-3.2144,-3.2648,-3.2848,-3.2862,-3.2986,-3.2888,-3.2754,-3.3963,-3.4701,-3.5458,-0.5114,-0.7038,-0.9171,-1.0924,-1.2284,-1.3792,-1.5665,-1.8736,-2.1642,-2.3981,-2.5491,-2.6321,-2.6188,-2.6109,0.0,0.0,-2.3478,-2.2011,0.0,0.0,-1.7313,-1.7311,-1.6202,0.0,0.0,-1.73,-1.7152,-1.7716,-1.7114,-1.6807,-1.6754,-1.6618,-1.7394,-1.8943,-1.9983,-2.1504,-2.3305,-2.3469,-2.3884,-2.4499,-2.478,-2.4957,-2.5373,-2.8003,-2.9245,-2.9539,-2.9032,-2.8978,-2.8925,-2.7388,-2.6961,0.0,-2.6627,0.0,0.0,0.0,0.0,0.0,-2.4649,0.0,0.0,0.0,0.0,0.0,0.0,0.0,0.0,0.0,0.0,0.0,0.0,0.0,0.0,0.0,0.0,-2.0374,0.0,-2.0094,0.0,0.0,0.0,0.0,0.0,-2.489,-2.5251,-2.6373,-2.6172,-2.6587,-2.7991,-2.8767,-2.9366,-2.99,-3.0408,-3.0849,-3.1223,-3.1436,-3.1583,-3.1711,-3.1711,-3.1711,-3.1711,-3.1711,-3.1711,-3.1738,-3.2064,-3.2225,-3.2265,-3.2853,-3.3093,-3.312,-3.3334,-3.316,-3.296,-3.3839,-3.4928,-3.6055,-0.6776,-0.7838,-0.8832,-0.9216,-0.9671,-1.158,-1.6418,-1.7548,-1.965,-2.477,-2.5999,-2.6203,0.0,0.0,0.0,0.0,0.0,-2.4824,-2.4847,0.0,-1.9402,-2.134,-1.9345,-1.9074,0.0,-1.9538,-1.8527,-1.7982,-1.7461,-1.7461,-1.7929,-1.7421,-1.7796,-1.8956,-2.0441,-2.1911,-2.3372,-2.4529,-2.6333,-2.8377,-2.7802,-2.843,-2.9566,0.0,-2.8644,-2.986,-2.9566,0.0,0.0,-2.8446,-2.7938,0.0,0.0,0.0,0.0,0.0,0.0,0.0,0.0,0.0,0.0,-2.3879,0.0,0.0,0.0,0.0,-2.2425,0.0,0.0,0.0,0.0,0.0,0.0,0.0,0.0,0.0,0.0,0.0,0.0,0.0,0.0,0.0,0.0,-2.3335,-2.371,0.0,-2.4502,-2.4997,-2.7575,-2.8058,-2.8767,-2.9873,-3.0221,-3.0648,-3.1176,-3.1189,-3.1383,-3.1711,-3.1711,-3.1711,-3.1711,-3.1711,-3.1711,-3.1751,-3.2326,-3.2581,-3.2621,-3.316,-3.34,-3.34,-3.3414,-3.34,-3.3673,-3.6248,-3.5621,-3.3887,-0.8372,-0.9022,-0.9415,-0.9349,-0.9591,-1.1572,-1.6874,-1.962,-2.2601,0.0,-2.7776,0.0,0.0,-2.9873,-3.0075,0.0,0.0,-2.866,-2.7715,-2.5773,0.0,0.0,0.0,-2.2584,0.0,0.0,-2.0468,-1.9463,-1.8517,-1.8237,-1.8583,-1.7996,-1.837,-1.9573,-2.1229,-2.1958,-2.1983,-2.305,0.0,0.0,0.0,-2.6117,-2.7562,0.0,-2.9486,-2.9873,-2.9593,-2.9606,0.0,-2.8965,-2.8537,-2.827,-2.807,-2.7535,-2.6974,-2.7015,-2.6881,0.0,0.0,0.0,-2.6694,-2.493,0.0,0.0,0.0,0.0,0.0,0.0,0.0,0.0,0.0,0.0,0.0,0.0,0.0,0.0,0.0,0.0,0.0,0.0,0.0,0.0,0.0,0.0,0.0,-2.3981,-2.4062,0.0,-2.6734,-2.7856,-2.8724,-2.9268,-3.0007,-3.0541,-3.0942,-3.1129,-3.137,-3.1711,-3.1711,-3.1711,-3.1711,-3.1711,-3.1818,-3.1971,-3.242,-3.2701,-3.2915,-3.3253,-3.3414,-3.3414,-3.3414,-3.3414,-3.3514,-3.4386,-3.4136,-3.35,-0.944,-0.9744,-0.9812,-0.9652,-1.0714,-1.3374,-1.8592,-2.1729,0.0,0.0,-2.9072,0.0,-3.165,0.0,-3.1383,0.0,-3.177,-3.0955,-2.9593,-2.8871,0.0,-2.7482,-2.6239,0.0,0.0,0.0,-2.2245,-2.0824,-1.9893,-1.9412,-1.9343,-1.8649,-1.8903,-1.9997,-2.0805,-2.1124,-2.1058,-2.1787,-2.1567,0.0,0.0,-2.4618,0.0,0.0,-2.9137,-2.9752,0.0,-2.9025,-2.9726,-2.8429,-2.8395,-2.8911,-2.8911,-2.8243,-2.7495,-2.7682,-2.7443,-2.7028,-2.7108,-2.7268,0.0,-2.577,-2.5141,0.0,-2.2345,0.0,0.0,0.0,0.0,0.0,0.0,0.0,0.0,0.0,0.0,0.0,0.0,-1.8611,0.0,0.0,0.0,0.0,0.0,0.0,-2.171,-2.2878,-2.326,0.0,0.0,-2.7335,-2.8297,-2.8975,-2.97,-3.0287,-3.0795,-3.0982,-3.1276,-3.1711,-3.1711,-3.1711,-3.1724,-3.1784,-3.1931,-3.2118,-3.2581,-3.2848,-3.3,-3.3293,-3.3414,-3.3414,-3.3414,-3.3414,-3.3414,-3.3414,-3.3414,-3.3414,-1.0017,-1.0176,-1.0298,-1.0406,-1.3054,-1.6709,0.0,0.0,-2.5866,0.0,-2.9887,-3.0922,-3.2038,-3.1917,-3.2139,-3.2933,-3.2492,-3.169,-3.0614,-3.0058,0.0,0.0,-2.7729,-2.7064,-2.6745,0.0,0.0,0.0,-2.1443,-2.0797,-2.025,-1.937,-1.941,-2.0159,-1.937,-1.9577,-2.0555,-2.0712,-2.1329,-2.2264,-2.2659,-2.412,-2.6083,-2.631,-2.7875,-2.9626,-2.725,-2.7838,-2.9362,-2.7148,-2.772,-2.9367,-2.9486,-2.9098,-2.8644,-2.8631,-2.8446,-2.8152,-2.7843,-2.7736,-2.7455,-2.6386,-2.6051,0.0,0.0,0.0,-2.4216,0.0,0.0,0.0,0.0,0.0,0.0,0.0,0.0,0.0,0.0,0.0,0.0,0.0,0.0,0.0,0.0,0.0,-2.0521,-2.2231,-2.2138,0.0,0.0,-2.6493,-2.7441,-2.8921,-2.9325,-2.99,-3.0768,-3.0782,-3.1076,-3.1698,-3.1711,-3.1711,-3.1724,-3.1971,-3.2104,-3.2158,-3.2732,-3.2986,-3.3026,-3.3293,-3.3414,-3.3414,-3.3414,-3.3414,-3.3414,-3.3414,-3.3414,-3.3414,-1.0515,-1.2364,-1.4474,-1.61,-1.7729,-1.9804,0.0,0.0,0.0,0.0,-3.0915,-3.1784,-3.2946,-3.3013,-3.3053,-3.328,-3.316,0.0,0.0,0.0,0.0,-2.8185,-2.708,-2.6246,-2.579,-2.5678,0.0,-2.4289,0.0,-2.1149,-2.1221,-2.0307,-1.9983,-2.0159,-1.9447,-1.8778,-1.8133,-1.7731,-1.7384,-1.7429,-2.1471,-2.3467,-2.4398,0.0,-3.0005,-3.0423,-2.9325,-2.8166,-2.7328,-2.8526,-2.8115,-2.7329,-2.8963,-2.9379,-2.9219,-2.8948,-2.8724,-2.8524,-2.8657,-2.8364,-2.7991,-2.7697,-2.68,-2.5784,0.0,0.0,0.0,0.0,0.0,0.0,0.0,0.0,0.0,0.0,0.0,0.0,0.0,0.0,0.0,0.0,0.0,0.0,0.0,-1.9797,-2.0464,-2.1376,-2.1977,0.0,0.0,0.0,-2.7175,-2.8671,-2.9219,-2.9806,-3.0507,-3.0688,-3.0982,-3.1343,-3.1557,-3.1711,-3.1724,-3.1971,-3.2225,-3.25,-3.2875,-3.3106,-3.3307,-3.3374,-3.3414,-3.3414,-3.3414,-3.3414,-3.3414,-3.3414,-3.3414,-3.3414,-1.1158,-1.4491,0.0,-2.0621,0.0,0.0,-2.5494,-2.7035,0.0,-3.0541,-3.1577,0.0,-3.2786,-3.3307,-3.3561,-3.3427,-3.3414,0.0,-3.2625,0.0,0.0,-2.7846,-2.7388,-2.677,-2.5994,-2.6974,0.0,-2.5264,0.0,-2.2084,-2.1381,-2.0722,-2.033,-2.0129,-1.8557,-1.7548,-1.7035,-1.6016,-1.6096,-1.7203,-2.031,-2.2929,0.0,-2.8089,-2.9844,-3.0755,-3.0421,-2.9333,-2.8045,-2.8249,-2.7341,-2.6614,-2.8942,-2.8856,-2.8048,-2.8965,-2.9018,-2.8831,-2.8948,-2.8791,-2.8511,-2.8419,-2.7764,-2.6652,-2.4786,-2.4488,-2.3786,0.0,-2.0665,-2.0654,0.0,0.0,0.0,0.0,0.0,0.0,0.0,0.0,0.0,0.0,0.0,0.0,0.0,0.0,-2.0094,-2.065,-2.1416,0.0,0.0,0.0,-2.6814,-2.8163,-2.8911,-2.9633,-3.04,-3.0648,-3.0942,-3.1176,-3.153,-3.1711,-3.1724,-3.2152,-3.2433,-3.2621,-3.2986,-3.3253,-3.3414,-3.3414,-3.3414,-3.3414,-3.3414,-3.3414,-3.3414,-3.3414,-3.3414,-3.3414,-1.2307,0.0,0.0,0.0,0.0,0.0,0.0,-2.9057,0.0,-3.0431,0.0,-3.2728,-3.2425,-3.332,-3.3828,-3.3547,0.0,-3.2586,-3.1837,-2.9567,-2.7794,-2.6778,-2.7165,-2.6891,-2.5839,-2.7546,0.0,0.0,0.0,-2.2319,-2.0449,-2.0164,-1.9866,-1.9381,-1.6858,-1.5936,0.0,-1.5343,-1.6583,-1.9226,-2.0165,-2.3179,-2.7239,-2.7579,-2.9051,-3.0902,-3.0862,-3.0451,-2.9573,-2.7463,-2.6492,-2.6638,-2.9137,-2.8271,-2.6763,-2.8906,-2.9325,-2.9068,-2.9108,-2.9055,-2.8905,-2.8376,-2.8171,-2.717,-2.3511,-2.2693,-2.2022,-1.9751,-1.8644,-1.8495,0.0,0.0,0.0,0.0,0.0,0.0,0.0,0.0,0.0,0.0,0.0,0.0,0.0,0.0,0.0,0.0,0.0,0.0,0.0,0.0,-2.6319,-2.7602,-2.8468,-2.9392,-3.0279,-3.0608,-3.0915,-3.1169,-3.1517,-3.1711,-3.1738,-3.2326,-3.2594,-3.2621,-3.316,-3.3414,-3.3414,-3.3414,-3.3414,-3.3414,-3.3414,-3.3414,-3.3414,-3.3414,-3.3414,-3.3414,-1.5163,0.0,0.0,0.0,0.0,-2.6669,-2.7884,-2.9687,-3.0457,-2.9211,-3.1932,-3.3988,-3.3935,-3.4122,-3.4229,-3.4162,-3.1843,0.0,0.0,0.0,0.0,-2.2235,-2.2076,-2.1706,-2.121,-2.2298,-2.2329,0.0,0.0,-1.7989,-1.6969,-1.67,-1.6273,-1.5674,-1.4373,0.0,-1.3857,-1.6438,0.0,-1.9642,-2.412,-2.6631,-2.7938,-3.0057,-3.1173,-3.1537,-3.1236,-2.9474,-2.7594,-2.9124,-2.8115,-2.6638,-2.9137,-2.956,-2.9283,-2.9699,-2.9633,-2.9459,-2.97,-2.9362,-2.8548,-2.6753,-2.601,-2.5008,-2.2265,-2.1592,-2.086,-1.8553,-1.7957,-1.7222,-1.5146,0.0,0.0,0.0,0.0,0.0,0.0,0.0,0.0,0.0,0.0,0.0,0.0,0.0,0.0,0.0,0.0,0.0,0.0,0.0,-2.5168,0.0,-2.8217,-2.8991,0.0,0.0,-3.0822,-3.0875,-3.141,-3.1711,-3.1738,-3.2326,-3.2594,-3.2621,-3.316,-3.3414,-3.3414,-3.3414,-3.3414,-3.3414,-3.3414,-3.3414,-3.3414,-3.3414,-3.3414,-3.3414,-1.9039,0.0,0.0,0.0,0.0,0.0,0.0,-2.9364,-3.2702,-3.1125,-3.2613,-3.3788,-3.3641,-3.4175,-3.4482,-3.4336,-3.1604,-2.9894,-2.9894,-2.4513,-2.1295,-2.1194,-2.1041,0.0,-2.0116,-2.1696,-2.1816,-2.0458,0.0,0.0,-1.6247,-1.5946,-1.5487,-1.4867,-1.4123,-1.3577,0.0,0.0,0.0,-2.1704,-2.5792,-2.8413,-2.9959,-3.1236,-3.1711,-3.1698,-3.1503,-3.0408,-2.9145,-3.0082,-2.863,-2.6874,-2.9176,-2.9034,-2.8211,-2.9496,-2.982,-2.974,-2.9873,-2.9713,-2.9176,-2.8029,-2.6564,-2.5088,-2.3632,-2.1343,-1.9234,-1.8042,-1.7807,-1.7276,-1.5524,-1.6134,0.0,0.0,0.0,0.0,0.0,0.0,0.0,0.0,0.0,0.0,0.0,0.0,0.0,0.0,0.0,0.0,-2.2325,0.0,-2.474,0.0,0.0,0.0,-2.9472,0.0,-3.0795,-3.0795,-3.1383,-3.1711,-3.1738,-3.2326,-3.2594,-3.2621,-3.316,-3.3414,-3.3414,-3.3414,-3.3414,-3.3414,-3.3414,-3.3414,-3.3414,-3.3414,-3.3414,-3.3414,0.0,-2.3441,0.0,0.0,-2.5147,-2.5938,-2.1626,-2.8111,-3.3047,-3.1832,-3.291,-3.3492,-3.2637,-3.3381,-3.3628,-3.2707,-2.9979,-2.8311,-2.8311,-2.3469,-2.0583,-2.049,-2.045,-2.0164,-1.9559,-2.1093,-2.1049,0.0,0.0,0.0,-1.5382,-1.5086,-1.4721,0.0,0.0,0.0,0.0,0.0,-2.0815,-2.3614,-2.6981,-2.9706,-3.1711,-3.1711,-3.1711,-3.1711,-3.1711,-3.1517,-3.1236,-3.0715,-2.9238,-2.7873,-2.95,-2.8674,-2.7459,-2.933,-2.9913,-2.9913,-2.9913,-2.9913,-2.9726,-2.8997,-2.7298,-2.5591,-2.4642,-2.1101,-1.7992,-1.7841,-1.7807,-1.7621,-1.7006,-1.7793,0.0,0.0,0.0,0.0,0.0,0.0,0.0,0.0,0.0,0.0,0.0,0.0,0.0,0.0,0.0,0.0,-2.1703,-2.288,-2.4379,0.0,0.0,-2.846,-2.9236,0.0,-3.0795,-3.0795,-3.1383,-3.1711,-3.1738,-3.2326,-3.2594,-3.2621,-3.316,-3.3414,-3.3414,-3.3414,-3.3414,-3.3414,-3.3414,-3.3414,-3.3414,-3.3414,-3.3414,-3.3414,0.0,0.0,0.0,0.0,0.0,-2.1884,-2.1901,-2.534,-2.7804,-2.7427,-3.187,-3.4045,-3.1358,-3.1177,-3.0201,-2.749,-2.4463,-2.2759,-2.2759,-1.9623,-1.7782,-1.7768,-1.7637,-1.7477,-1.7304,-1.7101,-1.6347,0.0,0.0,-1.3378,-1.2066,-1.1896,0.0,0.0,0.0,0.0,0.0,-1.9672,-2.2576,-2.4107,-2.8939,-3.1208,-3.1711,-3.1711,-3.1711,-3.1711,-3.1711,-3.1698,-3.1583,-3.1249,-3.083,-3.0412,-3.0362,-3.0178,-2.9988,-2.9904,-2.9913,-2.9913,-2.9913,-2.9913,-2.9362,-2.7078,-2.6243,-2.5314,-2.2765,-2.0112,-1.8116,-1.7841,-1.7807,-1.7621,-1.7006,-1.7279,-1.6568,0.0,0.0,0.0,0.0,0.0,0.0,0.0,0.0,0.0,0.0,-1.4024,0.0,0.0,-1.8669,0.0,-2.2231,-2.2472,-2.3607,-2.5957,-2.7175,-2.7951,-2.8312,-2.9998,-3.0795,-3.0795,-3.1383,-3.1711,-3.1738,-3.2326,-3.2594,-3.2621,-3.316,-3.3414,-3.3414,-3.3414,-3.3414,-3.3414,-3.3414,-3.3414,-3.3414,-3.3414,-3.3414,-3.3414,0.0,0.0,0.0,0.0,0.0,0.0,0.0,-2.4111,-2.7292,-2.7156,-3.2001,-3.5085,-3.4104,-3.3704,-3.2381,-2.9603,-2.6529,-2.3981,-2.2209,-1.9344,-1.765,-1.7507,-1.7446,-1.7351,-1.7114,-1.6761,-1.6214,0.0,0.0,-1.362,-1.2774,-1.2354,-1.2409,0.0,0.0,-1.4037,-1.491,-1.8937,-2.097,-2.18,-2.5388,-2.7912,-2.9453,-2.9388,-3.0306,-3.1711,-3.1711,-3.1711,-3.1698,-3.153,-3.1303,-3.0996,-3.0715,-3.0621,-3.0595,-3.0474,-3.0314,-3.0181,-3.0181,-3.0047,-2.9644,-2.8674,-2.6147,-2.4282,-2.5825,-2.0928,-1.7189,-2.1128,-2.1954,-2.1464,-1.9792,-1.9409,-1.8094,-1.4224,0.0,0.0,0.0,0.0,0.0,0.0,0.0,0.0,0.0,0.0,0.0,0.0,0.0,0.0,-2.155,-2.2138,-2.326,-2.5104,0.0,-2.7936,-2.846,-2.9993,-3.0875,-3.1062,-3.1476,-3.1757,-3.1944,-3.2407,-3.2781,-3.308,-3.3307,-3.3414,-3.3414,-3.3414,-3.3414,-3.3414,-3.3414,-3.3414,-3.3414,-3.3414,-3.3414,-3.3414,-2.1188,0.0,-2.0396,0.0,-1.9655,-2.0518,-1.8868,-2.2944,-2.6203,-2.6203,-3.1056,-3.4605,-3.4775,-3.3608,-3.1755,-2.9087,-2.5889,-2.3154,-2.1103,-1.9041,-1.7868,-1.7663,-1.7615,0.0,-1.7331,-1.7032,-1.6663,-1.6098,-1.5181,-1.4482,-1.3903,-1.343,-1.3511,0.0,-1.4401,-1.4814,-1.5506,-1.844,-1.9852,-2.0337,-2.2943,-2.5194,-2.6905,-2.6786,-2.8391,-3.0612,-3.0612,-3.1098,-3.1711,-3.1711,-3.153,-3.1303,-3.1009,-3.0915,-3.0902,-3.0822,-3.0648,-3.0533,-3.0533,-3.0274,-2.9867,-2.9119,-2.6243,-2.4197,-2.6431,-2.1179,-1.7105,-2.1713,-2.3212,-2.2955,-2.0616,-2.054,-1.9311,-1.48,0.0,0.0,0.0,0.0,0.0,0.0,0.0,-1.2105,-1.48,0.0,0.0,0.0,0.0,0.0,0.0,-2.2392,0.0,0.0,0.0,0.0,-2.8724,-3.01,-3.0942,-3.1176,-3.153,-3.1824,-3.2118,-3.2554,-3.2995,-3.3414,-3.3414,-3.3414,-3.3414,-3.3414,-3.3414,-3.3414,-3.3414,-3.3414,-3.3414,-3.3414,-3.3414,-3.3414,-2.19,-2.2117,-2.1375,-1.8913,-1.8511,-1.8623,-1.8786,-2.1387,-2.3326,-2.3326,-2.8438,-3.197,-3.1778,-2.9084,-2.6123,-2.3255,-2.0057,-1.8209,-1.8147,-1.8004,-1.7915,0.0,0.0,-1.7595,-1.7595,-1.7344,-1.6965,-1.651,0.0,0.0,-1.4674,-1.4518,-1.4733,-1.5174,-1.5486,-1.5784,-1.6275,-1.9038,-2.0259,-2.0637,-2.3227,-2.4317,-2.4327,-2.4317,-2.5871,-2.8035,-2.8035,-2.9597,-3.1711,-3.1711,-3.1711,-3.1657,-3.1316,-3.1223,-3.1122,-3.0875,-3.0795,-3.0795,-3.0795,-3.0627,-2.9795,-2.7365,-2.6417,-2.5468,-2.2795,-2.0195,-1.8256,-1.7971,-1.9662,-2.0572,-1.8279,-1.9662,-1.9542,-1.4415,0.0,0.0,0.0,0.0,0.0,0.0,-1.1144,-1.1437,-1.3353,0.0,0.0,0.0,0.0,0.0,0.0,0.0,0.0,-2.668,-2.771,0.0,-2.8988,-3.0207,-3.0942,-3.1176,-3.153,-3.1824,-3.2118,-3.2706,-3.3133,-3.3414,-3.3414,-3.3414,-3.3414,-3.3414,-3.3414,-3.3414,-3.3414,-3.3414,-3.3414,-3.3414,-3.3414,-3.3414,-1.9476,-1.9572,-1.9426,-1.8632,-1.862,-1.8708,-1.8762,-1.9625,-2.0983,-2.3039,-2.4906,-2.6875,-2.8898,-2.97,-2.9017,0.0,-2.3065,-2.0289,0.0,-1.8036,-1.8024,-1.7915,-1.7826,-1.7758,-1.7595,-1.75,-1.7331,-1.6978,0.0,0.0,0.0,-1.5452,-1.5615,-1.5954,-1.6056,-1.6205,-1.6432,-1.7328,-1.7749,-1.7939,-1.8681,-2.0105,-2.1765,-2.1691,-2.3238,-2.5716,-2.7604,-2.8797,-2.97,-3.1386,-3.1971,-3.1917,-3.1623,-3.153,-3.1517,-3.1423,-3.1249,-3.1089,-3.1089,-2.9584,-2.7814,-2.6941,-2.3988,-2.1475,-2.1975,-2.1249,-1.9992,-1.8284,-1.9678,-2.0486,-1.8235,-1.8409,-1.7835,-1.4582,-1.3903,0.0,0.0,0.0,0.0,0.0,-1.1904,-1.2853,0.0,-1.6679,0.0,0.0,0.0,0.0,0.0,0.0,0.0,0.0,-2.7762,0.0,-2.9339,-3.0501,-3.1236,-3.153,-3.1824,-3.2225,-3.2706,-3.3093,-3.332,-3.3414,-3.3414,-3.3414,-3.3414,-3.3414,-3.3414,-3.3414,-3.3414,-3.3414,-3.3414,-3.3414,-3.3414,-3.3414,-1.8409,-1.8511,-1.862,-1.862,-1.8694,-1.882,-1.882,-1.882,-1.9502,-2.1387,-2.2588,-2.3997,-2.594,-2.7508,0.0,-2.6128,-2.2971,-2.0237,-1.8298,-1.8179,-1.8091,-1.7936,-1.797,-1.788,-1.7738,-1.7629,0.0,-1.7365,-1.691,-1.6551,-1.6323,-1.6218,-1.632,-1.6564,-1.6564,-1.6612,-1.6693,-1.6693,-1.6748,-1.6829,-1.6734,-1.7717,-1.9223,-1.9174,-2.0705,-2.314,-2.4849,-2.6047,-2.725,-2.9836,-3.0723,-3.0892,-3.1763,-3.1299,-3.043,-3.0274,-2.9405,-2.8437,-2.8437,-2.705,-2.5337,-2.4349,-2.1612,-1.9252,-1.947,-1.9228,-1.857,-1.7015,-1.8426,-1.9285,-1.6912,-1.7203,-1.7028,-1.469,-1.3998,-1.3727,-1.3531,0.0,0.0,0.0,0.0,0.0,0.0,-1.8801,-2.0662,0.0,0.0,0.0,0.0,0.0,-2.5865,-2.6653,-2.8388,-2.9566,-2.9967,-3.0808,-3.137,-3.1724,-3.2078,-3.2519,-3.2986,-3.328,-3.3414,-3.3414,-3.3414,-3.3414,-3.3414,-3.3414,-3.3414,-3.3414,-3.3414,-3.3414,-3.3414,-3.3414,-3.3414,-3.3414,-1.8494,-1.8654,-1.882,-1.882,-1.882,-1.882,-1.882,-1.882,-1.882,-1.882,-2.1264,-2.2982,-2.2982,-2.2982,-2.2982,-2.2982,0.0,0.0,-1.8335,-1.8335,-1.8199,-1.7914,-1.8023,-1.8023,-1.7936,-1.7738,-1.7609,-1.7595,-1.7209,-1.6992,-1.6992,-1.6784,-1.6842,-1.6978,-1.6978,-1.6978,-1.6978,-1.6978,-1.6978,-1.6978,-1.6978,-1.6978,-1.6978,-1.6978,-1.8373,-2.0371,-2.0576,-2.2129,-2.4478,-2.7207,-2.8148,-2.8654,-3.1444,-3.0377,-2.8082,-2.792,-2.5959,-2.39,-2.39,-2.3545,-2.2606,-2.0338,-1.9428,-1.8352,-1.5821,-1.5086,-1.4903,-1.4604,-1.6256,-1.7069,-1.4732,-1.6086,-1.6852,-1.4632,-1.3984,-1.368,-1.3424,0.0,0.0,0.0,0.0,0.0,-1.813,-2.1114,-2.3672,0.0,0.0,0.0,0.0,0.0,-2.66,-2.8577,-2.9486,-3.0234,-3.0822,-3.1116,-3.1423,-3.1791,-3.2353,-3.2781,-3.3013,-3.3293,-3.3414,-3.3414,-3.3414,-3.3414,-3.3414,-3.3414,-3.3414,-3.3414,-3.3414,-3.3414,-3.3414,-3.3414,-3.3414,-3.3414,0.0,0.0,-1.882,-1.882,-1.882,-1.882,-1.882,-1.882,-1.882,-1.882,-1.9444,-1.9842,-1.9842,-1.9842,-1.9842,-1.9842,-1.9184,-1.864,-1.844,-1.8477,-1.8409,-1.8213,-1.8124,-1.8077,-1.8036,-1.7901,-1.7758,-1.7595,-1.7311,-1.7141,-1.7141,-1.6992,-1.6944,-1.6978,-1.6978,-1.6978,-1.6978,-1.6978,-1.6978,-1.6978,-1.6978,-1.6978,-1.6978,-1.6978,-1.737,-1.8105,-2.0214,-2.1363,-2.2271,-2.479,-2.5636,-2.6118,-2.859,-2.7581,-2.5812,-2.7691,-2.6234,-2.4035,-2.4035,-2.2455,-2.0659,-1.9984,-1.8141,-1.6303,-1.5541,-1.5242,-1.5079,-1.4903,-1.5125,-1.516,-1.4558,-1.4811,-1.4912,-1.423,-1.3878,-1.3531,-1.3309,-1.3132,0.0,0.0,-1.6235,-1.8179,-2.1738,-2.3084,-2.4323,0.0,0.0,-2.6867,-2.7282,-2.7469,-2.7949,-2.8868,-2.9793,-3.0541,-3.1116,-3.141,-3.1872,-3.2393,-3.2755,-3.3026,-3.3307,-3.3374,-3.3414,-3.3414,-3.3414,-3.3414,-3.3414,-3.3414,-3.3414,-3.3414,-3.3414,-3.3414,-3.3414,-3.3414,-3.3414,-3.3414,-1.8871,-1.8871,-1.885,-1.8841,-1.882,-1.882,-1.882,-1.882,-1.882,-1.882,-1.882,-1.882,-1.882,-1.882,-1.882,-1.882,-1.882,-1.8694,-1.8488,-1.8599,-1.8552,-1.8335,-1.8301,-1.8267,-1.8199,-1.8036,-1.786,-1.7595,-1.7426,-1.7365,-1.7297,-1.7148,-1.708,-1.7073,-1.7012,-1.6978,-1.6978,-1.6978,-1.6978,-1.6978,-1.6978,-1.6978,-1.6978,-1.6978,-1.6978,-1.7188,-1.8686,-1.9253,-1.9595,-2.2204,-2.3091,-2.3779,-2.7616,-2.6968,-2.5356,-2.8034,-2.6716,-2.4167,-2.2874,-2.1397,-1.9941,-1.8548,-1.7024,-1.5798,-1.5649,-1.5499,-1.533,-1.5113,-1.4936,-1.4753,-1.455,-1.4448,-1.4326,-1.4153,-1.3939,-1.3722,-1.3424,-1.3383,-1.4201,-1.6446,-1.8045,-2.0275,-2.3599,-2.5345,-2.6536,-2.7133,-2.7562,0.0,-2.8299,-2.8874,-2.9289,-2.9388,-3.0301,-3.0902,-3.1223,-3.165,-3.2206,-3.2795,-3.2955,-3.3133,-3.3414,-3.3414,-3.3414,-3.3414,-3.3414,-3.3414,-3.3414,-3.3414,-3.3414,-3.3414,-3.3414,-3.3414,-3.3414,-3.3414,-3.3414,-3.3414,-1.8993,-1.8993,-1.8952,-1.8875,-1.8854,-1.8854,-1.8854,-1.8854,-1.8841,-1.882,-1.882,-1.882,-1.882,-1.882,-1.882,-1.882,-1.882,-1.8708,-1.8565,-1.8694,-1.8654,-1.8389,-1.8477,-1.8477,-1.8355,-1.8179,-1.7948,-1.7629,-1.7609,-1.7527,-1.7453,-1.7297,-1.7216,-1.7188,-1.7066,-1.6998,-1.6978,-1.6978,-1.6978,-1.6978,-1.6978,-1.6978,-1.6978,-1.6978,-1.6978,-1.6978,-1.6978,-1.6978,-1.7339,-1.9662,-2.0748,-2.1976,-2.7057,-2.7363,-2.6342,-2.9116,-2.8086,-2.5379,-2.2136,-2.1252,-2.0544,-1.7668,-1.687,-1.6616,-1.6068,-1.5778,-1.5594,-1.5309,-1.5215,-1.5065,-1.4685,-1.4557,-1.4407,-1.4089,-1.4034,-1.3926,-1.3607,0.0,-1.4667,-1.7379,-1.9838,-2.2289,-2.4945,-2.7491,-2.8908,-2.8751,-2.9205,-2.938,-2.906,-2.9572,-2.9599,-2.8976,-3.0472,-3.133,-3.1423,-3.1957,-3.2478,-3.2973,-3.3026,-3.3173,-3.3414,-3.3414,-3.3414,-3.3414,-3.3414,-3.3414,-3.3414,-3.3414,-3.3414,-3.3414,-3.3414,-3.3414,-3.3414,-3.3414,-3.3414,-3.3414,-1.9006,-1.8993,-1.8993,-1.8959,-1.8959,-1.8959,-1.8959,-1.8959,-1.8905,-1.8841,-1.882,-1.882,-1.882,-1.882,-1.882,-1.882,-1.882,-1.88,-1.8786,-1.88,-1.88,-1.8694,-1.8586,-1.8511,-1.8498,-1.8233,-1.8002,-1.7826,-1.7704,-1.7575,-1.7554,-1.7406,-1.7317,-1.7188,-1.7168,-1.7093,-1.6978,-1.6978,-1.6978,-1.6978,-1.6978,-1.6978,-1.6978,-1.6978,-1.6978,-1.6978,-1.6978,-1.6978,-1.7083,-1.7496,-1.9201,-2.1674,-2.4855,-2.7159,-2.9217,-3.1982,-3.242,-3.0914,-2.573,-2.4226,-2.3477,-2.0645,-1.9816,-1.9096,-1.6616,-1.5976,-1.5771,-1.5601,-1.5364,-1.516,-1.5092,-1.4767,-1.4373,-1.3903,-1.3835,-1.3729,-1.3302,0.0,-1.5453,-2.0004,-2.1181,-2.337,-2.787,-2.8734,-2.9081,-2.9339,-2.9432,-2.8782,-2.7071,-2.7279,-2.6594,-2.4726,-2.9202,-3.1885,-3.238,-3.2728,-3.2893,-3.2986,-3.3227,-3.3374,-3.3414,-3.3414,-3.3414,-3.3414,-3.3414,-3.3414,-3.3414,-3.3414,-3.3414,-3.3414,-3.3414,-3.3414,-3.3414,-3.3414,-3.3414,-3.3414,-1.9237,-1.9203,-1.9169,-1.9115,-1.9149,-1.9169,-1.9115,-1.9094,-1.9081,-1.9006,-1.8993,-1.8972,-1.8943,-1.8884,-1.8909,-1.882,-1.882,-1.882,-1.882,-1.882,-1.882,-1.882,-1.8694,-1.862,-1.8474,-1.8389,-1.8213,-1.7989,-1.7914,-1.8605,-2.0084,-1.9915,-2.0588,-2.1826,-2.0218,-1.9407,-1.9096,-1.7653,-1.6978,-1.6978,-1.6978,-1.6978,-1.6978,-1.6978,-1.6978,-1.6978,-1.6978,-1.6978,-1.6978,-1.6978,-1.8843,-2.157,-2.4341,-2.7108,-2.9825,-3.2598,-3.2334,-3.0622,-2.8043,-2.62,-2.4314,-2.1469,-2.0731,-1.9913,-1.7004,-1.6205,-1.6056,-1.5906,-1.5696,-1.5541,-1.5337,-1.5072,-1.478,-1.4496,-1.4312,0.0,-1.4034,-1.4122,-1.555,-1.9239,-2.1219,-2.3128,-2.5331,-2.6942,-2.7348,-2.6086,-2.6006,-2.5705,-2.5021,-2.5092,-2.4842,-2.4066,-2.7875,-3.0848,-3.2822,-3.2955,-3.3053,-3.3213,-3.3347,-3.3414,-3.3414,-3.3414,-3.3414,-3.3414,-3.3414,-3.3414,-3.3414,-3.3414,-3.3414,-3.3414,-3.3414,-3.3414,-3.3414,-3.3414,-3.3414,-3.3414,-1.9434,-1.9393,-1.9345,-1.9271,-1.9325,-1.9345,-1.9271,-1.9257,-1.9237,-1.9203,-1.9203,-1.9169,-1.9047,-1.9006,-1.8938,-1.883,-1.8841,-1.882,-1.882,-1.882,-1.882,-1.882,-1.882,-1.8694,-1.8474,-1.8474,-1.8409,-1.8145,-1.8111,-1.9192,-2.1235,-2.1812,-2.3045,-2.4798,-2.3233,-2.2353,-2.1872,-1.9096,-1.7961,-1.7908,-1.7241,-1.6978,-1.6978,-1.6978,-1.6978,-1.6978,-1.6978,-1.6978,-1.6978,-1.6978,-1.8843,-2.1466,-2.3568,-2.6137,-2.8901,-3.1617,-3.1416,-3.0242,-3.0242,-2.8698,-2.6289,-2.2756,-2.1865,-2.0935,-1.7361,-1.6463,-1.6327,-1.6205,-1.6112,-1.5879,-1.5615,-1.5411,-1.5208,-1.4957,0.0,-1.4638,-1.4633,-1.4645,-1.5584,-1.8271,-2.0548,-2.2116,-2.266,-2.4707,-2.5144,-2.3166,-2.3124,-2.3047,-2.2799,-2.2857,-2.3128,-2.3495,-2.6755,-2.9996,-3.308,-3.308,-3.3187,-3.3414,-3.3414,-3.3414,-3.3414,-3.3414,-3.3414,-3.3414,-3.3414,-3.3414,-3.3414,-3.3414,-3.3414,-3.3414,-3.3414,-3.3414,-3.3414,-3.3414,-3.3414,-3.3414,-1.9468,-1.9374,-1.9374,-1.9413,-1.9413,-1.9374,-1.9413,-1.9413,-1.9359,-1.9217,-1.9203,-1.9203,-1.9183,-1.9061,-1.8993,-1.8972,-1.885,-1.882,-1.882,-1.882,-1.882,-1.882,-1.882,-1.8694,-1.8474,-1.8474,-1.8407,-1.8301,-1.8158,-1.8189,-1.8461,-2.1024,-2.2053,-2.191,-2.4428,-2.5338,-2.4701,-2.1976,-2.08,-2.0592,-1.8013,-1.6978,-1.6978,-1.6978,-1.6978,-1.6978,-1.6978,-1.6978,-1.6978,-1.6978,-1.8843,-2.1155,-2.1362,-2.3311,-2.6035,-2.8811,-3.1265,-3.31,-3.31,-3.2949,-3.1504,-2.6219,-2.4778,-2.3298,-1.7909,-1.656,-1.6503,-1.649,-1.6374,-1.6225,-1.6062,-1.5798,-1.537,-1.4802,0.0,0.0,-1.4563,-1.4767,-1.596,-1.8745,-1.9266,-2.0324,-2.2748,-2.3155,-2.3213,-2.3024,-2.3415,-2.2585,-2.0233,-2.0466,-2.0798,-2.1148,-2.6153,-3.0328,-3.3324,-3.3374,-3.3387,-3.3414,-3.3414,-3.3414,-3.3414,-3.3414,-3.3414,-3.3414,-3.3414,-3.3414,-3.3414,-3.3414,-3.3414,-3.3414,-3.3414,-3.3414,-3.3414,-3.3414,-3.3414,-3.3414,-1.959,-1.9576,-1.9576,-1.9576,-1.9576,-1.9576,-1.9576,-1.9576,-1.9556,-1.9501,-1.9488,-1.9447,-1.9359,-1.9291,-1.9217,-1.9128,-1.8993,-1.8905,-1.8905,-1.8875,-1.882,-1.882,-1.882,-1.8786,-1.8674,-1.8674,-1.8599,-1.8443,-1.8301,-1.9071,-2.0827,-2.3591,-2.5669,-2.707,-2.8296,-2.8592,-2.8124,-2.5358,-2.3096,-2.128,-2.03,-1.876,-1.6998,-1.7182,-1.7141,-1.6992,-1.708,-1.7053,-1.6978,-1.6978,-1.8843,-2.1103,-2.1103,-2.3001,-2.542,-2.6444,-2.7516,-2.8331,-2.8331,-3.0798,-3.207,-2.6598,-2.5144,-2.3702,-1.8128,-1.6775,-1.6615,-1.6615,-1.6544,-1.6422,-1.6368,-1.6191,-1.5981,-1.575,0.0,-1.5377,-1.535,-1.5289,-1.573,-1.698,-1.8544,-1.9332,-1.8744,-2.0268,-2.0582,-1.8978,-1.9104,-1.8842,-1.7945,-1.8115,-1.9135,-2.0993,-2.2984,-2.543,-2.828,-2.8331,-2.8331,-2.8331,-3.0028,-3.0849,-3.0911,-3.2648,-3.3414,-3.3414,-3.3414,-3.3414,-3.3414,-3.3414,-3.3414,-3.3414,-3.3414,-3.3414,-3.3414,-3.3414,-3.3414,-3.344,-1.9725,-1.9725,-1.9725,-1.9725,-1.9725,-1.9725,-1.9725,-1.9725,-1.9725,-1.9725,-1.9725,-1.9624,-1.9522,-1.9413,-1.9325,-1.9217,-1.9027,-1.8918,-1.8918,-1.8875,-1.882,-1.882,-1.882,-1.882,-1.882,-1.882,-1.8708,-1.8599,-1.8409,-1.9262,-2.1176,-2.3901,-2.6515,-2.9074,-3.0089,-3.0905,-3.1301,-2.8558,-2.5623,-2.2828,-2.2009,-1.9865,-1.7141,-1.7344,-1.7297,-1.7134,-1.7229,-1.7202,-1.7121,-1.7121,-1.8368,-1.9925,-1.9925,-2.1847,-2.4017,-2.4017,-2.464,-2.5313,-2.5313,-2.8041,-2.9757,-2.5071,-2.3929,-2.27,-1.8065,-1.6897,-1.677,-1.677,-1.6741,-1.6653,-1.6554,-1.6517,-1.6415,-1.6327,-1.6049,-1.5886,-1.603,-1.5825,-1.5784,-1.6085,-1.7677,-1.8118,-1.6405,-1.7946,-1.8316,-1.6476,-1.651,-1.6608,-1.6815,-1.6924,-1.7863,-1.9767,-1.9819,-2.0748,-2.2597,-2.4341,-2.5215,-2.5215,-2.7108,-2.8444,-2.9369,-3.1265,-3.2585,-3.3414,-3.3521,-3.3507,-3.3427,-3.3614,-3.3641,-3.3574,-3.3668,-3.3694,-3.3694,-3.3694,-3.3694,-3.3734,-1.9725,-1.9725,-1.9725,-1.9725,-1.9725,-1.9725,-1.9725,-1.9725,-1.9725,-1.9725,-1.9725,-1.9725,-1.9725,-1.9393,-1.9203,-1.9203,-1.8938,-1.882,-1.882,-1.882,-1.882,-1.882,-1.882,-1.882,-1.882,-1.882,-1.882,-1.882,-1.8464,-1.8321,-1.8364,-2.0977,-2.3566,-2.6195,-2.9127,-3.1859,-3.4116,-3.1417,-2.8558,-2.5651,-2.2858,-2.0014,-1.7419,-1.7419,-1.7419,-1.7419,-1.7419,-1.7419,-1.7419,-1.7419,-1.7419,-1.7419,-1.7419,-1.9272,-2.1493,-2.1493,-2.3388,-2.5546,-2.5546,-2.5438,-2.4647,-2.1821,-2.1103,-2.0384,-1.7653,-1.6978,-1.6978,-1.6978,-1.6978,-1.6937,-1.673,-1.6702,-1.6601,-1.6361,-1.6313,-1.6313,-1.6313,-1.6313,-1.6368,-1.6503,-1.6524,-1.6524,-1.6524,-1.6524,-1.6524,-1.6524,-1.6615,-1.677,-1.6971,-1.6978,-1.6978,-1.6978,-1.6978,-1.6978,-1.6978,-2.239,-2.5163,-2.5163,-2.5163,-2.6598,-2.9268,-2.928,-3.081,-3.344,-3.3748,-3.3708,-3.3467,-3.4068,-3.4148,-3.3921,-3.4202,-3.4322,-3.4322,-3.4322,-3.4322,-3.4322,-1.9725,-1.9725,-1.9725,-1.9725,-1.9725,-1.9725,-1.9725,-1.9725,-1.9725,-1.9725,-1.9725,-1.9725,-1.9725,-1.9637,-1.9481,-1.9379,-1.9183,-1.8993,-1.8841,-1.882,-1.9726,-2.1848,-2.1963,-2.0983,-1.882,-2.0868,-2.0925,-1.882,-1.8565,-1.8366,-1.8378,-2.108,-2.2687,-2.3584,-2.852,-3.1171,-3.2009,-3.3205,-3.0781,-2.6104,-2.5356,-2.1988,-1.7446,-1.765,-1.7602,-1.7433,-1.7487,-1.746,-1.7419,-1.7419,-1.7419,-1.7419,-1.7419,-1.7951,-1.8642,-1.8642,-1.9225,-1.9853,-1.9853,-1.9814,-2.0003,-2.1024,-2.1144,-2.0384,-1.7653,-1.6978,-1.6978,-1.6978,-1.6978,-1.6965,-1.6917,-1.691,-1.6849,-1.6601,-1.6567,-1.6527,-1.6476,-1.6456,-1.6476,-1.6517,-1.6524,-1.6524,-1.6524,-1.6567,-1.6628,-1.6628,-1.6822,-1.6931,-1.6978,-1.6978,-1.6978,-1.6978,-1.6978,-1.6978,-1.6978,-1.8634,-1.9462,-1.9462,-2.1491,-2.3932,-2.6791,-2.8826,-3.1314,-3.4055,-3.4148,-3.4015,-3.3774,-3.4162,-3.4148,-3.3921,-3.4202,-3.4322,-3.4322,-3.4322,-3.4322,-3.4349,-1.9725,-1.9725,-1.9725,-1.9725,-1.9725,-1.9725,-1.9725,-1.9725,-1.9725,-1.9725,-1.9725,-1.9725,-1.9725,-1.9556,-1.9447,-1.9345,-1.9149,-1.8972,-1.8871,-1.8854,-1.9625,-2.1444,-2.2645,-2.2465,-2.0644,-2.2342,-2.184,-1.882,-1.8599,-1.844,-1.8389,-1.996,-2.1262,-2.2422,-2.592,-2.8736,-3.0952,-3.1497,-2.9675,-2.6283,-2.5237,-2.1912,-1.7616,-1.7847,-1.7758,-1.7609,-1.7704,-1.767,-1.7595,-1.7595,-1.7595,-1.7595,-1.7595,-1.7595,-1.7595,-1.7595,-1.7595,-1.7595,-1.7595,-1.7555,-1.7858,-1.9455,-1.9674,-1.912,-1.7405,-1.6978,-1.6978,-1.6978,-1.6978,-1.6978,-1.6978,-1.6978,-1.6951,-1.6856,-1.6842,-1.6809,-1.6714,-1.67,-1.67,-1.67,-1.67,-1.67,-1.67,-1.6788,-1.6842,-1.6842,-1.6931,-1.6978,-1.6978,-1.6978,-1.6978,-1.6978,-1.7032,-1.7066,-1.7066,-1.7127,-1.7127,-1.7119,-1.8887,-2.1219,-2.4108,-2.7007,-2.9914,-3.2672,-3.3964,-3.4336,-3.4095,-3.4496,-3.4496,-3.4269,-3.4549,-3.467,-3.467,-3.467,-3.467,-3.4696,-1.9725,-1.9725,-1.9725,-1.9725,-1.9725,-1.9725,-1.9725,-1.9725,-1.9725,-1.9725,-1.9725,-1.9725,-1.9725,-1.9413,-1.9237,-1.9217,-1.8959,-1.8909,-1.8993,-1.8929,-1.8957,-1.9161,-2.1864,-2.3286,-2.3318,-2.3318,-2.184,-1.882,-1.862,-1.8494,-1.8474,-1.8247,-1.9536,-2.2038,-2.213,-2.5132,-2.9979,-2.7553,-2.6367,-2.588,-2.3239,-2.0466,-1.7915,-1.7936,-1.7936,-1.7915,-1.7956,-1.7956,-1.7936,-1.7956,-1.7956,-1.7956,-1.7936,-1.7956,-1.7956,-1.7915,-1.7936,-1.7936,-1.7915,-1.7772,-1.7609,-1.7595,-1.7439,-1.7195,-1.7032,-1.6998,-1.6998,-1.6985,-1.6978,-1.6978,-1.6978,-1.6978,-1.6978,-1.6978,-1.6978,-1.6978,-1.6978,-1.6978,-1.6978,-1.6978,-1.6978,-1.6978,-1.6978,-1.6978,-1.6978,-1.6978,-1.6978,-1.6978,-1.6978,-1.6992,-1.6998,-1.6998,-1.7141,-1.7216,-1.7216,-1.7365,-1.7365,-1.7216,-1.7365,-1.8872,-2.1624,-2.4326,-2.7239,-3.0257,-3.3185,-3.4422,-3.4402,-3.4963,-3.503,-3.4842,-3.5084,-3.5191,-3.5191,-3.5191,-3.5191,-3.5191,-1.9725,-1.9725,-1.9725,-1.9725,-1.9725,-1.9725,-1.9725,-1.9725,-1.9725,-1.9725,-1.9725,-1.9725,-1.9725,-1.9671,-1.9522,-1.9393,-1.9217,-1.9081,-1.8993,-1.9061,-2.0049,-2.2243,-2.3057,-2.3396,-2.3318,-2.3318,-2.184,-1.882,-1.8786,-1.8654,-1.8474,-1.8355,-1.8544,-1.9131,-2.1252,-2.2911,-2.4209,-2.5826,-2.5176,-2.3075,-2.2475,-2.0466,-1.7936,-1.8002,-1.7968,-1.7956,-1.8124,-1.8145,-1.8057,-1.8179,-1.8213,-1.8199,-1.8077,-1.8124,-1.8179,-1.7935,-1.7948,-1.8023,-1.7956,-1.7846,-1.7792,-1.7629,-1.7548,-1.7426,-1.7209,-1.7148,-1.7114,-1.7005,-1.6978,-1.6978,-1.6978,-1.6978,-1.6978,-1.6978,-1.6978,-1.6978,-1.6978,-1.6978,-1.6978,-1.6978,-1.6978,-1.6978,-1.6978,-1.6978,-1.6978,-1.6978,-1.6978,-1.6978,-1.6978,-1.7087,-1.7148,-1.7148,-1.729,-1.7372,-1.7372,-1.7467,-1.7467,-1.7372,-1.7473,-1.9095,-2.1926,-2.2665,-2.5796,-3.0734,-3.1443,-3.2877,-3.4696,-3.5057,-3.503,-3.4842,-3.5084,-3.5191,-3.5191,-3.5191,-3.5191,-3.5191,-1.9725,-1.9725,-1.9725,-1.9725,-1.9725,-1.9725,-1.9725,-1.9725,-1.9725,-1.9725,-1.9725,-1.9725,-1.9725,-1.959,-1.9522,-1.9434,-1.9291,-1.9203,-1.9203,-1.9128,-1.9777,-2.1163,-2.1228,-2.124,-2.1164,-2.1164,-2.0363,-1.882,-1.882,-1.8728,-1.864,-1.8498,-1.8335,-1.8255,-1.9637,-2.0985,-2.221,-2.2366,-2.2303,-2.2063,-2.078,-1.9349,-1.7989,-1.8145,-1.8145,-1.8111,-1.8267,-1.8267,-1.8213,-1.8287,-1.8321,-1.8301,-1.8233,-1.8247,-1.8287,-1.8124,-1.8091,-1.8077,-1.7989,-1.797,-1.7846,-1.7772,-1.7758,-1.767,-1.7372,-1.7304,-1.7283,-1.7209,-1.7188,-1.7188,-1.7188,-1.7188,-1.7188,-1.7188,-1.7127,-1.708,-1.708,-1.7026,-1.6978,-1.6978,-1.6978,-1.6978,-1.6978,-1.6978,-1.6978,-1.6978,-1.6978,-1.7012,-1.708,-1.7154,-1.7222,-1.7297,-1.7453,-1.7473,-1.7473,-1.7684,-1.7704,-1.7636,-1.7717,-1.8567,-2.0116,-2.153,-2.4589,-2.8897,-3.03,-3.2446,-3.4977,-3.5137,-3.511,-3.4977,-3.5137,-3.5191,-3.5191,-3.5191,-3.5191,-3.5191,-1.9725,-1.9725,-1.9725,-1.9725,-1.9725,-1.9725,-1.9725,-1.9725,-1.9725,-1.9725,-1.9725,-1.9725,-1.9725,-2.0019,-2.0469,-2.1009,-2.0481,-2.0154,-2.0186,-1.9527,-1.9081,-1.9027,-1.8905,-1.883,-1.8854,-1.9342,-1.956,-1.956,-1.9045,-1.9045,-1.956,-1.8823,-1.8464,-1.8355,-1.8199,-1.9388,-2.1386,-1.898,-1.9368,-2.1331,-1.9075,-1.8124,-1.8145,-1.8301,-1.8335,-1.8321,-1.8375,-1.8389,-1.8389,-1.8389,-1.8389,-1.8389,-1.8375,-1.8375,-1.8389,-1.8335,-1.8247,-1.8158,-1.8145,-1.8036,-1.799,-1.799,-1.799,-1.786,-1.7595,-1.7494,-1.7453,-1.7426,-1.7419,-1.7419,-1.7419,-1.7419,-1.7419,-1.7419,-1.7311,-1.7229,-1.7229,-1.7127,-1.706,-1.706,-1.7032,-1.7019,-1.7019,-1.6992,-1.6992,-1.7012,-1.7019,-1.708,-1.7222,-1.7256,-1.7331,-1.7453,-1.7609,-1.7629,-1.7629,-1.7826,-1.7956,-1.7956,-1.7935,-1.7914,-1.7977,-2.0395,-2.3337,-2.6742,-2.9124,-3.2103,-3.5271,-3.5217,-3.5191,-3.5191,-3.5191,-3.5191,-3.5191,-3.5191,-3.5191,-3.5191,-1.9725,-1.9725,-1.9725,-1.9725,-1.9725,-1.9725,-1.9725,-1.9725,-1.9725,-1.9725,-1.9725,-1.9725,-1.9725,-2.2084,-2.4863,-2.7642,-2.5325,-2.3649,-2.356,-2.1068,-1.9507,-1.9183,-1.9149,-1.9081,-1.8959,-2.1406,-2.2703,-2.2703,-2.0081,-2.0124,-2.2645,-1.9799,-1.8511,-1.8498,-1.8355,-1.85,-1.8811,-1.8423,-1.8479,-1.8811,-1.8443,-1.8287,-1.8301,-1.8443,-1.8423,-1.8355,-1.8606,-1.8708,-1.8708,-1.8708,-1.8708,-1.8674,-1.8552,-1.8599,-1.8654,-1.8389,-1.8389,-1.8443,-1.8321,-1.8267,-1.8247,-1.8247,-1.8247,-1.8213,-1.8036,-1.7751,-1.7527,-1.7392,-1.7419,-1.7419,-1.7419,-1.7419,-1.7419,-1.7419,-1.7405,-1.7392,-1.7392,-1.7372,-1.7358,-1.7358,-1.7243,-1.7161,-1.7161,-1.7053,-1.7032,-1.7154,-1.7161,-1.7229,-1.7385,-1.746,-1.7541,-1.7561,-1.7758,-1.7881,-1.7881,-1.7989,-1.8057,-1.8057,-1.8199,-1.8124,-1.7922,-1.8441,-2.169,-2.6965,-2.7259,-3.0484,-3.5551,-3.5297,-3.5191,-3.5191,-3.5191,-3.5191,-3.5191,-3.5191,-3.5191,-3.5191,-1.9725,-1.9725,-1.9725,-1.9725,-1.9725,-1.9725,-1.9725,-1.9725,-1.9725,-1.9725,-2.1222,-2.2357,-2.2357,-2.5146,-2.7631,-2.9059,-2.7888,-2.7066,-2.7022,-2.3983,-2.2133,-2.197,-2.1929,-2.1746,-2.1526,-2.4544,-2.6834,-2.8363,-2.5351,-2.3662,-2.3261,-2.1826,-2.0193,-1.8474,-1.8464,-1.8389,-1.8321,-1.8321,-1.8321,-1.8321,-1.8409,-1.8386,-1.8407,-1.8599,-1.862,-1.8586,-1.8766,-1.882,-1.882,-1.882,-1.882,-1.88,-1.8674,-1.8708,-1.8742,-1.8606,-1.8552,-1.8511,-1.8407,-1.8375,-1.8321,-1.8321,-1.8321,-1.8301,-1.8233,-1.8124,-1.7948,-1.7717,-1.767,-1.767,-1.767,-1.767,-1.767,-1.767,-1.7602,-1.7494,-1.7494,-1.7473,-1.7419,-1.7419,-1.7358,-1.7317,-1.7317,-1.7263,-1.7249,-1.7317,-1.7317,-1.7385,-1.7487,-1.7554,-1.7629,-1.7772,-1.7914,-1.7989,-1.7989,-1.8145,-1.8213,-1.8213,-1.8287,-1.8247,-1.8167,-1.9945,-2.3078,-2.721,-2.8823,-3.1958,-3.5872,-3.5738,-3.5685,-3.5672,-3.5511,-3.5338,-3.5217,-3.5378,-3.5431,-3.5458]},{"header":{"parameterUnit":"m.s-1","parameterCategory":1,"la1":30.6,"la2":28.766,"lo1":-90.7593,"lo2":-88.6598,"dy":0.0162,"dx":0.0183,"nx":116,"ny":114,"refTime":"2024-06-17T06:00:00:Z","depth":0,"parameterNumber":3,"parameterNumberName":"V-component_of_WINDS"},"data":[0.0,0.0,0.0,0.0,0.0,0.0,0.0,0.0,0.0,0.0,0.0,0.0,0.0,0.0,0.0,0.0,0.0,0.0,0.0,0.0,0.0,0.0,0.0,0.0,0.0,0.0,0.0,0.0,0.0,0.0,0.0,0.0,0.0,0.0,0.0,0.0,0.0,0.0,0.0,0.0,0.0,0.0,0.0,0.0,0.0,0.0,0.0,0.0,0.0,0.0,0.0,0.0,0.0,0.0,0.0,0.0,0.0,0.0,0.0,0.0,0.0,0.0,0.0,0.0,0.0,0.0,0.0,0.0,0.0,0.0,0.0,0.0,0.0,0.0,0.0,0.0,0.0,0.0,0.0,0.0,0.0,0.0,0.0,0.0,0.0,0.0,0.0,0.0,0.0,0.0,0.0,0.0,0.0,0.0,0.0,0.0,0.0,0.0,0.0,0.0,0.0,0.0,0.0,0.0,0.0,0.0,0.0,0.0,0.0,0.0,0.0,0.0,0.0,0.0,0.0,0.0,0.0,0.0,0.0,0.0,0.0,0.0,0.0,0.0,0.0,0.0,0.0,0.0,0.0,0.0,0.0,0.0,0.0,0.0,0.0,0.0,0.0,0.0,0.0,0.0,0.0,0.0,0.0,0.0,0.0,0.0,0.0,0.0,0.0,0.0,0.0,0.0,0.0,0.0,0.0,0.0,0.0,0.0,0.0,0.0,0.0,0.0,0.0,0.0,0.0,0.0,0.0,0.0,0.0,0.0,0.0,0.0,0.0,0.0,0.0,0.0,0.0,0.0,0.0,0.0,0.0,0.0,0.0,0.0,0.0,0.0,0.0,0.0,0.0,0.0,0.0,0.0,0.0,0.0,0.0,0.0,0.0,0.0,0.0,0.0,0.0,0.0,0.0,0.0,0.0,0.0,0.0,0.0,0.0,0.0,0.0,0.0,0.0,0.0,0.0,0.0,0.0,0.0,0.0,0.0,0.0,0.0,0.0,0.0,0.0,0.0,0.0,0.0,0.0,0.0,0.0,0.0,0.0,0.0,0.0,0.0,0.0,0.0,0.0,0.0,0.0,0.0,0.0,0.0,0.0,0.0,0.0,0.0,0.0,0.0,0.0,0.0,0.0,0.0,0.0,0.0,0.0,0.0,0.0,0.0,0.0,0.0,0.0,0.0,0.0,0.0,0.0,0.0,0.0,0.0,0.0,0.0,0.0,0.0,0.0,0.0,0.0,0.0,0.0,0.0,0.0,0.0,0.0,0.0,0.0,0.0,0.0,0.0,0.0,0.0,0.0,0.0,0.0,0.0,0.0,0.0,0.0,0.0,0.0,0.0,0.0,0.0,0.0,0.0,0.0,0.0,0.0,0.0,0.0,0.0,0.0,0.0,0.0,0.0,0.0,0.0,0.0,0.0,0.0,0.0,0.0,0.0,0.0,0.0,0.0,0.0,0.0,0.0,0.0,0.0,0.0,0.0,0.0,0.0,0.0,0.0,0.0,0.0,0.0,0.0,0.0,0.0,0.0,0.0,0.0,0.0,0.0,0.0,0.0,0.0,0.0,0.0,0.0,0.0,0.0,0.0,0.0,0.0,0.0,0.0,0.0,0.0,0.0,0.0,0.0,0.0,0.0,0.0,0.0,0.0,0.0,0.0,0.0,0.0,0.0,0.0,0.0,0.0,0.0,0.0,0.0,0.0,0.0,0.0,0.0,0.0,0.0,0.0,0.0,0.0,0.0,0.0,0.0,0.0,0.0,0.0,0.0,0.0,0.0,0.0,0.0,0.0,0.0,0.0,0.0,0.0,0.0,0.0,0.0,0.0,0.0,0.0,0.0,0.0,0.0,0.0,0.0,0.0,0.0,0.0,0.0,0.0,0.0,0.0,0.0,0.0,0.0,0.0,0.0,0.0,0.0,0.0,0.0,0.0,0.0,0.0,0.0,0.0,0.0,0.0,0.0,0.0,0.0,0.0,0.0,0.0,0.0,0.0,0.0,0.0,0.0,0.0,0.0,0.0,0.0,0.0,0.0,0.0,0.0,0.0,0.0,0.0,0.0,0.0,0.0,0.0,0.0,0.0,0.0,0.0,0.0,0.0,0.0,0.0,0.0,0.0,0.0,0.0,0.0,0.0,0.0,0.0,0.0,0.0,0.0,0.0,0.0,0.0,0.0,0.0,0.0,0.0,0.0,0.0,0.0,0.0,0.0,0.0,0.0,0.0,0.0,0.0,0.0,0.0,0.0,0.0,0.0,0.0,0.0,0.0,0.0,0.0,0.0,0.0,0.0,0.0,0.0,0.0,0.0,0.0,0.0,0.0,0.0,0.0,0.0,0.0,0.0,0.0,0.0,0.0,0.0,0.0,0.0,0.0,0.0,0.0,0.0,0.0,0.0,0.0,0.0,0.0,0.0,0.0,0.0,0.0,0.0,0.0,0.0,0.0,0.0,0.0,0.0,0.0,0.0,0.0,0.0,0.0,0.0,0.0,0.0,0.0,0.0,0.0,0.0,0.0,0.0,0.0,0.0,0.0,0.0,0.0,0.0,0.0,0.0,0.0,0.0,0.0,0.0,0.0,0.0,0.0,0.0,0.0,0.0,0.0,0.0,0.0,0.0,0.0,0.0,0.0,0.0,0.0,0.0,0.0,0.0,0.0,0.0,0.0,0.0,0.0,0.0,0.0,0.0,0.0,0.0,0.0,0.0,0.0,0.0,0.0,0.0,0.0,0.0,0.0,0.0,0.0,0.0,0.0,0.0,0.0,0.0,0.0,0.0,0.0,0.0,0.0,0.0,0.0,0.0,0.0,0.0,0.0,0.0,0.0,0.0,0.0,0.0,0.0,0.0,0.0,0.0,0.0,0.0,0.0,0.0,0.0,0.0,0.0,0.0,0.0,0.0,0.0,0.0,0.0,0.0,0.0,0.0,0.0,0.0,0.0,0.0,0.0,0.0,0.0,0.0,0.0,0.0,0.0,0.0,0.0,0.0,0.0,0.0,0.0,0.0,0.0,0.0,0.0,0.0,0.0,0.0,0.0,0.0,0.0,0.0,0.0,0.0,0.0,0.0,0.0,0.0,0.0,0.0,0.0,0.0,0.0,0.0,0.0,0.0,0.0,0.0,0.0,0.0,0.0,0.0,0.0,0.0,0.0,0.0,0.0,0.0,0.0,0.0,0.0,0.0,0.0,0.0,0.0,0.0,0.0,0.0,0.0,0.0,0.0,0.0,0.0,0.0,0.0,0.0,0.0,0.0,0.0,0.0,0.0,0.0,0.0,0.0,0.0,0.0,0.0,0.0,0.0,0.0,0.0,0.0,0.0,0.0,0.0,0.0,0.0,0.0,0.0,0.0,0.0,0.0,0.0,0.0,0.0,0.0,0.0,0.0,0.0,0.0,0.0,0.0,0.0,0.0,0.0,0.0,0.0,0.0,0.0,0.0,0.0,0.0,0.0,0.0,0.0,0.0,0.0,0.0,0.0,0.0,0.0,0.0,0.0,0.0,0.0,0.0,0.0,0.0,0.0,0.0,0.0,0.0,0.0,0.0,0.0,0.0,0.0,0.0,0.0,0.0,0.0,0.0,0.0,0.0,0.0,0.0,0.0,0.0,0.0,0.0,0.0,0.0,0.0,0.0,0.0,0.0,0.0,0.0,0.0,0.0,0.0,0.0,0.0,0.0,0.0,0.0,0.0,0.0,0.0,0.0,0.0,0.0,0.0,0.0,0.0,0.0,0.0,0.0,0.0,0.0,0.0,0.0,0.0,0.0,0.0,0.0,0.0,0.0,0.0,0.0,0.0,0.0,0.0,0.0,0.0,0.0,0.0,0.0,0.0,0.0,0.0,0.0,0.0,0.0,0.0,0.0,0.0,0.0,0.0,0.0,0.0,0.0,0.0,0.0,0.0,0.0,0.0,0.0,0.0,0.0,0.0,0.0,0.0,0.0,0.0,0.0,0.0,0.0,0.0,0.0,0.0,0.0,0.0,0.0,0.0,0.0,0.0,0.0,0.0,0.0,0.0,0.0,0.0,0.0,0.0,0.0,0.0,0.0,0.0,0.0,0.0,0.0,0.0,0.0,0.0,0.0,0.0,0.0,0.0,0.0,0.0,0.0,0.0,0.0,0.0,0.0,0.0,0.0,0.0,0.0,0.0,0.0,0.0,0.0,0.0,0.0,0.0,0.0,0.0,0.0,0.0,0.0,0.0,0.0,0.0,0.0,0.0,0.0,0.0,0.0,0.0,0.0,0.0,0.0,0.0,0.0,0.0,0.0,0.0,0.0,0.0,0.0,0.0,0.0,0.0,0.0,0.0,0.0,0.0,0.0,0.0,0.0,0.0,0.0,0.0,0.0,0.0,0.0,0.0,0.0,0.0,0.0,0.0,0.0,0.0,0.0,0.0,0.0,0.0,0.0,0.0,0.0,0.0,0.0,0.0,0.0,0.0,0.0,0.0,0.0,0.0,0.0,0.0,0.0,0.0,0.0,0.0,0.0,0.0,0.0,0.0,0.0,0.0,0.0,0.0,0.0,0.0,0.0,0.0,0.0,0.0,0.0,0.0,0.0,0.0,0.0,0.0,0.0,0.0,0.0,0.0,0.0,0.0,0.0,0.0,0.0,0.0,0.0,0.0,0.0,0.0,0.0,0.0,0.0,0.0,0.0,0.0,0.0,0.0,0.0,0.0,0.0,0.0,0.0,0.0,0.0,0.0,0.0,0.0,0.0,0.0,0.0,0.0,0.0,0.0,0.0,0.0,0.0,0.0,0.0,0.0,0.0,0.0,0.0,0.0,0.0,0.0,0.0,0.0,0.0,0.0,0.0,0.0,0.0,0.0,0.0,0.0,0.0,0.0,0.0,0.0,0.0,0.0,0.0,0.0,0.0,0.0,0.0,0.0,0.0,0.0,0.0,0.0,0.0,0.0,0.0,0.0,0.0,0.0,0.0,0.0,0.0,0.0,0.0,0.0,0.0,0.0,0.0,0.0,0.0,0.0,0.0,0.0,0.0,0.0,0.0,0.0,0.0,0.0,0.0,0.0,0.0,0.0,0.0,0.0,0.0,0.0,0.0,0.0,0.0,0.0,0.0,0.0,0.0,0.0,0.0,0.0,0.0,0.0,0.0,0.0,0.0,0.0,0.0,0.0,0.0,0.0,0.0,0.0,0.0,0.0,0.0,0.0,0.0,0.0,0.0,0.0,0.0,0.0,0.0,0.0,0.0,0.0,0.0,0.0,0.0,0.0,0.0,0.0,0.0,0.0,0.0,0.0,0.0,0.0,0.0,0.0,0.0,0.0,0.0,0.0,0.0,0.0,0.0,0.0,0.0,0.0,0.0,0.0,0.0,0.0,0.0,0.0,0.0,0.0,0.0,0.0,0.0,0.0,0.0,0.0,0.0,0.0,0.0,0.0,0.0,0.0,0.0,0.0,0.0,0.0,0.0,0.0,0.0,0.0,0.0,0.0,0.0,0.0,0.0,0.0,0.0,0.0,0.0,0.0,0.0,0.0,0.0,0.0,0.0,0.0,0.0,0.0,0.0,0.0,0.0,0.0,0.0,0.0,0.0,0.0,0.0,0.0,0.0,0.0,0.0,0.0,0.0,0.0,0.0,0.0,0.0,0.0,0.0,0.0,0.0,0.0,0.0,0.0,0.0,0.0,0.0,0.0,0.0,0.0,0.0,0.0,0.0,0.0,0.0,0.0,0.0,0.0,0.0,0.0,0.0,0.0,0.0,0.0,0.0,0.0,0.0,0.0,0.0,0.0,0.0,0.0,0.0,0.0,0.0,0.0,0.0,0.0,0.0,0.0,0.0,0.0,0.0,0.0,0.0,0.0,0.0,0.0,0.0,0.0,0.0,0.0,0.0,0.0,0.0,0.0,0.0,0.0,0.0,0.0,0.0,0.0,0.0,0.0,0.0,0.0,0.0,0.0,0.0,0.0,0.0,0.0,0.0,0.0,0.0,0.0,0.0,0.0,0.0,0.0,0.0,0.0,0.0,0.0,0.0,0.0,0.0,0.0,0.0,0.0,0.0,0.0,0.0,0.0,0.0,0.0,0.0,0.0,0.0,0.0,0.0,0.0,0.0,0.0,0.0,0.0,0.0,0.0,0.0,0.0,4.5183,4.2529,0.0,0.0,0.0,0.0,0.0,0.0,0.0,0.0,0.0,0.0,0.0,0.0,0.0,0.0,0.0,0.0,0.0,0.0,0.0,0.0,0.0,0.0,0.0,2.63,2.6869,2.7323,2.7533,2.7672,2.7703,0.0,0.0,0.0,0.0,0.0,2.7236,2.7582,2.8239,2.9148,3.0038,3.1078,3.2233,3.0878,2.9378,2.7739,0.0,0.0,0.0,0.0,0.0,0.0,0.0,0.0,0.0,0.0,0.0,0.0,0.0,0.0,0.0,0.0,0.0,0.0,0.0,0.0,0.0,0.0,0.0,0.0,0.0,0.0,0.0,0.0,0.0,0.0,0.0,0.0,0.0,0.0,0.0,0.0,0.0,0.0,0.0,0.0,0.0,0.0,0.0,0.0,0.0,0.0,0.0,0.0,0.0,0.0,0.0,0.0,0.0,0.0,0.0,0.0,0.0,0.0,0.0,0.0,0.0,0.0,0.0,0.0,0.0,0.0,0.0,0.0,0.0,0.0,5.1525,4.8493,0.0,0.0,0.0,0.0,0.0,0.0,0.0,0.0,0.0,0.0,0.0,0.0,0.0,0.0,0.0,0.0,0.0,0.0,0.0,0.0,0.0,2.5839,2.6663,2.7311,2.8172,2.9306,2.9065,2.9007,2.9431,2.8654,0.0,0.0,2.8404,2.8439,2.8352,2.9313,3.0612,3.2343,3.3952,3.5705,3.7481,3.7215,3.6036,3.4073,3.2137,0.0,0.0,0.0,0.0,0.0,0.0,0.0,0.0,0.0,0.0,0.0,0.0,0.0,0.0,0.0,0.0,0.0,0.0,0.0,0.0,0.0,0.0,0.0,0.0,0.0,0.0,0.0,0.0,0.0,0.0,0.0,0.0,0.0,0.0,0.0,0.0,0.0,0.0,0.0,0.0,0.0,0.0,0.0,0.0,0.0,0.0,0.0,0.0,0.0,0.0,0.0,0.0,0.0,0.0,0.0,0.0,0.0,0.0,0.0,0.0,0.0,0.0,0.0,6.2149,6.2998,6.3953,6.343,6.3784,6.4444,5.8547,5.5743,5.5073,5.1428,0.0,0.0,0.0,0.0,0.0,0.0,0.0,0.0,0.0,0.0,0.0,0.0,0.0,0.0,0.0,0.0,0.0,0.0,0.0,2.6691,2.7373,2.8824,3.0308,3.1695,3.1716,3.1991,3.2802,3.1394,3.0641,3.0818,3.0844,3.0623,3.0074,3.1707,3.3074,3.4085,3.8737,4.2273,4.4637,4.3718,4.3555,4.3662,3.7569,3.4769,3.45,0.0,0.0,0.0,0.0,0.0,0.0,0.0,0.0,0.0,0.0,0.0,0.0,0.0,0.0,0.0,0.0,0.0,0.0,0.0,0.0,0.0,0.0,0.0,0.0,0.0,0.0,0.0,0.0,0.0,0.0,0.0,0.0,0.0,0.0,0.0,0.0,0.0,0.0,0.0,0.0,0.0,4.2737,4.5344,0.0,0.0,0.0,0.0,0.0,0.0,0.0,0.0,0.0,0.0,0.0,0.0,0.0,6.1333,6.2757,6.5886,6.7211,6.6758,6.9553,7.0252,6.9125,6.9737,7.0101,7.0156,6.8569,0.0,5.9838,5.7612,0.0,0.0,0.0,0.0,0.0,0.0,0.0,0.0,0.0,0.0,0.0,0.0,0.0,0.0,0.0,0.0,0.0,0.0,0.0,0.0,0.0,3.1682,3.3622,3.5337,3.5797,3.5771,3.5313,3.4201,3.3174,3.2359,3.2327,3.2441,3.2697,3.4387,3.7171,4.1048,4.5245,4.7906,4.8952,4.8468,4.8411,4.864,4.5634,4.2044,3.8161,3.6122,0.0,0.0,0.0,0.0,0.0,0.0,0.0,0.0,0.0,0.0,0.0,0.0,0.0,0.0,0.0,0.0,0.0,0.0,0.0,0.0,0.0,0.0,0.0,0.0,0.0,0.0,0.0,0.0,0.0,0.0,0.0,0.0,0.0,0.0,0.0,0.0,0.0,0.0,0.0,4.3158,4.7161,4.8754,4.9107,4.8687,0.0,0.0,0.0,0.0,0.0,0.0,0.0,0.0,0.0,6.3882,6.5999,6.7614,6.8825,7.1578,7.301,7.312,7.5028,7.5799,7.5557,7.5432,7.5652,7.5983,7.4221,7.1948,6.9073,6.4125,6.0696,5.8243,0.0,0.0,0.0,0.0,5.5877,5.6063,0.0,0.0,0.0,0.0,0.0,0.0,0.0,0.0,0.0,0.0,0.0,0.0,3.2403,3.4834,3.7088,3.9164,3.9576,3.9334,3.8432,3.6819,3.5356,3.4152,3.3882,3.4194,3.5126,3.8113,4.237,4.7875,5.1075,5.2752,5.2986,5.2851,5.2772,5.2772,5.2507,4.8852,4.2739,4.056,3.7954,3.4943,0.0,0.0,0.0,0.0,0.0,0.0,0.0,0.0,0.0,0.0,0.0,0.0,0.0,0.0,0.0,0.0,0.0,0.0,0.0,0.0,0.0,0.0,0.0,0.0,0.0,0.0,0.0,0.0,0.0,0.0,0.0,0.0,0.0,0.0,0.0,0.0,0.0,4.8063,5.124,5.2079,5.397,5.4241,0.0,0.0,0.0,0.0,0.0,0.0,6.2744,6.5007,6.7554,7.0417,7.2422,7.3964,7.4955,7.6754,7.7965,7.8573,7.9213,7.9837,8.0404,7.958,7.9543,7.9984,7.7657,7.6632,7.6136,6.9572,6.5985,6.4444,6.2242,6.0836,6.0258,6.1573,6.1516,6.1102,0.0,0.0,0.0,0.0,0.0,0.0,0.0,0.0,0.0,0.0,0.0,3.1808,3.5068,3.7798,4.0328,4.2732,4.2366,4.227,4.2846,3.9129,3.6906,3.6794,3.609,3.6052,3.6878,4.3465,4.8697,5.2383,5.5039,5.6758,5.7578,5.7439,5.7376,5.7335,5.6355,5.3495,4.9116,4.5653,4.3147,4.1081,3.599,0.0,0.0,0.0,0.0,0.0,0.0,0.0,0.0,0.0,0.0,0.0,0.0,0.0,0.0,0.0,0.0,0.0,0.0,0.0,0.0,0.0,0.0,0.0,0.0,0.0,0.0,0.0,0.0,0.0,0.0,0.0,0.0,0.0,0.0,0.0,0.0,0.0,0.0,5.6412,5.9278,0.0,0.0,0.0,0.0,6.1079,6.3454,6.6282,6.9449,7.1174,7.3927,7.7928,7.8898,8.0147,8.1709,8.1819,8.1893,8.1929,8.2003,8.2039,8.2039,8.1269,8.0901,8.0816,7.893,7.8096,7.7715,7.2948,7.0513,6.9559,6.7921,6.6658,6.5887,6.6736,6.6407,6.5684,0.0,0.0,0.0,0.0,0.0,2.5298,2.5341,2.5855,2.6664,2.7884,3.1033,3.4218,3.703,4.0678,4.3676,4.5689,4.557,4.5069,4.4207,4.12,3.9732,4.0375,3.9595,4.1135,4.5418,4.9526,5.2811,5.5195,5.7137,5.8309,5.8711,5.8551,5.8554,5.8666,5.8304,5.6972,5.4783,5.1121,4.766,4.4277,4.0742,3.7342,0.0,0.0,0.0,0.0,0.0,0.0,0.0,0.0,0.0,0.0,0.0,0.0,0.0,0.0,0.0,0.0,0.0,0.0,0.0,0.0,0.0,0.0,0.0,0.0,0.0,0.0,0.0,0.0,0.0,0.0,0.0,0.0,0.0,0.0,0.0,0.0,0.0,6.2059,6.5118,0.0,6.3686,6.5375,6.699,6.7797,7.105,7.3766,7.5469,7.7598,7.9396,8.0865,8.1709,8.2406,8.2994,8.3508,8.3728,8.3728,8.3728,8.3728,8.3728,8.3434,8.3324,8.3271,8.2074,8.1265,8.0605,7.8463,7.5641,7.2698,7.2235,7.156,7.0806,7.0475,7.015,6.9685,0.0,0.0,0.0,0.0,2.5305,2.5361,2.5396,2.6165,2.7494,2.9537,3.2861,3.643,4.0115,4.3602,4.6371,4.8057,4.8194,4.7614,4.6146,4.3614,4.2323,4.2732,4.2968,4.5694,5.1222,5.3837,5.5986,5.7744,5.9063,5.9768,5.9893,5.9767,5.977,5.9894,5.9894,5.9425,5.8452,5.6015,5.2514,4.8391,4.5522,4.2473,3.9355,0.0,0.0,0.0,0.0,0.0,0.0,0.0,0.0,0.0,0.0,0.0,0.0,0.0,0.0,0.0,0.0,0.0,0.0,0.0,0.0,0.0,0.0,0.0,0.0,0.0,0.0,0.0,0.0,0.0,0.0,0.0,0.0,0.0,0.0,6.0945,6.4347,6.6279,6.9816,7.1284,6.9119,7.1394,7.3303,7.4111,7.6885,7.905,8.0167,8.2003,8.3251,8.3801,8.4609,8.5143,8.5436,8.595,8.6207,8.6207,8.6207,8.6207,8.6224,8.5673,8.5416,8.5326,8.3883,8.2959,8.2394,8.1211,7.8818,7.5893,7.617,7.5771,7.4874,7.3652,7.2971,7.238,0.0,0.0,0.0,2.5159,2.5341,2.5415,2.5409,2.6287,2.8439,3.2601,3.4866,3.8318,4.4273,4.6558,4.8278,4.9881,5.011,4.9762,4.8788,4.6247,4.4486,4.3818,4.6175,4.9451,5.3741,5.6275,5.8384,6.0107,6.0966,6.1358,6.1364,6.1358,6.1358,6.1364,6.1364,6.0855,6.0068,6.0032,5.7714,5.3679,5.0228,4.825,4.6851,0.0,0.0,0.0,0.0,0.0,0.0,0.0,0.0,0.0,0.0,0.0,0.0,0.0,0.0,0.0,0.0,0.0,0.0,0.0,0.0,0.0,0.0,0.0,0.0,0.0,0.0,0.0,0.0,0.0,0.0,0.0,0.0,0.0,6.0701,6.4822,6.8174,6.9041,7.3333,7.5586,7.4074,7.6864,7.9066,7.9853,8.0681,8.1893,8.3418,8.4315,8.5453,8.7014,8.7839,8.861,8.94,8.94,8.94,8.94,8.94,8.94,8.9363,8.7785,8.7051,8.6943,8.4319,8.3153,8.297,8.1125,7.9903,7.927,7.9624,7.9102,7.7936,7.6161,7.4853,7.371,0.0,0.0,2.4443,2.5242,2.5444,2.548,2.5522,2.684,2.8967,3.2061,3.5624,3.9687,4.4451,4.7109,4.9218,5.0856,4.9921,4.9374,4.9639,4.6065,4.516,4.7888,5.1629,5.5386,5.9045,5.9784,6.0993,6.275,6.2894,6.3014,6.31,6.3006,6.3018,6.3103,6.2445,6.2058,6.1783,6.1203,5.99,5.8069,5.5189,5.2422,4.9767,0.0,0.0,0.0,0.0,0.0,0.0,0.0,0.0,0.0,0.0,0.0,0.0,0.0,0.0,0.0,0.0,0.0,0.0,0.0,0.0,0.0,0.0,0.0,0.0,0.0,0.0,0.0,0.0,0.0,0.0,0.0,6.2521,6.6308,6.7041,6.9312,7.1841,7.4408,7.6958,7.8607,7.8966,8.0865,8.217,8.2406,8.4225,8.5546,8.5987,8.7344,8.8262,8.8739,8.8959,8.9179,8.94,8.94,8.94,8.94,8.94,8.94,8.9363,8.8959,8.8739,8.8648,8.7318,8.6444,8.5805,8.4717,8.3319,8.1693,8.0116,7.8495,7.698,7.6479,7.4836,7.2698,0.0,2.3598,2.4458,2.53,2.5486,2.5575,2.5599,2.7096,2.9566,3.3281,3.6601,4.0508,4.5547,4.7461,4.8906,5.0234,4.9723,4.9242,4.8941,4.7152,4.7805,5.1562,5.513,5.828,6.0958,6.1725,6.2577,6.3593,6.353,6.3492,6.3589,6.3323,6.3241,6.3268,6.253,6.2199,6.216,6.1698,6.1004,6.0113,5.8605,5.6493,5.4044,5.2436,5.052,4.8483,4.722,4.6019,4.4679,4.277,0.0,0.0,0.0,0.0,0.0,0.0,0.0,0.0,0.0,0.0,0.0,0.0,0.0,0.0,0.0,0.0,0.0,0.0,0.0,0.0,0.0,0.0,0.0,0.0,6.68,7.0446,7.2555,7.3474,7.4851,7.7445,7.8876,8.0016,8.0985,8.2666,8.3823,8.4169,8.6256,8.7638,8.7968,8.871,8.9144,8.9144,8.9472,8.9655,8.9655,9.0155,9.0391,9.0391,9.0391,9.0391,9.0391,9.006,8.9913,8.984,8.9033,8.8243,8.74,8.6135,8.4718,8.324,0.0,0.0,0.0,0.0,7.49,7.2801,0.0,2.376,2.4606,2.5375,2.5583,2.5606,2.5606,2.7145,3.0117,3.5195,3.7461,4.0859,4.6797,4.7539,4.793,4.8788,4.9549,4.9399,4.8017,4.9395,5.1636,5.4636,5.7203,5.9358,6.105,6.2627,6.3506,6.3583,6.3583,6.3603,6.363,6.3219,6.2986,6.2923,6.2362,6.2042,6.1938,6.1853,6.1373,6.0741,6.0741,5.9883,5.8383,5.6061,5.5514,5.569,5.2995,5.1116,4.9533,4.7444,0.0,0.0,0.0,0.0,0.0,0.0,0.0,0.0,0.0,0.0,0.0,0.0,0.0,0.0,0.0,0.0,0.0,0.0,0.0,0.0,0.0,0.0,0.0,0.0,7.0574,7.3442,7.6955,7.6999,7.7263,7.8805,7.9631,8.0449,8.1357,8.3113,8.4508,8.532,8.7028,8.8381,8.9112,8.8896,0.0,0.0,0.0,8.9863,9.0006,9.1041,9.1657,9.1803,9.1803,9.1803,9.1767,9.1069,9.0739,9.0702,8.9877,8.9053,8.8123,8.6202,8.484,8.3865,8.3209,8.172,7.9604,7.7055,7.508,7.3661,0.0,2.4659,2.5339,2.5546,2.5654,2.5663,2.5663,2.7187,2.9883,3.4375,3.707,4.0625,4.5976,4.7187,4.7928,4.8687,4.9446,5.027,5.114,5.3262,5.514,5.6445,5.8979,6.1089,6.2775,6.382,6.4705,6.5397,6.5397,6.5509,6.5711,6.5633,6.5365,6.4963,6.4172,6.3446,6.2795,6.2089,6.1703,6.1561,6.1561,6.0223,5.8174,5.765,5.6724,5.5607,5.5041,5.4617,5.4178,5.3029,5.1888,5.0666,4.8964,4.6497,0.0,0.0,0.0,0.0,0.0,0.0,0.0,0.0,0.0,0.0,0.0,0.0,0.0,0.0,0.0,0.0,0.0,0.0,0.0,6.9504,7.2858,7.5709,7.7875,7.8418,7.8805,7.9399,8.0181,8.1291,8.2899,8.3961,8.489,8.5628,8.6646,8.7273,8.7472,8.8004,8.8322,8.8322,8.8464,8.9014,8.9986,9.0244,9.0849,9.1803,9.1803,0.0,9.1803,9.1657,9.1583,9.151,9.0739,8.9714,8.8567,8.6944,8.486,8.2575,8.0978,7.9683,7.8553,7.653,7.5211,7.4418,2.4774,2.5224,2.5585,2.5655,2.5663,2.5703,2.5703,2.7187,2.9687,3.3555,3.6328,3.957,4.3867,4.4724,4.526,4.6096,4.7572,4.9658,5.2468,5.4353,5.63,5.8406,6.0342,6.1919,6.3169,6.4062,6.4718,6.5145,6.5549,6.58,6.5939,6.6107,6.6041,6.5774,6.5087,6.4357,6.3561,6.3129,6.2459,6.1688,6.1688,6.0497,5.8686,5.9167,5.86,5.7473,5.7227,5.6873,5.6471,5.577,5.4734,5.3544,5.2308,5.0497,4.8207,0.0,0.0,0.0,0.0,0.0,0.0,0.0,0.0,0.0,0.0,0.0,0.0,0.0,0.0,6.038,6.3397,0.0,6.9511,7.2632,7.4921,7.6873,7.85,7.8953,7.9146,7.9334,8.0354,8.1407,8.2312,8.3984,8.5157,8.5519,8.6816,8.7577,8.7577,8.7397,8.7281,8.7281,8.7281,8.7884,8.9114,8.9683,9.0618,9.1803,9.1803,9.1803,9.1803,9.1803,9.1803,9.1748,9.0716,8.9724,8.8586,8.5863,8.3595,8.1713,8.0422,7.9543,7.8819,7.6975,7.6082,7.574,2.5366,2.5542,2.5654,2.5703,2.5703,2.5703,2.5703,2.7187,2.9414,3.246,3.5311,3.8201,4.1285,4.1853,4.2566,4.3909,4.5964,4.9015,5.3278,5.4772,5.6899,5.9985,6.1262,6.2285,6.3068,6.3955,6.4379,6.4379,6.5218,6.5651,6.5683,6.6056,6.6184,6.6093,6.5716,6.5007,6.4103,6.4103,6.3221,6.1814,6.1814,6.086,5.9522,6.0252,5.9947,5.9065,5.8713,5.7965,5.7103,5.6881,5.5761,5.4312,5.3667,5.2893,5.1544,4.7941,4.7202,0.0,0.0,0.0,0.0,0.0,0.0,0.0,0.0,5.5724,5.7654,6.1651,6.3599,6.5696,6.9485,7.1379,7.3274,7.5946,7.6893,7.7841,7.9329,7.9397,7.9304,7.9304,8.0479,8.1384,8.1494,8.3597,8.5018,8.5156,8.6612,8.7492,8.7492,8.6585,8.6053,8.6053,8.6053,8.6634,8.7838,8.8819,8.9924,9.1116,9.1116,9.1116,9.1116,9.1116,9.1116,9.1022,8.9806,8.8768,8.7655,8.4275,8.2178,8.1046,8.0412,8.0014,7.951,7.7754,7.7029,7.6859,0.0,2.5602,2.5703,2.5703,2.5703,2.5703,2.5703,2.7187,2.8944,3.0763,3.3959,3.6756,3.8553,4.0138,4.2266,4.5306,4.7032,4.9916,5.4498,5.6352,5.8266,6.0423,6.1398,6.2285,6.3068,6.3955,6.4379,6.4379,6.5218,6.5714,6.5971,6.6711,6.6826,6.6434,6.6405,6.5521,6.4103,6.4103,6.3539,6.2683,6.2683,6.1692,6.0284,6.0378,5.9479,5.8153,5.8085,5.7107,5.5926,5.666,5.5809,5.4457,5.4394,5.3811,5.2777,5.0903,4.9457,4.8526,4.886,4.9781,5.1631,5.5703,5.6043,5.7622,0.0,6.6164,6.5664,7.0116,7.1684,7.2597,7.3781,7.5236,7.6826,7.845,7.8822,7.9363,8.0851,8.0479,8.0073,8.0073,8.0784,8.1562,8.2205,8.3147,8.3963,8.4615,8.4875,8.4988,8.4988,8.4864,8.4785,8.4785,8.4785,8.5395,8.6575,8.6744,8.7398,8.8601,8.8601,8.8601,8.8601,8.8601,8.8601,8.8535,8.7328,8.6016,8.4587,8.3105,8.1622,8.031,8.0242,8.0174,7.9969,7.8431,7.7468,7.6927,0.0,2.5615,2.5703,2.5703,2.5703,2.5703,2.5703,2.7145,2.8658,2.9856,3.2526,3.4763,3.595,3.7568,3.9679,4.2476,4.4924,4.8378,5.3225,5.5139,5.7316,6.0066,6.0746,6.1394,6.2212,6.303,6.3487,6.3487,6.4293,6.5009,6.5595,6.6408,6.692,6.7187,6.7187,6.6292,6.4787,6.4787,6.4016,6.2755,6.2298,6.1157,5.9752,5.9727,5.8454,5.6734,5.7136,5.6565,0.0,5.6012,5.5396,5.4512,5.4979,5.4323,5.3112,5.1903,5.1489,5.19,5.3991,5.5145,5.6409,5.9201,6.1366,6.3869,6.7929,6.891,6.9992,7.3578,7.4931,7.5709,7.6454,7.7807,7.9025,7.9634,8.0479,8.1088,8.1283,8.0648,8.004,7.9634,8.0209,8.1122,8.2306,8.3084,8.3795,8.4546,8.4614,8.4614,8.4614,8.4614,8.4614,8.4614,8.4614,8.5162,8.639,8.6414,8.7008,8.8201,8.8201,8.8201,8.8201,8.8201,8.7815,8.7092,8.6599,8.5407,8.3704,8.2776,8.1765,8.086,8.1112,8.0804,8.0006,7.8517,7.7773,7.7406,0.0,2.5659,2.5703,2.5703,2.5703,2.5703,2.5703,2.7138,2.8403,2.9016,3.1266,3.3202,3.4307,3.5653,3.7507,3.995,4.2723,4.6397,5.1295,5.3541,5.6092,5.9255,5.9833,6.0566,6.1569,6.2181,6.2572,6.2793,6.3686,6.4383,6.5007,6.5778,6.6476,6.7026,6.7026,6.6256,6.4971,6.4971,6.4011,6.2402,6.162,6.0353,5.8942,5.8673,5.7103,5.5098,5.5862,5.5354,5.4231,5.403,5.3416,5.2897,5.3713,5.3279,5.2475,5.2607,5.3616,5.5148,5.7079,5.8896,6.0704,6.2651,6.6,6.9011,6.962,7.1176,7.3172,7.554,7.6657,7.7367,7.7874,7.9025,8.004,8.0445,8.1393,8.1968,8.1629,8.0784,7.9938,7.9169,7.9397,8.0175,8.1663,8.2813,8.3727,8.4242,8.4478,8.4614,8.4614,8.4614,8.4614,8.4614,8.4614,8.5014,8.5912,8.5877,8.634,8.7222,8.7222,8.7222,8.7222,8.7222,8.6755,8.5877,8.5877,8.5002,8.3422,8.2712,8.1968,8.1292,8.141,8.1125,8.0495,7.8902,7.8145,7.7831,0.0,0.0,2.5703,2.5703,2.5703,2.5703,2.5703,2.7138,2.8195,2.8167,3.0302,3.2449,3.4045,3.5017,3.6587,3.9127,4.1322,4.4505,4.9115,5.2183,5.5107,5.7944,5.8804,5.9967,6.1569,6.163,6.2034,6.2793,6.3686,6.4103,6.4139,6.4971,6.5362,6.5362,6.5362,6.4897,6.4139,6.4139,6.3165,6.1573,6.0829,5.9558,5.8036,5.7285,5.5431,5.3376,5.418,5.2968,5.0821,5.0045,4.9257,4.8737,4.9614,4.9996,5.0648,5.3495,5.596,5.7613,5.7002,6.0047,6.4052,6.6981,6.9451,7.1763,7.3893,7.4999,7.5811,7.669,7.7435,7.7942,7.8,7.8619,7.96,8.1046,8.1317,8.1562,8.2272,8.1122,7.9938,7.9169,7.8483,7.8653,8.0107,8.2238,8.3524,8.3524,8.42,8.4614,8.4614,8.4614,8.4614,8.4614,8.4614,8.4606,8.466,8.466,8.466,8.4713,8.4713,8.4713,8.4713,8.4713,8.4686,8.466,8.466,8.4227,8.3422,8.2712,8.1968,8.1249,8.053,8.0917,8.1619,7.9765,7.8619,7.7899,0.0,0.0,0.0,2.5703,2.5703,2.5703,2.5656,2.7063,2.8145,2.8116,3.0229,0.0,0.0,0.0,0.0,0.0,3.9913,4.2561,4.6579,4.9612,5.2333,5.4704,5.7116,5.8657,5.9208,6.0272,6.0933,6.1215,6.1484,6.1924,6.245,6.2732,6.3135,6.3673,6.4237,6.3723,6.2487,6.3025,6.23,6.0683,5.9416,5.8263,5.7231,5.641,5.4261,5.1643,0.0,5.033,4.9111,4.8829,4.8575,4.84,4.8854,4.9098,4.9821,5.2909,5.5756,5.8509,6.1231,6.414,6.7015,6.9553,7.1853,7.3656,7.4434,7.5574,7.642,7.6149,7.6724,7.7096,7.6555,7.7502,7.8855,8.031,8.1393,8.2306,8.3016,8.2272,8.1021,7.9304,7.9329,7.9261,7.8788,8.031,8.19,8.3389,8.3727,8.4099,8.458,8.4614,8.4614,8.4614,8.4614,8.485,8.5384,8.4877,8.4877,8.5384,8.485,8.4614,8.4614,8.4614,8.4614,8.4614,8.4614,8.42,8.349,8.3219,8.2408,8.136,8.186,8.1522,8.0795,8.0923,8.0024,7.8551,0.0,0.0,0.0,0.0,0.0,0.0,0.0,0.0,0.0,0.0,0.0,0.0,0.0,0.0,0.0,0.0,0.0,4.093,4.4228,4.7222,4.9705,5.1536,5.4191,5.5675,5.5842,5.6859,5.7813,5.8694,5.8694,5.9391,6.075,6.075,6.119,6.1985,6.2548,6.2181,6.119,6.1728,6.1015,5.943,5.7598,5.623,5.509,5.3479,5.136,0.0,4.831,4.7259,4.629,4.629,4.6844,4.7563,4.7737,4.9545,5.1953,5.3748,5.6968,6.0757,6.4715,6.7421,6.9654,7.1898,7.3961,7.5371,7.5067,7.5777,7.6183,7.5134,7.4897,7.4728,7.4221,7.4492,7.5811,7.8889,8.0209,8.146,8.3253,8.2881,8.1765,8.0107,8.0073,7.9938,7.9253,8.004,8.1291,8.2983,8.3592,8.4099,8.458,8.485,8.5046,8.5046,8.5256,8.5689,8.6196,8.5418,8.5148,8.5351,8.485,8.4614,8.4614,8.4614,8.4614,8.4614,8.4614,8.4309,8.3862,8.3625,8.2949,8.2105,8.229,8.2132,8.1829,8.1897,8.1388,8.039,0.0,0.0,0.0,0.0,0.0,0.0,0.0,0.0,0.0,0.0,0.0,0.0,0.0,0.0,0.0,0.0,0.0,0.0,4.2053,4.501,4.726,4.8564,5.0254,5.137,5.1887,5.1914,5.3052,5.5365,5.5365,5.6565,5.8829,5.8829,5.9269,6.004,6.0089,6.0089,6.004,6.0089,5.9183,5.7573,5.5382,5.3538,5.1835,4.8927,4.7168,4.6189,4.5418,4.4131,4.2828,4.2864,4.4469,4.6459,4.6814,5.1422,5.6641,5.6214,5.9723,6.4356,6.732,6.9789,7.2033,7.4164,7.5811,7.669,7.5845,7.5574,7.51,7.351,7.2022,7.0985,7.085,6.9857,7.0939,7.6782,7.7933,7.9329,8.2983,8.2949,8.2238,8.1452,8.075,8.0615,8.1249,8.1384,8.1697,8.2408,8.3734,8.458,8.4647,8.5384,8.5817,8.5885,8.6535,8.6907,8.6907,8.6244,8.5465,8.4614,8.466,8.466,8.4614,8.4614,8.4614,8.4614,8.4614,8.4614,8.4546,8.3862,8.3524,8.3355,8.19,8.2659,8.43,8.2499,8.2481,8.2914,0.0,0.0,0.0,0.0,0.0,0.0,0.0,0.0,0.0,0.0,0.0,0.0,0.0,0.0,0.0,0.0,0.0,0.0,3.9556,4.2107,4.4308,4.6057,4.8238,4.9676,5.0198,5.0812,5.1426,5.2013,5.2013,5.2637,5.3849,5.3849,5.4289,5.5049,5.5647,5.5611,5.5086,5.5684,5.4975,5.3363,5.2243,5.1176,5.0126,4.882,4.7402,4.6049,4.5849,4.5142,4.4407,4.4978,4.757,5.0968,5.3276,5.6023,5.8796,6.0897,6.3984,6.7421,7.0432,7.2868,7.4864,7.6014,7.6623,7.6555,7.5202,7.4018,7.2496,6.9857,6.8132,6.6609,6.4952,6.6609,6.9451,7.3206,7.6657,7.9938,8.305,8.3828,8.3565,8.2272,8.2441,8.2306,8.1384,8.2272,8.3016,8.3219,8.3558,8.4268,8.5418,8.5716,8.6027,8.6602,8.6805,8.6907,8.6907,8.7064,8.6311,8.4606,8.5515,8.5464,8.4614,8.4614,8.4614,8.4614,8.4614,8.4614,8.458,8.4377,8.3998,8.3422,8.2475,8.214,8.2031,8.1028,8.0829,8.0853,0.0,0.0,0.0,0.0,0.0,0.0,0.0,0.0,0.0,0.0,0.0,0.0,0.0,0.0,0.0,0.0,0.0,0.0,0.0,4.0201,4.1971,4.2879,4.4906,4.6121,4.6265,4.7082,4.7853,4.855,4.8947,4.9814,5.1172,5.1172,5.1507,5.215,5.2637,5.2564,5.2186,5.2637,5.2069,0.0,0.0,4.8853,4.798,4.6598,4.5627,4.4978,4.4674,4.5577,4.7287,4.9465,5.1746,5.4202,5.7192,5.967,6.1955,6.4627,6.7557,7.0466,7.3138,7.5473,7.7164,7.6961,7.721,7.6779,7.3832,7.2348,7.054,6.672,6.4526,6.2791,6.1202,6.3124,6.6305,7.0297,7.4695,7.8889,8.2509,8.3903,8.4275,8.3464,8.3727,8.3659,8.2847,8.349,8.3998,8.3998,8.3998,8.4505,8.575,8.6095,8.6636,8.738,8.738,8.7076,8.6433,8.6666,8.6051,8.4606,8.5292,8.524,8.4614,8.4614,8.4614,8.4614,8.4614,8.4614,8.4614,8.4614,8.4343,8.393,8.3186,8.2734,8.252,8.2256,8.163,8.097,0.0,0.0,0.0,0.0,0.0,0.0,0.0,0.0,0.0,0.0,0.0,0.0,0.0,0.0,0.0,0.0,0.0,0.0,0.0,0.0,4.0282,4.0162,4.1576,4.2243,4.2015,4.275,4.3799,4.5191,4.6084,4.7485,4.9354,4.9474,4.9767,5.023,5.023,5.0191,5.0141,5.0141,4.968,4.8828,4.7578,4.6585,4.5703,0.0,4.3289,4.3717,4.3307,4.5842,5.0101,5.4441,5.62,5.7119,6.0182,6.3057,6.5764,6.7996,7.0567,7.3172,7.5405,7.7536,7.8779,7.7426,7.765,7.7031,7.2285,7.0577,6.8628,6.3804,6.1094,5.9319,5.8441,5.9774,6.2668,6.7815,7.2462,7.6995,8.1629,8.3498,8.4478,8.458,8.4614,8.4647,8.4749,8.4749,8.4783,8.4884,8.4918,8.5215,8.5892,8.6636,8.7347,8.7989,8.782,8.7076,8.5817,8.5843,8.5436,8.4614,8.4766,8.4766,8.4614,8.4614,8.4614,8.4614,8.4614,8.4614,8.4614,8.4614,8.4614,8.4512,8.3795,8.3645,8.389,8.4152,8.3168,8.184,0.0,0.0,0.0,0.0,0.0,0.0,0.0,0.0,0.0,0.0,3.5232,3.4483,0.0,0.0,0.0,0.0,0.0,0.0,0.0,0.0,0.0,4.1025,4.1348,4.1667,4.1977,4.2165,4.2347,4.2643,4.3497,4.4482,4.5477,4.6219,4.6765,4.7148,4.7148,4.6987,4.6764,4.6764,4.6296,4.5534,4.526,4.4693,4.3944,4.3533,0.0,0.0,4.5058,4.6823,4.9459,5.5421,5.9107,6.1839,6.5425,6.776,6.9654,7.1875,7.3341,7.4728,7.6961,7.8348,7.8942,7.8305,7.7751,7.6214,7.1753,6.8697,0.0,6.0732,5.7927,5.5914,5.4622,5.7133,6.0893,6.5549,7.0556,7.5666,8.075,8.2746,8.393,8.4512,8.4614,8.485,8.552,8.5587,8.5824,8.644,8.6501,8.6569,8.6704,8.7414,8.7854,8.7989,8.6805,8.6054,8.5817,8.6131,8.5729,8.4606,8.5617,8.5566,8.4614,8.4614,8.4614,8.4614,8.4614,0.0,8.4614,8.4614,8.4614,8.4512,8.3795,8.3147,8.2633,8.2069,8.1304,8.0517,0.0,0.0,0.0,0.0,0.0,0.0,0.0,0.0,3.5234,3.8242,3.832,3.7734,3.679,3.6633,0.0,0.0,0.0,0.0,0.0,0.0,0.0,4.024,4.0713,4.1046,4.1216,4.2092,4.2555,4.2555,0.0,4.4625,4.4825,4.5254,4.532,4.5166,4.5166,4.4971,4.4644,4.4644,4.4415,4.4085,4.4085,4.4085,4.4121,0.0,0.0,0.0,4.6633,4.8225,5.0247,5.4931,5.8859,6.253,6.6629,6.8944,7.0556,7.2394,7.44,7.6474,7.8359,7.9833,8.0567,7.9565,7.8122,7.5475,6.9596,6.6216,6.2861,5.766,5.5372,5.3993,5.2918,5.6154,5.985,6.2383,6.7188,7.2594,7.8219,7.9938,8.1629,8.4275,8.4614,8.4918,8.5723,8.5817,8.6095,8.6839,8.7279,8.7482,8.7482,8.782,8.782,8.7448,8.6366,8.5587,8.5182,8.5367,8.5196,8.4606,8.5836,8.6103,8.554,8.554,8.554,8.5489,8.4864,8.4614,8.4614,8.4614,8.4614,8.4546,8.4208,8.3389,8.2418,8.2688,8.166,8.0276,0.0,0.0,0.0,0.0,0.0,0.0,0.0,3.4648,3.7344,4.0312,4.1328,4.1133,3.957,3.8476,3.75,0.0,0.0,0.0,0.0,0.0,0.0,0.0,0.0,4.0755,4.0811,0.0,0.0,0.0,4.459,0.0,0.0,0.0,0.0,0.0,0.0,0.0,4.3605,4.3512,4.3506,0.0,0.0,0.0,0.0,0.0,0.0,0.0,0.0,4.8862,5.0454,5.3909,5.7169,6.0524,6.4851,6.7842,7.0049,7.1522,7.4322,7.7228,7.8744,8.0627,8.1738,8.0019,7.8082,7.4659,6.7507,6.4002,6.0774,5.55,5.3611,5.2808,5.2401,5.5446,5.8466,5.9857,6.412,6.9413,7.5523,7.7468,7.9769,8.387,8.4647,0.0,8.596,8.6163,8.6569,8.7313,8.7922,8.8158,8.7989,8.7685,8.7245,8.667,8.5926,8.5249,8.4614,8.4614,8.4614,8.4606,8.5566,8.6003,8.6003,8.6003,8.6003,8.5953,8.4988,8.4614,8.4614,8.4614,8.4614,8.4614,8.4614,8.3802,8.274,8.3472,8.2334,8.0529,0.0,0.0,0.0,0.0,0.0,0.0,0.0,3.5508,3.8672,4.2812,4.3437,4.3125,4.2148,4.0625,3.9297,0.0,0.0,0.0,0.0,0.0,0.0,0.0,0.0,0.0,0.0,0.0,0.0,0.0,0.0,0.0,0.0,0.0,0.0,0.0,0.0,0.0,0.0,4.3639,0.0,0.0,0.0,0.0,0.0,0.0,0.0,0.0,0.0,4.7295,4.8118,5.2762,5.4538,5.5558,5.9476,6.4213,6.8581,7.0078,7.2783,7.5647,7.7128,7.9358,8.0777,7.8569,7.6849,7.385,6.6726,6.2794,5.9428,5.528,5.3182,5.2309,5.2966,5.4045,5.5988,5.9543,6.2737,6.7176,7.3863,7.7232,8.0141,8.3219,0.0,0.0,8.6738,8.7414,8.8091,8.8835,8.8965,8.87,8.8023,8.6704,8.5987,8.5892,8.5148,8.4681,8.4614,8.4614,8.4614,8.4614,8.4713,8.4792,8.4792,8.4792,8.4792,8.4766,8.4633,8.4614,0.0,8.4614,8.4614,8.4614,8.4614,8.4133,8.3347,8.2774,8.1969,8.1114,0.0,0.0,0.0,0.0,0.0,0.0,0.0,3.5859,3.8437,4.3789,4.4023,4.3789,4.3945,4.2891,4.1211,0.0,0.0,0.0,0.0,0.0,0.0,0.0,0.0,0.0,0.0,0.0,0.0,0.0,0.0,0.0,0.0,0.0,0.0,0.0,0.0,0.0,0.0,0.0,0.0,0.0,0.0,0.0,0.0,0.0,0.0,0.0,0.0,0.0,4.8808,5.0185,5.1981,5.379,5.4857,5.8273,6.2638,6.6368,7.0606,7.4584,7.7007,7.9214,8.0491,7.9151,7.5781,7.1261,6.5525,6.1122,5.7376,5.4312,5.2784,5.2234,5.3035,5.3854,5.5208,5.7668,5.8675,6.1501,6.8281,7.066,7.3815,7.9498,8.1926,8.4065,8.667,8.7177,8.782,8.9032,8.826,8.7651,8.7347,8.6771,8.6264,8.5817,8.5046,8.4614,8.4614,8.4614,8.4614,8.4606,8.5344,8.5684,8.5684,8.5719,8.5719,8.5634,8.4917,8.4614,0.0,8.4614,8.4614,8.4614,8.4614,8.4167,8.3422,8.2678,8.1934,8.1215,0.0,0.0,0.0,0.0,0.0,2.9961,3.4883,3.6055,3.8281,4.3555,4.3906,4.3945,4.4531,4.3828,4.2344,3.9922,0.0,0.0,0.0,0.0,0.0,0.0,0.0,0.0,0.0,0.0,4.4547,4.5086,0.0,0.0,0.0,0.0,0.0,0.0,0.0,0.0,0.0,0.0,0.0,0.0,0.0,0.0,0.0,0.0,0.0,0.0,0.0,0.0,0.0,0.0,0.0,5.1746,5.1683,5.3501,5.6875,6.2635,6.7967,7.2698,7.5744,7.8243,7.968,7.8333,7.4491,6.9587,6.4179,5.973,5.6116,5.3704,5.2564,5.2244,5.3067,5.3849,5.4827,5.6152,5.6486,5.8827,6.5164,6.7066,7.0263,7.6893,7.9431,8.2035,8.5554,8.6907,8.7989,8.9032,8.7922,8.7144,8.6913,8.6704,8.623,8.5452,8.4884,8.4614,8.4614,8.4614,8.4614,8.4606,8.5464,8.5887,8.5887,8.5921,8.5921,8.5836,8.4995,8.4614,0.0,8.4614,8.4614,8.4614,8.4614,8.4275,8.3727,8.2746,8.2069,8.1494,0.0,0.0,0.0,0.0,0.0,0.0,0.0,3.6172,3.8516,4.1992,4.3164,4.3711,4.3711,4.293,4.2383,4.2344,0.0,0.0,0.0,0.0,0.0,0.0,0.0,0.0,0.0,0.0,4.5163,4.6889,4.6889,4.6889,0.0,0.0,0.0,0.0,0.0,0.0,0.0,0.0,0.0,0.0,0.0,0.0,0.0,0.0,0.0,0.0,0.0,0.0,0.0,0.0,0.0,0.0,0.0,5.0829,5.2238,5.9276,6.4855,6.9424,7.2598,7.5984,7.7936,7.5135,7.2847,6.9508,6.2671,5.8862,5.6102,5.3691,5.2564,5.2244,5.3067,5.3849,5.4655,5.5481,5.7491,6.0814,6.6132,6.8772,7.1819,7.6352,7.8213,8.031,8.3253,8.69,8.91,8.91,8.8395,8.7685,8.6941,8.6196,8.5452,8.4647,8.4614,8.4614,8.4614,8.4614,8.4614,8.4614,8.4606,8.4606,8.4606,8.4606,8.4606,8.4606,8.4614,8.4614,0.0,8.4614,8.4614,8.4614,8.4614,8.4614,8.4411,8.2923,8.2408,8.2205,0.0,0.0,0.0,0.0,0.0,0.0,0.0,3.4297,3.5898,3.9336,4.0039,4.0898,4.2617,4.207,4.2031,4.3203,0.0,0.0,0.0,0.0,0.0,0.0,0.0,0.0,0.0,0.0,4.574,4.6889,4.7466,4.7735,4.7735,4.7735,4.7274,0.0,0.0,0.0,0.0,0.0,0.0,0.0,0.0,0.0,0.0,0.0,0.0,0.0,0.0,0.0,0.0,0.0,0.0,0.0,0.0,0.0,0.0,5.3981,5.8786,6.3702,6.6825,6.8842,6.972,6.8319,6.6157,6.3398,5.9637,5.7316,5.545,5.3594,5.2994,5.2894,5.3141,5.3398,5.4726,5.83,5.8484,6.009,6.5584,6.8581,7.1481,7.4931,8.0276,8.4031,8.4979,8.6602,8.7617,8.7617,8.6907,8.6366,8.6163,8.5418,8.485,8.4614,8.4614,8.4614,8.4614,8.4614,8.4614,8.4614,8.4614,8.4614,8.4614,8.4614,8.4614,8.4614,8.4614,8.4614,8.4614,8.4614,8.4614,8.4614,8.4614,8.4614,8.4411,8.2923,8.2408,8.2205,0.0,0.0,0.0,0.0,0.0,0.0,0.0,3.3476,3.4805,3.7305,3.8203,3.9453,4.1719,4.1211,4.1523,4.3516,0.0,0.0,0.0,0.0,0.0,0.0,0.0,0.0,4.5136,4.5486,4.6407,4.7851,4.8355,4.8889,4.9543,4.9543,4.8735,4.7308,4.6579,0.0,0.0,0.0,0.0,0.0,0.0,0.0,0.0,0.0,0.0,0.0,0.0,0.0,0.0,0.0,0.0,0.0,0.0,0.0,0.0,0.0,5.4032,5.7746,6.2089,6.4285,6.5127,6.4295,6.2499,6.0275,5.7841,5.6167,5.477,5.3459,5.3214,5.3214,5.3214,5.3434,5.473,5.8033,5.8183,5.9635,6.4799,6.7984,7.1312,7.5405,8.0987,8.4505,8.4505,8.596,8.6907,8.6907,8.623,8.5817,8.5817,8.5046,8.4614,8.4614,8.4614,8.4614,8.4614,8.4614,8.4614,8.4614,8.4614,8.4614,8.4614,8.4614,8.4614,8.4614,8.4614,8.4614,0.0,8.4614,8.4614,8.4614,8.4614,8.4614,8.4444,8.3253,8.2644,8.2238,0.0,0.0,0.0,0.0,0.0,0.0,0.0,0.0,0.0,3.5703,3.7266,3.9023,4.082,4.0273,4.0859,4.3476,0.0,0.0,0.0,0.0,0.0,0.0,0.0,0.0,4.5884,4.5902,4.7036,4.9394,4.9586,5.051,5.2077,5.2154,5.0774,4.8274,4.8235,4.7064,0.0,0.0,0.0,0.0,0.0,0.0,0.0,0.0,0.0,0.0,0.0,0.0,0.0,0.0,0.0,0.0,0.0,0.0,0.0,0.0,0.0,0.0,0.0,6.141,6.3008,6.2004,6.0783,5.9164,5.6732,5.5183,0.0,5.3287,5.3104,5.3214,5.3471,5.3995,5.4829,5.6069,5.7402,5.9851,6.4317,6.7727,7.1921,7.7773,8.0885,8.2577,8.2577,8.5087,8.6738,8.6738,8.6095,8.5689,8.5689,8.5012,8.4614,8.4614,8.4614,8.4614,8.4614,8.4614,8.4614,8.4614,8.4614,8.4614,8.4614,8.4614,8.4614,0.0,8.4614,8.4614,8.4614,8.4614,8.4614,8.4614,8.4614,8.4614,8.4512,8.3727,8.2983,8.2306,0.0,0.0,0.0,0.0,0.0,0.0,0.0,0.0,0.0,0.0,3.4961,3.6523,3.8945,3.9023,4.0195,0.0,0.0,0.0,0.0,0.0,0.0,0.0,0.0,0.0,4.5884,4.6437,4.7608,4.9394,5.1356,5.2856,5.3895,5.4511,5.3126,5.0053,4.9394,4.7951,0.0,0.0,0.0,0.0,0.0,0.0,0.0,0.0,0.0,0.0,0.0,4.6663,0.0,0.0,0.0,0.0,0.0,0.0,0.0,0.0,4.937,5.0225,5.173,0.0,5.466,5.3803,5.3792,5.3659,0.0,5.2364,5.2501,5.2307,5.227,5.3225,5.6308,5.5537,5.6285,6.1996,6.2455,6.3584,6.7752,7.271,7.7671,8.2483,8.3667,8.4072,8.4072,8.4715,8.5121,8.5121,8.4986,8.4884,8.4884,8.4681,8.4614,8.4614,8.4614,8.4614,8.4614,8.4614,8.4614,8.4614,8.4614,8.4614,8.4614,8.4614,8.4614,8.4614,8.4614,8.4614,8.4614,8.4614,8.4614,8.4614,8.4614,8.4614,8.4444,8.3152,8.2543,8.2205,0.0,0.0,0.0,0.0,0.0,0.0,0.0,0.0,0.0,0.0,0.0,0.0,0.0,0.0,0.0,0.0,0.0,0.0,0.0,0.0,0.0,0.0,0.0,4.5229,4.5884,4.6698,4.8044,5.0014,5.1741,5.3664,5.5631,5.567,5.4323,5.1741,4.9317,4.7626,0.0,0.0,0.0,0.0,0.0,0.0,0.0,0.0,0.0,0.0,4.4951,4.5791,0.0,4.7679,4.8539,4.9261,0.0,0.0,0.0,0.0,4.8636,4.9003,4.9003,5.1032,5.3004,5.2564,5.3041,5.3529,5.3088,5.2501,5.2097,5.2454,5.227,5.2905,5.5794,5.6198,5.7697,6.2719,6.4255,6.6737,7.2302,7.6222,8.004,8.4106,8.4614,8.4614,8.4614,8.4614,8.4614,8.4614,8.4614,8.4614,8.4614,8.4614,8.4614,8.4614,8.4614,8.4614,8.4614,8.4614,8.4614,8.4614,8.4614,8.4614,8.4614,8.4614,8.4614,8.4614,8.4614,8.4614,8.4614,8.4614,8.4614,8.4614,8.4614,8.4614,8.4512,8.37,8.2956,8.2306,0.0,0.0,0.0,0.0,0.0,0.0,0.0,0.0,0.0,0.0,0.0,0.0,0.0,0.0,0.0,0.0,0.0,0.0,0.0,0.0,0.0,0.0,4.5155,4.5519,4.6243,4.6973,4.8538,5.0899,5.1967,5.4049,5.6983,5.6516,5.5126,5.2813,4.8851,4.7081,0.0,0.0,0.0,0.0,0.0,0.0,0.0,0.0,0.0,0.0,0.0,0.0,0.0,4.749,4.8567,4.9597,5.0098,0.0,0.0,0.0,0.0,0.0,4.859,5.1646,5.462,5.3995,5.463,5.5365,5.5254,5.3639,5.2417,5.3214,5.2858,5.3052,5.528,5.7123,5.9274,6.2183,6.5183,6.9672,7.7003,7.8726,8.0657,8.4457,8.4713,8.4614,8.4614,8.4614,8.4614,8.4614,8.4614,8.4614,8.4614,8.4614,8.4614,8.4614,8.4614,8.4614,8.4614,8.4614,8.4614,8.4614,8.4614,8.4614,8.4614,8.4614,8.4614,8.4614,8.4614,0.0,8.4614,8.4614,8.4614,8.4614,8.4614,8.4614,8.458,8.4478,8.3633,8.2569,0.0,0.0,0.0,0.0,0.0,0.0,0.0,0.0,0.0,0.0,0.0,0.0,0.0,0.0,0.0,0.0,0.0,0.0,0.0,0.0,0.0,4.5947,4.5945,4.6578,4.7902,4.8047,4.9293,5.1736,5.401,5.5747,5.7016,5.8319,5.6467,5.1967,4.9159,4.7928,4.7928,4.8043,0.0,0.0,0.0,0.0,0.0,0.0,0.0,0.0,0.0,0.0,0.0,4.5705,4.7169,4.8855,4.7951,0.0,0.0,0.0,0.0,0.0,4.9838,5.3361,5.56,5.2197,5.2968,5.4399,5.3728,5.3287,5.3251,5.4069,5.4106,5.5574,6.0591,6.0563,6.1444,6.6598,6.9188,7.3055,8.0258,8.0565,8.1553,8.5624,8.5214,8.4614,8.4614,8.4614,8.4614,8.4614,8.4614,8.4614,8.4614,8.4614,8.4614,8.4614,8.4614,8.4614,8.4614,8.4614,8.4614,8.4614,8.4614,8.4614,8.4614,8.4614,8.4614,8.4614,0.0,8.4614,8.4614,8.4614,8.4614,8.4614,8.4614,8.4614,8.4512,8.3896,8.3524,8.3275,0.0,0.0,0.0,0.0,0.0,0.0,0.0,0.0,0.0,0.0,0.0,0.0,0.0,0.0,0.0,0.0,0.0,0.0,0.0,0.0,4.6435,4.6695,4.6688,4.7193,4.828,4.9202,5.0841,5.3313,5.5401,5.714,5.8481,5.7902,5.5353,5.125,4.9074,4.8082,4.8082,4.8082,4.9125,0.0,0.0,0.0,0.0,0.0,0.0,0.0,0.0,0.0,0.0,0.0,4.7237,4.9095,4.8079,0.0,0.0,0.0,0.0,0.0,4.848,5.1746,5.4609,5.3628,5.6198,5.8829,5.8462,5.7398,5.6774,5.8033,5.7593,5.8168,6.2095,6.3583,6.6336,7.2895,7.6004,7.9047,8.3139,8.3496,8.4344,8.706,8.6865,8.6301,8.5643,8.5592,8.5292,8.4633,8.4614,8.4614,8.4614,8.4614,8.4614,8.4614,8.4614,8.4614,8.4614,8.4614,8.4614,8.4614,8.4614,8.4614,8.4614,8.4614,8.4614,8.4614,0.0,8.4614,8.4614,8.4614,8.4614,8.4614,8.4614,8.4614,8.4444,8.3321,8.2915,8.2756,0.0,0.0,0.0,0.0,0.0,0.0,0.0,0.0,0.0,0.0,0.0,0.0,0.0,0.0,0.0,0.0,0.0,0.0,0.0,4.6172,4.6585,4.7168,4.7388,4.8119,4.9409,5.0522,5.2373,5.5093,5.6624,5.8109,5.9491,5.7288,5.444,5.1097,4.944,4.8586,4.8394,4.8394,4.9279,0.0,0.0,0.0,0.0,0.0,0.0,0.0,0.0,0.0,0.0,0.0,0.0,0.0,0.0,0.0,0.0,4.8223,4.7406,4.7259,4.803,5.0682,5.3691,5.5658,5.9098,6.2205,6.316,6.1655,6.0627,6.2622,6.2034,6.1802,6.3857,6.6998,7.1347,7.7668,8.1075,8.357,8.5489,8.6043,8.6855,8.8423,8.8357,8.7838,8.6913,8.6817,8.6316,8.5118,8.5266,8.5222,8.4606,8.4864,8.489,8.4606,8.4614,8.4614,8.4614,8.4614,8.4614,8.4614,8.4614,8.4614,8.4614,8.4614,8.4614,8.4614,8.4614,8.4614,8.4614,8.4614,8.4614,8.4614,8.4614,8.4614,8.4444,8.3152,8.2543,8.2205,0.0,0.0,0.0,0.0,0.0,0.0,0.0,0.0,0.0,0.0,0.0,0.0,0.0,0.0,0.0,0.0,0.0,0.0,0.0,4.5859,4.6585,4.7168,4.7964,4.9802,5.2771,5.2184,5.3449,5.6824,5.7896,5.8537,5.8743,5.7655,5.5285,5.1984,5.0944,5.0053,4.9317,4.9317,4.9861,5.0707,5.0687,0.0,0.0,0.0,0.0,0.0,0.0,0.0,0.0,0.0,0.0,0.0,0.0,0.0,4.9647,4.9454,4.8306,4.7783,5.0802,5.2417,5.3948,5.7042,5.8646,6.0444,6.4261,6.3783,6.3453,6.6599,6.7187,6.7357,6.8311,7.1505,7.5097,7.8436,8.0993,8.3702,8.7056,8.7207,8.7742,8.9652,8.8863,8.8156,8.8065,8.8065,8.7561,8.6365,8.7316,8.6961,8.4713,8.5659,8.576,8.4633,8.4614,8.4614,8.4614,8.4614,8.4614,8.4614,8.4614,8.4614,8.4614,8.4614,8.4614,8.4614,8.4614,8.4614,8.4614,8.4614,8.4614,8.4614,8.4614,8.4614,8.4512,8.3727,8.2983,8.2306,0.0,0.0,0.0,0.0,0.0,0.0,0.0,0.0,0.0,0.0,0.0,0.0,0.0,0.0,0.0,0.0,0.0,0.0,0.0,4.5312,4.5998,4.7168,4.8042,4.9488,5.1602,5.3356,5.5665,5.855,5.9129,5.9212,5.8794,5.6812,5.4619,5.2203,5.0688,4.9809,4.9394,4.9394,4.9762,5.033,5.033,0.0,0.0,0.0,0.0,0.0,0.0,0.0,0.0,0.0,4.536,4.6966,4.6278,4.7682,4.9317,4.7765,4.6838,4.6718,4.848,5.1379,5.4473,5.6712,5.9674,6.274,6.5278,6.6609,6.8087,7.0684,7.1727,7.2422,7.323,7.5781,7.8489,8.0636,8.3828,8.6698,8.8489,8.9499,9.0311,9.1024,9.0716,9.0127,8.939,8.9327,8.8819,8.7608,8.7929,8.7792,8.6865,8.6561,8.6167,8.5735,8.4988,8.4969,8.571,8.571,8.6103,8.6793,8.5318,8.4614,8.4614,8.4614,8.4614,8.4614,8.4614,8.4614,8.4614,8.4614,8.4614,8.4614,8.4614,8.4309,8.3828,8.3084,8.234,8.1596,0.0,0.0,0.0,0.0,0.0,0.0,0.0,0.0,0.0,0.0,0.0,0.0,0.0,0.0,0.0,0.0,0.0,0.0,4.4492,4.4844,4.5647,4.7129,4.8042,4.9295,5.102,5.3862,5.6434,5.8698,5.9524,5.9305,5.803,5.6211,5.4562,5.3027,5.1167,5.0435,5.0543,4.9882,4.9811,5.0105,4.9955,4.8702,0.0,0.0,0.0,0.0,0.0,0.0,0.0,0.0,4.4966,4.6269,4.5948,4.7388,4.8903,4.7462,4.7241,4.7572,4.8113,5.1086,5.4583,5.6957,6.0548,6.4123,6.6646,6.8868,7.1256,7.4299,7.5539,7.6387,7.7451,7.8809,8.0404,8.226,8.5527,8.8206,8.9253,9.0592,9.151,9.1767,9.1803,9.1472,9.0657,9.0578,9.0067,8.8841,8.8754,8.8446,8.7677,8.6841,8.6252,8.5861,8.5421,8.5566,8.639,8.6769,8.7375,8.8178,8.6512,8.554,8.517,8.4758,8.4614,8.4614,8.4614,8.4614,8.4614,8.4614,8.4614,8.4614,8.4614,8.4167,8.3422,8.2678,8.1934,8.1215,0.0,0.0,0.0,0.0,0.0,0.0,0.0,0.0,0.0,0.0,0.0,0.0,0.0,0.0,0.0,0.0,0.0,0.0,4.3633,4.4492,4.5647,4.7129,4.8003,4.9524,5.1779,5.3587,5.5318,5.7006,5.8876,5.8559,5.6168,5.605,5.5525,5.4572,5.2747,5.239,5.3028,5.0979,5.0111,5.0043,4.969,4.8776,4.7619,0.0,0.0,0.0,0.0,0.0,0.0,0.0,4.47,4.5104,4.7526,4.8296,4.8489,4.926,5.0105,5.0802,5.0802,5.2003,5.4205,5.8242,6.1056,6.4007,6.843,7.0298,7.2483,7.7265,7.8433,7.9103,8.0718,8.0351,8.0608,8.3014,8.5436,8.7565,8.9179,9.0097,9.0922,9.1693,9.1803,9.1803,9.1803,9.1803,9.1286,9.0087,9.0006,8.8971,8.655,8.6439,8.5887,8.466,8.576,8.639,8.6414,8.7585,8.8201,8.8223,8.8223,8.7561,8.6365,8.517,8.4606,8.4614,8.4614,8.4614,8.4614,8.4614,8.4614,8.4614,8.4614,8.4167,8.3389,8.2678,8.1934,8.1215,0.0,0.0,0.0,0.0,0.0,0.0,0.0,0.0,0.0,0.0,0.0,0.0,0.0,0.0,0.0,0.0,0.0,0.0,4.2734,4.3594,4.4476,4.5415,4.6804,4.7833,4.836,5.1197,5.415,5.715,5.771,5.7042,5.5281,5.5222,5.4395,5.2879,5.2917,5.2407,5.1395,5.0776,5.0189,4.9728,5.0174,4.9113,4.7269,0.0,0.0,0.0,0.0,0.0,0.0,0.0,0.0,0.0,4.5544,4.7352,4.9013,4.8076,4.9214,5.0802,5.0802,5.3628,5.7262,6.0162,6.4244,6.813,7.0538,7.2316,7.4853,7.9739,8.0947,8.1452,8.25,8.2463,8.2774,8.4058,8.5783,8.7565,8.9179,9.0097,9.0922,9.1693,9.1803,9.1803,9.1803,9.1803,9.1657,9.1286,9.1249,9.0598,8.9014,8.8133,8.7127,8.5877,8.5395,8.5962,8.7654,8.802,8.9035,9.0716,8.9883,8.8402,8.639,8.6028,8.5387,8.4614,8.4614,8.4614,8.4614,8.4614,8.4614,8.4614,8.4614,8.3836,8.2712,8.2475,8.1596,8.0479,0.0,0.0,0.0,0.0,0.0,0.0,0.0,0.0,0.0,0.0,3.8133,3.9206,0.0,0.0,0.0,0.0,0.0,0.0,0.0,4.3099,4.3876,4.4606,4.5916,4.7036,4.786,5.0543,5.2786,5.4611,5.5293,5.4787,5.3268,5.4287,5.4293,5.3555,5.443,5.385,5.2164,5.1671,5.0794,4.9783,5.0468,4.9856,4.8473,0.0,0.0,0.0,0.0,0.0,0.0,0.0,0.0,0.0,4.459,4.6067,4.7645,4.7599,4.9324,5.1573,5.2858,5.6235,6.0236,6.3649,6.7288,7.0665,7.2992,7.4988,7.7378,8.1037,8.2258,8.292,8.3728,8.3858,8.4132,8.4939,8.6151,8.7565,8.9179,8.9803,9.0555,9.1657,9.1803,9.1803,9.1803,9.1803,9.1803,9.1803,9.136,9.0754,9.0026,8.8841,8.7861,8.7151,8.6865,8.7422,8.8884,8.939,9.0364,9.1803,9.1041,8.9703,8.7815,8.7328,8.6731,8.6012,8.5515,8.504,8.4614,8.4614,8.4614,8.4614,8.4614,8.37,8.2408,8.2408,8.146,8.025,0.0,0.0,0.0,0.0,0.0,0.0,0.0,0.0,0.0,0.0,3.8689,3.9883,0.0,0.0,0.0,0.0,0.0,0.0,0.0,4.2924,4.3724,4.4473,4.5454,4.7098,4.9476,5.0928,5.1351,5.0707,5.2318,5.2241,5.0745,5.3331,5.4891,5.555,5.6335,5.5758,5.4106,5.2744,5.1274,4.9896,5.042,5.0536,5.0243,4.8436,0.0,0.0,0.0,0.0,0.0,0.0,0.0,0.0,4.4452,4.481,4.536,4.7562,5.0068,5.2795,5.5941,5.9208,6.2915,6.7871,7.0356,7.2419,7.5645,7.7843,7.9708,8.1337,8.2643,8.3748,8.4572,8.4756,8.5049,8.5783,8.6518,8.7528,8.9069,8.929,8.984,9.14,9.1583,9.162,9.1693,9.1693,9.173,9.1803,9.0774,9.0107,9.0006,8.8949,8.8277,8.8095,8.9249,8.9868,8.9877,9.106,9.1675,9.1803,9.1803,9.123,9.0107,8.8906,8.829,8.8133,8.6937,8.5786,8.4766,8.4633,8.4546,8.4512,8.458,8.37,8.2408,8.2537,8.1673,8.0619,0.0,0.0,0.0,0.0,0.0,0.0,0.0,0.0,0.0,0.0,0.0,0.0,0.0,0.0,0.0,0.0,0.0,0.0,0.0,4.292,4.3719,4.4454,4.6511,4.8483,5.0361,5.0087,5.0202,5.0707,5.1697,5.1664,5.0741,5.359,5.4645,5.4212,5.4085,5.3225,5.1788,4.9613,4.8445,4.8131,4.8928,4.866,4.7763,4.7346,4.6465,0.0,0.0,0.0,0.0,0.0,0.0,0.0,4.4452,4.5572,4.6672,4.7223,5.0021,5.3508,5.6113,5.96,6.3857,6.9398,7.3717,7.6931,7.8109,7.9371,8.0339,8.0511,8.2577,8.4609,8.538,8.6077,8.6537,8.6701,8.6885,8.7344,8.8316,8.8463,8.883,8.9803,8.9913,9.017,9.0812,9.0849,9.1106,9.173,9.1583,9.1003,9.0046,8.9745,8.8913,8.7316,8.8127,8.8728,8.9063,8.9938,9.0868,9.1803,9.1803,9.1657,9.1379,9.0148,8.9114,8.8133,8.6972,8.6336,8.6022,8.5022,8.4242,8.3795,8.4377,8.37,8.2503,8.3404,8.3152,8.2481,0.0,0.0,0.0,0.0,0.0,0.0,0.0,0.0,0.0,0.0,0.0,0.0,0.0,0.0,0.0,0.0,0.0,0.0,0.0,4.2533,4.3808,4.4978,4.6643,4.7966,4.8856,4.8245,4.8327,4.9159,4.9448,5.0015,5.0992,5.3511,5.4935,5.5254,5.4707,5.3489,5.1707,4.9654,4.8416,4.7864,4.8739,4.8727,4.8063,4.7331,4.6405,4.5357,4.4178,0.0,0.0,0.0,0.0,0.0,0.0,0.0,4.5581,4.6746,4.9177,5.2344,5.6308,6.0627,6.5513,7.1839,7.5804,7.8243,7.8386,7.9537,8.0548,8.0436,8.2323,8.4278,8.5086,8.5894,8.6554,8.6958,8.6978,8.7288,8.8096,8.8206,8.85,8.929,8.94,8.9546,8.9987,9.0024,9.0207,9.0629,9.0665,9.0393,8.9759,8.9721,8.9216,8.8174,8.857,8.8866,8.9084,8.9503,9.0023,9.0665,9.1033,9.1436,9.1785,9.1154,9.0188,8.9028,8.7827,8.6786,8.588,8.517,8.4335,8.3621,8.4736,8.4353,8.3295,8.4089,8.3921,8.3423,0.0,0.0,0.0,0.0,0.0,0.0,0.0,0.0,0.0,0.0,0.0,0.0,0.0,0.0,0.0,0.0,0.0,0.0,0.0,4.2375,4.4047,4.5744,4.6509,4.7025,4.7252,4.6619,4.6809,4.7869,4.7201,4.8733,5.2319,5.366,5.5254,5.6946,5.576,5.4186,5.2261,5.0278,4.8777,4.7735,4.839,4.864,4.8513,4.7182,4.6176,4.531,4.4037,4.3538,4.3506,4.3506,0.0,0.0,0.0,0.0,4.391,4.6058,4.7865,5.0298,5.5537,6.1263,6.7328,7.4095,7.7023,7.8241,7.8155,7.9338,8.0496,8.064,8.2143,8.3601,8.4278,8.5159,8.6004,8.6701,8.6746,8.6933,8.7592,8.754,8.7742,8.8599,8.869,8.8818,8.9162,8.9179,8.9253,8.94,8.94,8.94,8.94,8.94,8.9326,8.9216,8.9326,8.9326,8.9179,8.9326,8.94,8.94,9.006,9.0812,9.1583,9.1436,9.092,9.0027,8.8835,8.7317,8.5682,8.5398,8.4698,8.3848,8.5261,8.5162,8.4275,8.4792,8.462,8.424,0.0,0.0,0.0,0.0,0.0,0.0,0.0,0.0,0.0,0.0,4.058,4.1172,4.1055,4.0351,0.0,0.0,0.0,0.0,4.1692,0.0,0.0,4.6658,4.6851,4.7444,4.8596,4.71,4.7286,4.9329,4.7417,4.9935,5.6545,5.4727,5.5137,5.7197,5.4233,5.2539,5.1669,4.8238,4.6475,4.5919,4.5732,4.5671,4.5639,4.5098,4.4643,4.4207,4.4026,4.3758,4.3506,4.3506,4.3506,0.0,0.0,0.0,4.369,4.4737,4.6168,4.8223,5.183,5.9954,6.8775,7.4585,7.7317,7.8714,7.9369,7.9743,8.0117,8.0797,8.2235,8.3418,8.3528,8.4792,8.5837,8.593,8.5719,8.5561,8.5669,8.4852,8.461,8.5719,8.585,8.6535,8.8192,8.8353,8.8647,8.9363,8.94,8.94,8.94,8.94,8.9069,8.839,8.9033,8.9069,8.839,8.9033,8.94,8.94,8.951,8.9987,9.0739,9.0024,8.9988,9.0447,8.9251,8.8182,8.7223,8.6151,8.5256,8.4625,8.5455,8.5322,8.4765,8.579,8.6121,8.6099,0.0,0.0,0.0,0.0,0.0,0.0,0.0,0.0,0.0,0.0,0.0,4.1016,4.0508,4.0117,0.0,0.0,0.0,0.0,4.1916,4.3062,0.0,4.5398,4.5721,4.6166,4.6772,4.5616,4.5714,4.714,4.6013,4.8975,5.5723,5.5096,5.7254,6.1433,5.7146,5.4885,5.4002,4.9086,4.6743,4.6269,4.5625,4.6631,4.8187,4.5584,4.5774,4.7082,4.4613,4.3639,4.3506,4.3506,4.3506,4.3506,4.3506,0.0,0.0,0.0,4.5186,4.7929,5.484,6.075,6.6659,7.367,7.6313,7.7524,7.8809,7.9486,7.989,8.0241,8.1269,8.2317,8.3234,8.3985,8.4609,8.5049,8.5365,8.5337,8.4705,8.46,8.4512,8.437,8.4891,8.565,8.65,8.7155,8.7675,8.8042,8.8042,8.8042,8.8042,8.8042,8.7895,8.7545,8.7858,8.7895,8.7545,8.7858,8.8262,8.872,8.872,8.9143,8.9913,8.9546,8.984,9.0483,8.8851,8.7693,8.6915,8.6358,8.5584,8.4804,8.6025,8.6125,8.5723,8.6476,8.6739,8.6757,0.0,0.0,0.0,0.0,0.0,0.0,0.0,0.0,0.0,0.0,0.0,4.0937,4.0312,0.0,0.0,0.0,0.0,0.0,4.1931,0.0,0.0,0.0,4.4612,4.4848,4.4966,4.4339,4.4346,4.5053,4.4829,4.8333,5.5317,5.5941,5.9845,6.6187,6.096,5.7705,5.5839,5.0894,4.8553,4.8115,4.7367,4.864,5.073,4.8675,4.9396,5.0963,4.6819,4.5195,4.4864,0.0,0.0,0.0,0.0,4.3506,0.0,0.0,0.0,4.7095,5.539,5.9281,6.2756,7.0293,7.3523,7.5359,7.7231,7.8259,7.8972,7.9412,7.9984,8.0901,8.25,8.3124,8.3601,8.4205,8.4735,8.4771,8.391,8.384,8.3743,8.3457,8.3924,8.4564,8.5331,8.6225,8.6775,8.6978,8.6978,8.6978,8.6978,8.6978,8.6978,8.6978,8.6978,8.6978,8.6978,8.6978,8.7325,8.7912,8.7912,8.8316,8.9069,8.8886,8.9216,8.9914,8.8411,8.7307,8.6601,8.6563,8.6063,8.5417,8.6538,8.6829,8.6603,8.6898,8.6978,8.6978,0.0,0.0,0.0,0.0,0.0,0.0,0.0,0.0,0.0,0.0,0.0,0.0,4.1133,4.0391,4.0234,4.1054,0.0,0.0,0.0,0.0,0.0,0.0,0.0,0.0,4.4606,4.4211,4.4241,4.4735,4.4709,4.9187,5.7813,5.785,6.2407,7.0337,6.4528,5.9649,5.5583,5.3165,5.1958,5.16,5.1249,5.0911,5.1102,5.5339,5.6243,5.4883,5.1583,4.9884,0.0,0.0,0.0,0.0,0.0,4.3506,4.3506,0.0,0.0,0.0,4.8976,5.3015,5.7384,6.3221,6.8128,7.2151,7.4536,7.5711,7.6754,7.8332,7.8699,7.9213,8.0828,8.2353,8.3418,8.3454,8.3209,8.3023,8.2986,8.1182,8.0643,8.2682,8.2096,8.262,8.5523,8.584,8.6187,8.6941,8.6978,8.6978,8.6978,8.6978,8.6978,8.6978,8.6978,8.6978,8.6978,8.6978,8.7014,8.7051,8.7051,8.7472,8.8243,8.7472,8.7582,8.8316,8.8227,8.7715,8.6981,8.6981,8.691,8.6892,8.698,8.6997,8.6981,8.6997,8.6978,8.6978,0.0,0.0,0.0,0.0,0.0,0.0,0.0,0.0,0.0,0.0,0.0,0.0,0.0,4.0937,4.0859,4.1172,4.0853,0.0,0.0,0.0,0.0,0.0,0.0,0.0,4.4219,4.3849,4.3778,4.3938,4.3938,4.7434,5.4179,5.5207,5.7876,6.1865,6.2127,6.1545,6.0033,5.4442,5.23,5.2679,5.2498,5.4364,5.7188,5.6784,5.8465,6.0505,5.6198,0.0,0.0,0.0,0.0,0.0,4.4415,4.3571,4.2727,4.2727,4.3461,4.5039,4.8609,5.1032,5.3995,6.0162,6.4237,6.7467,7.0389,7.3266,7.5506,7.6093,7.7488,7.8772,7.936,8.0791,8.2039,8.2553,8.2966,8.2954,8.2212,8.1904,8.1733,8.1794,8.2128,8.274,8.3829,8.5072,8.593,8.6224,8.6701,8.6978,8.6978,8.6978,8.6978,8.6978,8.6978,8.6978,8.6978,8.6978,8.6978,8.6978,8.6978,8.7124,8.7435,8.7124,8.7178,8.7435,8.7435,8.7288,8.6978,8.6978,8.6978,8.6978,8.6978,8.6978,8.6978,8.6978,8.6978,8.6978,0.0,0.0,0.0,0.0,0.0,0.0,0.0,0.0,4.128,4.0265,0.0,0.0,0.0,0.0,4.1931,4.1931,4.1804,4.166,4.1561,4.2576,0.0,0.0,0.0,0.0,4.4204,4.3734,4.3506,4.3506,4.3763,4.6406,5.1216,5.2821,5.5023,5.7629,5.8773,6.0118,6.1243,5.6242,5.4388,5.4861,5.5647,5.7763,6.0613,6.1532,6.3487,6.5191,0.0,0.0,0.0,0.0,0.0,0.0,4.6425,4.4415,4.269,4.269,4.3644,4.5104,4.7031,4.8719,5.1389,5.7299,6.0027,6.2597,6.7724,7.077,7.2863,7.4221,7.624,7.7928,7.8479,7.947,8.0534,8.1636,8.226,8.2395,8.1958,8.2033,8.1989,8.1573,8.1895,8.2394,8.3012,8.4251,8.5233,8.5747,8.6297,8.6738,8.6978,8.6978,8.6978,8.6978,8.6978,8.6978,8.6978,8.6978,8.6978,8.6978,8.6978,8.6978,8.6978,8.6978,8.6978,8.6978,8.6978,8.6978,8.6978,8.6978,8.6978,8.6978,8.6978,8.6978,8.6978,8.6978,8.6978,8.6978,0.0,0.0,0.0,0.0,0.0,0.0,0.0,0.0,4.2842,4.1284,0.0,0.0,0.0,0.0,0.0,4.3443,4.3291,4.3244,4.3199,4.3154,0.0,0.0,0.0,0.0,4.4541,4.3878,4.3506,4.3506,4.4268,4.6324,4.9537,5.1106,5.4399,5.8756,5.4902,5.52,5.8579,5.8347,5.8208,5.8368,6.0697,6.0983,6.0973,6.9781,7.1453,0.0,6.7283,6.5668,0.0,5.7824,0.0,0.0,0.0,4.6104,4.3543,4.3506,4.4085,4.459,0.0,0.0,0.0,5.4153,5.5365,5.7714,6.6476,6.7944,6.8618,7.2694,7.4771,7.6423,7.8185,7.8516,7.9066,8.0681,8.0938,8.1232,8.2003,8.1246,8.1018,8.2051,8.1264,8.1362,8.3188,8.3381,8.4058,8.5637,8.5783,8.6151,8.6941,8.6978,8.6978,8.6978,8.6978,8.6978,8.6978,8.6978,8.6978,8.6978,8.6978,8.6978,8.6978,8.6978,8.6978,8.6978,8.6978,8.6978,8.6978,8.6978,8.6978,8.6978,8.6978,8.6978,8.6978,8.6978,8.6978,8.6978,0.0,0.0,0.0,0.0,0.0,4.3063,4.2709,4.3069,4.3226,0.0,0.0,0.0,4.3547,4.395,4.4263,4.4205,4.416,4.3849,4.3177,4.3657,4.3852,4.3587,4.4014,4.4093,4.3815,4.3597,4.3506,4.3506,4.3726,4.4901,4.6957,4.7966,4.9811,5.2281,5.2307,5.2898,5.381,5.2522,5.4991,5.9675,5.8613,6.1805,6.7371,6.8726,0.0,0.0,0.0,7.0293,6.8017,0.0,6.0933,5.5574,0.0,0.0,4.5002,4.3836,4.4892,4.6122,4.4737,0.0,0.0,0.0,0.0,0.0,0.0,6.0052,6.3062,6.8288,7.0183,7.2092,7.6056,7.679,7.7341,7.8993,7.9727,8.022,8.044,8.0691,8.0991,8.131,8.1569,8.1959,8.25,8.3051,8.3821,0.0,8.5453,8.6151,8.6941,8.6978,8.6978,8.6978,8.6978,8.6978,8.6978,8.6978,8.6978,8.6978,8.6978,8.6978,8.6978,8.6978,8.6978,8.6978,8.6978,8.6978,8.6978,8.6978,8.6978,8.6978,8.6978,8.6978,8.6978,8.6978,8.6978,8.6978,0.0,0.0,0.0,0.0,4.506,4.5265,4.5353,4.5724,4.5857,0.0,0.0,0.0,4.5932,4.7313,4.7792,4.6661,4.6217,4.5634,4.4744,4.4778,4.4657,4.4293,4.4618,4.471,4.4463,4.3984,4.3795,4.4011,4.3653,4.3983,4.4938,4.5727,4.6792,4.8095,4.8673,4.9701,5.0849,4.883,5.2013,5.8547,6.0199,6.3759,6.8311,7.0403,7.2532,0.0,0.0,0.0,7.1872,7.022,6.4934,0.0,0.0,4.9407,4.7609,4.5993,4.6975,4.837,4.7095,4.7672,4.8884,4.9874,0.0,0.0,5.5269,5.7068,5.9318,6.502,6.7357,6.9376,7.2532,7.3634,7.4661,7.6276,7.7231,7.8222,7.9596,8.0204,8.0498,8.0498,8.1195,8.1709,8.1709,8.2443,8.3251,8.4058,8.4829,8.5783,8.6941,8.6978,8.6978,8.6978,8.6978,8.6978,8.6978,8.6978,8.6978,8.6978,8.6978,8.6978,8.6978,8.6978,8.6978,8.6978,8.6978,8.6978,8.6978,8.6978,8.6978,8.6978,8.6978,8.6978,8.6978,8.6978,8.6978,8.6978,0.0,0.0,4.5985,4.7011,4.7812,4.8301,4.8402,4.9223,4.9574,0.0,4.8908,4.9335,5.0303,5.2262,5.2606,5.0298,4.9048,4.8043,4.7235,4.6278,4.5697,4.5555,4.5329,4.537,4.5574,4.4729,4.4382,4.4553,4.3938,4.3579,4.3506,4.4232,4.4966,4.559,4.4892,4.625,4.9003,4.7288,5.0188,5.6429,6.2952,6.5778,6.6793,0.0,7.5028,7.4294,7.5726,7.5763,7.4903,7.3105,6.7577,0.0,0.0,5.4179,5.1463,4.9324,5.0031,0.0,5.0261,5.0655,0.0,0.0,5.161,0.0,5.6737,5.6675,5.6833,6.2083,6.4874,6.6746,6.7981,6.9545,7.1123,7.2642,7.3817,7.5674,7.9029,7.9596,7.9669,7.9669,8.0388,8.0901,8.1012,8.1636,8.2443,8.3344,8.4168,8.5233,8.6647,8.6721,8.6757,8.6885,8.6885,8.6904,8.6978,8.6978,8.6978,8.6978,8.6978,8.6978,8.6978,8.6978,8.6978,8.6978,8.6978,8.6978,8.6978,8.6978,8.6978,8.6978,8.6978,8.6978,8.6978,8.6978,8.6978,8.6997,0.0,4.6383,4.6672,4.8261,4.8949,4.9543,5.025,5.0831,5.1374,5.1779,5.27,5.4139,5.6319,5.5206,5.4331,5.4439,5.1861,4.9822,4.8971,4.7509,4.623,4.525,4.5764,4.5545,4.4378,4.5438,4.5275,4.3726,4.4232,4.4121,4.3506,4.3653,4.3836,4.3947,4.38,4.4791,4.6801,4.9601,5.3419,5.7666,5.9061,6.4237,7.1248,7.2679,7.4625,7.6628,7.6959,7.6959,7.6408,7.3472,7.0587,6.7173,0.0,0.0,5.7593,5.2711,5.3335,5.5159,5.3067,5.3555,5.43,5.2831,0.0,0.0,5.1877,5.2601,5.4363,5.676,5.7641,5.922,6.3233,6.5362,6.6806,6.776,7.0206,7.3362,7.7252,7.8405,7.8809,7.8809,7.9543,8.0277,8.0938,8.1158,8.1856,8.3271,8.4168,8.4756,8.5049,8.5086,8.538,8.6004,8.604,8.6334,8.6978,8.6978,8.6978,8.6978,8.6978,8.6978,8.6978,8.6978,8.6978,8.6978,8.6978,8.6978,8.6978,8.6978,8.6978,8.6978,8.6978,8.6978,8.6978,8.6978,8.6978,8.6947,4.6894,4.7031,4.766,4.9786,5.0474,5.1312,5.301,5.3441,5.418,5.5741,5.755,5.8591,5.8201,5.7797,5.7111,5.6033,5.3678,5.1607,5.0159,4.8432,4.7069,4.6056,4.5979,4.6001,4.6098,4.6113,4.586,4.5296,4.4883,4.4305,4.3506,4.3506,4.435,4.5847,4.5048,4.6507,4.9618,5.0875,5.3702,5.774,6.1814,6.732,7.3266,7.4918,7.6533,7.7949,7.7949,7.7656,7.6738,7.3105,7.1101,0.0,0.0,6.2829,6.1961,0.0,5.7629,5.8657,5.6235,5.6161,5.6712,5.6271,0.0,0.0,0.0,5.3765,5.3985,5.6822,5.6418,5.6576,5.9795,6.1435,6.2646,6.387,6.6769,6.9729,7.2165,7.4955,7.69,7.7304,7.8075,7.8883,7.9727,8.0167,8.1085,8.27,8.3177,8.3765,8.4572,8.4609,8.4976,8.5764,8.58,8.6187,8.6978,8.6978,8.6978,8.6978,8.6978,8.6978,8.6978,8.6978,8.6978,8.6978,8.6978,8.6978,8.7014,8.7435,8.7619,8.7582,8.7178,8.6978,8.7051,8.7472,8.7228,8.6718,4.7382,4.7567,4.8467,5.0929,5.195,5.3117,5.5287,5.589,5.6995,5.9606,6.2137,6.2909,6.0803,6.1437,6.1306,5.9475,5.6816,5.4587,5.302,5.0658,4.8942,4.8029,4.7007,4.6991,4.8078,4.6821,4.6327,4.6636,4.536,4.4378,4.3726,4.3726,4.5296,4.8039,4.7058,4.915,5.3361,5.238,5.4719,5.971,6.6426,7.022,7.229,7.6166,7.7671,7.7745,7.8369,7.8148,7.6995,7.3252,7.1564,7.0403,6.688,6.6182,0.0,0.0,0.0,0.0,0.0,0.0,0.0,0.0,0.0,5.7971,0.0,0.0,0.0,5.7545,5.6638,0.0,0.0,0.0,0.0,6.0199,0.0,0.0,0.0,7.0073,0.0,7.4551,7.5564,7.6592,7.7781,7.8479,7.9653,8.1615,8.1158,8.1709,8.3801,8.3911,8.4425,8.5527,8.5563,8.604,8.6978,8.6978,8.6978,8.6978,8.6978,8.6978,8.6978,8.6978,8.6978,8.7014,8.7178,8.7234,8.7271,8.8096,8.8426,8.839,8.7711,8.7455,8.7511,8.7921,8.7595,8.7006,4.8078,4.784,4.8306,5.0874,5.2933,5.4552,5.5554,5.6903,5.896,6.2127,6.4717,6.7174,6.9512,6.8148,6.8041,7.0434,6.4332,6.0548,6.0966,5.6478,5.319,5.1904,5.0403,4.9003,4.7764,4.7594,4.6665,4.4957,4.4773,4.4663,4.4553,4.4553,4.5507,4.7296,4.8609,5.1069,5.4363,5.5611,6.0517,6.7687,6.9302,6.8054,0.0,7.1959,7.4272,7.4639,7.7561,7.8552,7.8038,0.0,7.4426,7.3546,0.0,6.9376,7.0477,0.0,0.0,0.0,0.0,0.0,0.0,0.0,6.3392,0.0,0.0,0.0,5.7655,5.4535,0.0,0.0,0.0,0.0,0.0,0.0,0.0,0.0,6.1117,6.3576,6.6402,6.9376,7.105,7.2848,7.5087,7.538,7.6754,7.9853,7.7378,7.7399,8.1232,8.1415,8.2443,8.4682,8.4756,8.549,8.6978,8.6978,8.6978,8.6978,8.6978,8.6978,8.6978,8.6978,8.6978,8.7014,8.7766,8.8059,8.8133,8.8923,8.9253,8.9253,8.9143,8.9143,8.8999,8.8038,8.8282,8.8874,4.8263,4.8396,4.9134,5.1585,5.2973,5.4347,5.6141,6.0782,6.4134,6.4308,6.7665,7.0562,7.1873,6.9879,6.9257,7.1295,0.0,6.4326,0.0,0.0,5.6323,5.4322,5.2189,5.0892,5.0475,4.9563,4.8332,4.6792,4.5847,4.5149,4.47,4.47,4.6571,5.0031,5.2134,5.5658,6.0052,6.0224,6.2242,6.5472,6.6806,6.6035,0.0,7.4404,7.7928,7.8002,7.8442,7.8883,7.8715,0.0,7.3817,0.0,0.0,0.0,0.0,0.0,0.0,0.0,0.0,0.0,0.0,0.0,0.0,0.0,5.8657,0.0,5.7581,0.0,0.0,0.0,0.0,0.0,0.0,0.0,5.6528,0.0,0.0,0.0,6.1777,0.0,0.0,0.0,7.1835,7.2129,7.3266,7.6071,7.4992,7.5579,7.8683,8.0225,8.1672,8.3141,8.4095,8.5159,8.6297,8.6775,8.6978,8.6978,8.6978,8.6978,8.6978,8.6978,8.6978,8.7014,8.7839,8.8206,8.8316,8.9546,9.0097,9.0134,9.0629,9.0207,8.9383,8.9349,8.9232,8.9018,4.8913,4.9107,4.9787,5.195,5.321,5.4936,5.8081,6.3505,6.7104,6.6678,7.0036,7.3059,7.4599,7.2845,0.0,0.0,7.2258,6.9283,0.0,0.0,6.0501,5.8793,5.5251,0.0,0.0,5.1797,4.9991,4.8673,4.7021,4.6177,4.603,4.5581,4.7709,5.2134,5.4997,5.9183,6.4139,6.4371,6.5508,6.7197,6.7967,6.8568,6.983,7.6937,8.0351,8.1158,7.9764,7.9617,7.947,7.5249,7.4074,0.0,7.3156,0.0,0.0,0.0,0.0,0.0,6.7724,0.0,0.0,0.0,0.0,0.0,0.0,0.0,0.0,0.0,0.0,0.0,0.0,0.0,0.0,0.0,0.0,5.5978,0.0,5.5207,0.0,0.0,0.0,0.0,0.0,6.8385,6.9376,7.2459,7.1908,7.3046,7.6775,7.8904,8.0681,8.215,8.3544,8.4756,8.5783,8.6371,8.6775,8.6978,8.6978,8.6978,8.6978,8.6978,8.6978,8.7051,8.8096,8.8536,8.8647,9.0262,9.0922,9.0996,9.1583,9.1106,9.0098,9.0356,9.0108,8.9663,5.0406,5.0014,4.9928,5.1605,5.3984,5.7239,6.2084,6.3681,6.5678,6.9466,7.1431,7.4511,0.0,0.0,0.0,0.0,0.0,7.6544,7.6331,0.0,6.6566,6.6791,6.0662,5.7423,0.0,5.3954,5.1163,4.9574,4.7893,4.7893,4.9427,4.7783,4.881,5.2171,5.6161,6.0199,6.4323,6.7393,7.2349,7.7965,7.6387,7.8112,8.1232,0.0,7.8699,8.2039,8.1232,0.0,0.0,7.8023,7.6628,0.0,0.0,0.0,0.0,0.0,0.0,0.0,0.0,0.0,0.0,6.5718,0.0,0.0,0.0,0.0,6.1508,0.0,0.0,0.0,0.0,0.0,0.0,0.0,0.0,0.0,0.0,0.0,0.0,0.0,0.0,0.0,0.0,6.4004,6.5031,0.0,6.732,6.8678,7.5763,7.6959,7.8904,8.2076,8.303,8.4205,8.58,8.5837,8.6224,8.6978,8.6978,8.6978,8.6978,8.6978,8.6978,8.7088,8.8666,8.9363,8.9473,9.1106,9.1767,9.1767,9.1803,9.1767,9.1584,9.0427,9.0718,9.1546,5.2303,5.3027,5.3395,5.2851,5.4395,5.7519,6.2974,6.6502,7.0078,0.0,7.6313,0.0,0.0,8.3488,8.3623,0.0,0.0,8.1639,7.8948,7.5115,0.0,0.0,0.0,6.3775,0.0,0.0,5.6235,5.3566,5.0875,5.0105,5.1143,4.9527,5.0472,5.3775,5.8327,6.2878,6.7281,7.0548,0.0,0.0,0.0,7.9203,8.2675,0.0,8.1012,8.2076,8.1305,8.1342,0.0,7.958,7.8405,7.7671,7.7121,7.5652,7.4111,7.4096,7.3729,0.0,0.0,0.0,7.334,6.8495,0.0,0.0,0.0,0.0,0.0,0.0,0.0,0.0,0.0,0.0,0.0,0.0,0.0,0.0,0.0,0.0,0.0,0.0,0.0,0.0,0.0,0.0,0.0,6.5888,6.6109,0.0,7.345,7.6533,7.8919,8.055,8.2443,8.3911,8.5013,8.5527,8.6187,8.6978,8.6978,8.6978,8.6978,8.6978,8.7271,8.7839,8.8923,8.9693,9.028,9.1363,9.1803,9.1803,9.1803,9.1803,9.1767,9.136,9.1454,9.173,5.458,5.5439,5.5824,5.4741,5.6771,6.0172,6.497,6.9576,0.0,0.0,7.9874,0.0,8.6958,0.0,8.6224,0.0,8.7288,8.5049,8.1305,7.9323,0.0,7.5506,7.2092,0.0,0.0,0.0,6.1117,5.731,5.4656,5.3335,5.3235,5.1326,5.2024,5.5034,5.9474,6.3945,6.8476,7.3112,7.647,0.0,0.0,8.1316,0.0,0.0,8.2423,8.2162,0.0,8.1965,8.2088,8.1264,8.0324,7.9433,7.9433,7.7598,7.5542,7.6056,7.527,7.4258,7.4478,7.4918,0.0,7.0683,6.8958,0.0,6.1288,0.0,0.0,0.0,0.0,0.0,0.0,0.0,0.0,0.0,0.0,0.0,0.0,5.1132,0.0,0.0,0.0,0.0,0.0,0.0,5.9648,6.2964,6.3906,0.0,0.0,7.5102,7.7745,7.9743,8.1599,8.3214,8.4609,8.5123,8.593,8.6978,8.6978,8.6978,8.7014,8.7325,8.7729,8.8243,8.9363,9.0097,9.0665,9.1473,9.1803,9.1803,9.1803,9.1803,9.1803,9.1803,9.1803,9.1803,5.7176,5.7346,5.7483,5.7543,6.0922,6.4754,0.0,0.0,7.661,0.0,8.2113,8.4812,8.8023,8.7692,8.8152,9.0482,8.9271,8.7068,8.3968,8.3006,0.0,0.0,7.6704,7.4992,7.4111,0.0,0.0,0.0,5.8914,5.7237,5.5732,5.3309,5.3419,5.5765,5.9505,6.3537,6.7894,7.4843,8.0301,8.4378,8.5121,8.4638,8.3358,8.3287,8.2859,8.2373,8.2943,8.2747,8.2343,8.2935,8.2251,8.1096,8.1012,7.9947,7.8699,7.8662,7.8023,7.7215,7.6497,7.6203,7.5432,7.2371,7.1454,0.0,0.0,0.0,6.6759,0.0,0.0,0.0,0.0,0.0,0.0,0.0,0.0,0.0,0.0,0.0,0.0,0.0,0.0,0.0,0.0,0.0,5.6381,6.108,6.0823,0.0,0.0,7.2789,7.5521,7.9596,8.0571,8.215,8.4535,8.4572,8.538,8.6941,8.6978,8.6978,8.7014,8.7839,8.8206,8.8353,8.9931,9.0629,9.0739,9.1473,9.1803,9.1803,9.1803,9.1803,9.1803,9.1803,9.1803,9.1803,5.9825,6.1982,6.4129,6.5029,6.3793,6.4775,0.0,0.0,0.0,0.0,8.4939,8.7325,9.0519,9.0702,9.0812,9.1436,9.1106,0.0,0.0,0.0,0.0,8.6583,8.3655,8.138,7.9967,7.366,0.0,6.6733,0.0,5.8107,5.8205,5.5794,5.4997,5.5765,5.9521,6.3777,6.8419,7.3678,7.9648,8.5667,8.6114,8.6077,8.5615,0.0,8.4146,8.3871,8.2812,8.2678,8.2876,8.2554,8.253,8.2423,8.1366,8.0718,8.0277,7.9669,7.8919,7.8369,7.8736,7.7928,7.6775,7.5968,7.3509,7.072,0.0,0.0,0.0,0.0,0.0,0.0,0.0,0.0,0.0,0.0,0.0,0.0,0.0,0.0,0.0,0.0,0.0,0.0,0.0,5.4483,5.6319,5.8731,6.0382,0.0,0.0,0.0,7.4661,7.8772,8.0277,8.1893,8.3675,8.4315,8.5123,8.6114,8.6701,8.6978,8.7014,8.7839,8.8536,8.9143,9.017,9.0959,9.151,9.1693,9.1803,9.1803,9.1803,9.1803,9.1803,9.1803,9.1803,9.1803,6.348,6.6566,0.0,7.0605,0.0,0.0,7.4303,7.6081,0.0,8.3911,8.6611,0.0,9.0078,9.151,9.2207,9.184,9.1803,0.0,8.9638,0.0,0.0,8.8823,8.7698,8.6049,8.3713,7.8338,0.0,6.9412,0.0,6.0676,5.8646,5.6932,5.5952,5.5776,5.9763,6.3681,6.7694,7.5148,8.1153,8.5752,8.6676,8.6707,0.0,8.534,8.4866,8.4499,8.3581,8.3265,8.3213,8.2773,8.2913,8.2985,8.1871,8.1487,8.1314,8.0535,7.9727,7.9213,7.9669,7.9103,7.8332,7.7949,7.6151,7.3978,7.1985,7.1881,7.1869,0.0,7.1772,7.2628,0.0,0.0,0.0,0.0,0.0,0.0,0.0,0.0,0.0,0.0,0.0,0.0,0.0,0.0,5.5207,5.6833,5.8841,0.0,0.0,0.0,7.367,7.7378,7.9433,8.1415,8.3381,8.4205,8.5013,8.58,8.6628,8.6978,8.7014,8.8189,8.8959,8.9473,9.0629,9.1363,9.1803,9.1803,9.1803,9.1803,9.1803,9.1803,9.1803,9.1803,9.1803,9.1803,6.7639,0.0,0.0,0.0,0.0,0.0,0.0,8.0378,0.0,8.5197,0.0,8.9767,8.9087,9.1546,9.2941,9.217,0.0,9.123,8.9133,9.1678,9.1986,8.9151,9.0258,8.9525,8.6537,8.2927,0.0,0.0,0.0,6.3579,5.815,5.7339,5.6491,5.5792,5.9899,6.362,0.0,7.7798,8.3367,8.5401,8.691,8.6883,8.5902,8.5834,8.543,8.4903,8.4792,8.4235,8.3512,8.3284,8.3229,8.306,8.2423,8.2105,8.191,8.1345,8.0571,8.0,8.011,7.9963,7.9685,7.917,7.887,7.7939,7.4995,7.4226,7.4346,7.5021,7.3411,7.3328,0.0,0.0,0.0,0.0,0.0,0.0,0.0,0.0,0.0,0.0,0.0,0.0,0.0,0.0,0.0,0.0,0.0,0.0,0.0,0.0,7.2188,7.5836,7.8348,8.0755,8.3051,8.4095,8.4939,8.5637,8.6591,8.6978,8.7051,8.8666,8.94,8.9473,9.1106,9.1803,9.1803,9.1803,9.1803,9.1803,9.1803,9.1803,9.1803,9.1803,9.1803,9.1803,7.1336,0.0,0.0,0.0,0.0,8.3787,8.5818,8.5459,8.6307,9.0069,9.2247,9.3382,9.3235,9.3749,9.4042,9.3859,9.3805,0.0,0.0,0.0,0.0,9.3968,9.3523,9.2407,9.0517,8.4692,7.9339,0.0,0.0,6.3517,5.9056,5.8239,5.7101,5.5809,5.9017,0.0,7.2556,7.8812,0.0,8.6148,8.6789,8.7277,8.7606,8.6984,8.6674,8.65,8.582,8.4995,8.4145,8.3545,8.3272,8.306,8.2423,8.219,8.2123,8.2015,8.1415,8.0938,8.1599,8.0807,8.0062,8.1132,8.0348,7.9315,7.9276,7.8693,7.8365,7.8983,7.876,7.8084,7.6802,0.0,0.0,0.0,0.0,0.0,0.0,0.0,0.0,0.0,0.0,0.0,0.0,0.0,0.0,0.0,0.0,0.0,0.0,0.0,6.9032,0.0,7.7524,7.9653,0.0,0.0,8.4682,8.4829,8.6297,8.6978,8.7051,8.8666,8.94,8.9473,9.1106,9.1803,9.1803,9.1803,9.1803,9.1803,9.1803,9.1803,9.1803,9.1803,9.1803,9.1803,7.7621,0.0,0.0,0.0,0.0,0.0,0.0,9.1907,9.1396,9.1202,9.2257,9.2831,9.2427,9.3896,9.474,9.4336,9.4627,9.4813,9.4813,9.5861,9.6306,9.5849,9.5402,0.0,9.2166,8.7426,8.2314,7.6855,0.0,0.0,6.0634,5.9381,5.7926,5.6595,6.1324,6.7675,0.0,0.0,0.0,8.5853,8.6551,8.7124,8.7472,8.7149,8.6978,8.6941,8.6554,8.5869,8.4944,8.3787,8.3592,8.364,8.2534,8.2418,8.2662,8.2295,8.1929,8.1709,8.2076,8.1636,8.1124,8.1403,8.1153,8.0641,8.0102,8.0177,8.0307,8.0142,8.0115,7.9152,7.6089,7.2404,0.0,0.0,0.0,0.0,0.0,0.0,0.0,0.0,0.0,0.0,0.0,0.0,0.0,0.0,0.0,0.0,6.1337,0.0,6.7857,0.0,0.0,0.0,8.0975,0.0,8.4609,8.4609,8.6224,8.6978,8.7051,8.8666,8.94,8.9473,9.1106,9.1803,9.1803,9.1803,9.1803,9.1803,9.1803,9.1803,9.1803,9.1803,9.1803,9.1803,0.0,8.4707,0.0,0.0,9.0679,9.3135,9.6553,9.7432,9.6489,9.3107,9.2773,9.2647,9.2165,9.4429,9.5792,9.5326,9.581,9.6153,9.6153,9.7287,9.7619,9.692,9.6729,9.5632,9.3523,9.0464,8.5614,0.0,0.0,0.0,6.2711,6.1215,6.0018,0.0,0.0,0.0,0.0,0.0,8.3097,8.5875,8.6393,8.6733,8.6978,8.6978,8.6978,8.6978,8.6978,8.6591,8.582,8.4389,8.4168,8.4218,8.2875,8.2834,8.3121,8.2396,8.2186,8.2186,8.2186,8.2186,8.2088,8.1602,8.1734,8.1629,8.0288,8.0685,8.1154,8.0268,8.0115,7.9076,7.5731,7.3582,0.0,0.0,0.0,0.0,0.0,0.0,0.0,0.0,0.0,0.0,0.0,0.0,0.0,0.0,0.0,0.0,5.9526,6.2756,6.6866,0.0,0.0,7.806,8.0188,0.0,8.4609,8.4609,8.6224,8.6978,8.7051,8.8666,8.94,8.9473,9.1106,9.1803,9.1803,9.1803,9.1803,9.1803,9.1803,9.1803,9.1803,9.1803,9.1803,9.1803,0.0,0.0,0.0,0.0,0.0,9.7456,9.8533,10.0003,10.0684,9.9532,9.7542,9.6474,9.7052,9.7397,9.7827,9.8501,9.8572,9.8579,9.8579,9.8653,9.8644,9.8567,9.7837,9.6953,9.5992,9.3408,8.8741,0.0,0.0,7.2844,6.5499,6.4577,0.0,0.0,0.0,0.0,0.0,8.0965,8.389,8.7481,8.6333,8.6329,8.6978,8.6978,8.6978,8.6978,8.6978,8.6941,8.6775,8.5857,8.5137,8.4415,8.3561,8.3337,8.3239,8.2439,8.2186,8.2186,8.2186,8.2186,8.2343,8.2876,8.2447,8.1838,8.157,8.142,8.1087,8.0268,8.0115,7.9076,7.5731,7.6751,7.6508,0.0,0.0,0.0,0.0,0.0,0.0,0.0,0.0,0.0,0.0,5.6247,0.0,0.0,5.393,0.0,6.108,6.1741,6.4861,7.1197,7.4536,7.6665,7.7656,8.228,8.4609,8.4609,8.6224,8.6978,8.7051,8.8666,8.94,8.9473,9.1106,9.1803,9.1803,9.1803,9.1803,9.1803,9.1803,9.1803,9.1803,9.1803,9.1803,9.1803,0.0,0.0,0.0,0.0,0.0,0.0,0.0,10.2395,10.2078,10.1791,9.9225,9.772,9.8522,9.771,9.7662,9.8948,9.9007,9.9173,9.9665,10.0101,10.0096,9.9606,9.9259,9.8404,9.7057,9.5057,9.1663,0.0,0.0,7.7246,7.2675,7.029,7.0597,0.0,0.0,7.9354,8.2968,8.4546,8.6719,8.909,8.8175,8.8024,8.8345,8.7831,8.7394,8.6978,8.6978,8.6978,8.6941,8.6628,8.6004,8.5159,8.4389,8.4132,8.4058,8.3728,8.3287,8.292,8.292,8.2553,8.2284,8.2544,8.2928,8.2802,8.0982,8.1657,8.1967,7.9546,7.8998,7.8728,7.7755,7.7126,7.6844,7.6978,0.0,0.0,0.0,0.0,0.0,0.0,0.0,0.0,0.0,0.0,0.0,0.0,0.0,0.0,5.9208,6.0823,6.3906,6.8972,0.0,7.6754,7.806,8.2406,8.4829,8.5343,8.6481,8.7252,8.7766,8.8886,8.9913,9.0886,9.151,9.1803,9.1803,9.1803,9.1803,9.1803,9.1803,9.1803,9.1803,9.1803,9.1803,9.1803,9.657,0.0,9.7259,0.0,10.1115,10.1701,10.4998,10.4303,10.3411,10.3411,10.0793,9.9092,9.9405,9.8651,9.8647,9.9996,10.0105,10.0291,10.0903,10.1193,10.101,10.0491,10.0221,0.0,9.8288,9.6596,9.4201,9.1009,8.6094,8.2131,7.91,7.6407,7.6868,0.0,8.167,8.4016,8.6829,8.817,8.9544,9.0797,9.0133,8.9895,8.9928,8.9353,8.8527,8.766,8.766,8.7364,8.6978,8.6978,8.6628,8.6004,8.5196,8.4939,8.4903,8.4682,8.4205,8.3748,8.3748,8.3177,8.2619,8.2802,8.339,8.3356,8.1197,8.2077,8.2463,7.947,7.8678,7.8754,7.9358,7.7843,7.7272,7.9612,0.0,0.0,0.0,0.0,0.0,0.0,0.0,6.1914,6.0199,0.0,0.0,0.0,0.0,0.0,0.0,6.152,0.0,0.0,0.0,0.0,7.8919,8.27,8.5013,8.58,8.6628,8.7435,8.8243,8.929,9.0501,9.1803,9.1803,9.1803,9.1803,9.1803,9.1803,9.1803,9.1803,9.1803,9.1803,9.1803,9.1803,9.1803,9.9813,10.0805,10.2203,10.4593,10.4982,10.5279,10.6203,10.571,10.5219,10.5219,10.2981,10.1203,10.0403,10.1013,10.1698,10.2512,10.2589,10.2615,10.2587,10.1779,10.1279,0.0,0.0,10.0106,10.0106,9.8365,9.6211,9.3633,0.0,0.0,8.3486,8.2601,8.3555,8.6055,8.7825,8.9517,9.1136,9.1278,9.1855,9.2611,9.1875,9.1552,9.159,9.1552,9.0597,8.9255,8.9255,8.8296,8.6978,8.6978,8.6978,8.6831,8.604,8.5783,8.5654,8.4829,8.4609,8.4609,8.4609,8.4005,8.3558,8.422,8.3785,8.314,8.2899,8.2727,8.2136,8.0439,7.96,7.9369,7.9969,7.96,7.8744,7.7539,0.0,0.0,0.0,0.0,0.0,0.0,6.3403,6.0968,6.1337,0.0,0.0,0.0,0.0,0.0,0.0,0.0,0.0,7.3428,7.6004,0.0,7.9779,8.2994,8.5013,8.58,8.6628,8.7435,8.8243,8.9858,9.1033,9.1803,9.1803,9.1803,9.1803,9.1803,9.1803,9.1803,9.1803,9.1803,9.1803,9.1803,9.1803,9.1803,10.2581,10.3398,10.4181,10.5,10.5597,10.6097,10.6405,10.621,10.579,10.5282,10.4494,10.3683,10.2894,10.1485,10.1195,0.0,10.2715,10.2583,0.0,10.2289,10.1894,10.1279,10.1096,10.0712,10.0106,9.9567,9.8288,9.6288,0.0,0.0,0.0,8.7632,8.8556,9.0479,9.1056,9.1902,9.2894,9.2929,9.3486,9.4205,9.3384,9.3088,9.3115,9.2571,9.1711,9.0804,9.0288,8.9792,8.925,8.8174,8.7839,8.7692,8.6885,8.6628,8.6591,8.6334,8.5857,8.5416,8.5416,8.5164,8.4813,8.448,8.4878,8.4945,8.3282,8.1978,8.1127,8.1009,8.0038,7.9392,7.9979,7.9939,7.9829,7.9891,7.91,0.0,0.0,0.0,0.0,0.0,6.7513,6.5549,0.0,6.3632,0.0,0.0,0.0,0.0,0.0,0.0,0.0,0.0,7.6276,0.0,8.0608,8.3801,8.582,8.6628,8.7435,8.8536,8.9858,9.0922,9.1546,9.1803,9.1803,9.1803,9.1803,9.1803,9.1803,9.1803,9.1803,9.1803,9.1803,9.1803,9.1803,9.1803,10.4405,10.4982,10.5597,10.5597,10.602,10.6395,10.6395,10.6395,10.6193,10.571,10.5419,10.4987,10.4524,10.3112,0.0,10.3591,10.3617,10.3509,10.3115,10.3097,10.2597,10.1394,10.1587,10.1404,10.0596,10.0298,0.0,9.8481,9.5903,9.3864,9.2278,9.1979,9.2556,9.3941,9.3941,9.421,9.4672,9.4672,9.498,9.5441,9.4903,9.4724,9.4749,9.4241,9.3396,9.238,9.1935,9.14,9.0722,8.9493,8.9069,8.8928,8.8164,8.8081,8.8219,8.7612,8.7248,8.7034,8.7034,8.678,8.64,8.6156,8.6481,8.6396,8.4545,8.3077,8.2066,8.1804,8.0817,8.0134,8.0428,8.0287,8.0324,8.0983,7.9638,7.8099,7.6984,0.0,0.0,0.0,0.0,0.0,0.0,6.6941,6.6799,0.0,0.0,0.0,0.0,0.0,7.1064,7.323,7.8127,8.1232,8.2333,8.4646,8.6187,8.7014,8.8133,8.9344,9.0629,9.1436,9.1803,9.1803,9.1803,9.1803,9.1803,9.1803,9.1803,9.1803,9.1803,9.1803,9.1803,9.1803,9.1803,9.1803,10.5223,10.579,10.6395,10.6395,10.6395,10.6395,10.6395,10.6395,10.6395,10.6395,10.5695,10.5294,10.5294,10.5294,10.5294,10.5294,0.0,0.0,10.3982,10.3982,10.3212,10.1597,10.2212,10.2212,10.1394,10.0596,10.0183,10.0106,9.7596,9.6365,9.6365,9.5489,9.5518,9.6288,9.6288,9.6288,9.6288,9.6288,9.6288,9.6288,9.6288,9.6288,9.6288,9.6288,9.5355,9.4069,9.4025,9.3069,9.1752,9.0939,9.0652,9.0534,8.9728,8.9971,9.0264,8.8718,8.8701,8.9197,8.9197,8.8645,8.8204,8.8754,8.8318,8.751,8.6415,8.5555,8.4516,8.2824,8.1958,8.1393,8.1214,8.0638,8.0361,8.0914,7.9561,7.783,7.613,0.0,0.0,0.0,0.0,0.0,6.7369,6.9602,7.0878,0.0,0.0,0.0,0.0,0.0,7.3083,7.8516,8.1012,8.3067,8.4682,8.549,8.6334,8.7198,8.8739,8.9913,9.0702,9.1473,9.1803,9.1803,9.1803,9.1803,9.1803,9.1803,9.1803,9.1803,9.1803,9.1803,9.1803,9.1803,9.1803,9.1803,0.0,0.0,10.6395,10.6395,10.6395,10.6395,10.6395,10.6395,10.6395,10.6395,10.6203,10.609,10.609,10.609,10.609,10.609,10.6092,10.5713,10.4915,10.4789,10.4405,10.3289,10.2789,10.252,10.2289,10.152,10.0712,10.0106,9.8173,9.7211,9.7211,9.6365,9.6095,9.6288,9.6288,9.6288,9.6288,9.6288,9.6288,9.6288,9.6288,9.6288,9.6288,9.6288,9.6059,9.5645,9.5102,9.465,9.412,9.272,9.2246,9.203,9.0677,9.0745,9.1142,9.0221,9.0004,9.0091,9.0091,8.9854,8.9482,8.8994,8.8671,8.8233,8.7299,8.644,8.5517,8.4516,8.3127,8.2048,8.2038,8.1398,8.0704,8.0192,7.8707,7.6984,7.5238,7.4476,0.0,0.0,7.3422,7.3769,7.1944,7.3491,7.3625,0.0,0.0,7.3817,7.483,7.5344,7.679,7.9449,8.1856,8.3911,8.549,8.6297,8.7418,8.8849,8.984,9.0739,9.151,9.1693,9.1803,9.1803,9.1803,9.1803,9.1803,9.1803,9.1803,9.1803,9.1803,9.1803,9.1803,9.1803,9.1803,9.1803,10.7021,10.7021,10.6905,10.651,10.6395,10.6395,10.6395,10.6395,10.6395,10.6395,10.6395,10.6395,10.6395,10.6395,10.6395,10.6395,10.6395,10.602,10.5184,10.5482,10.5213,10.3982,10.3789,10.3597,10.3212,10.2289,10.1289,10.0106,9.9144,9.8481,9.8096,9.725,9.6865,9.6826,9.648,9.6288,9.6288,9.6288,9.6288,9.6288,9.6288,9.6288,9.6288,9.6288,9.6288,9.6251,9.5852,9.57,9.551,9.4296,9.3922,9.3629,9.2121,9.215,9.2607,9.1873,9.1288,9.0986,9.1319,9.1316,9.1125,9.0661,9.0204,8.9594,8.8748,8.7902,8.694,8.5709,8.4709,8.367,8.2516,8.1939,8.1246,8.0008,7.9054,7.7823,7.613,7.5899,7.5472,7.4375,7.5892,7.6499,7.5131,7.6579,7.6794,7.4801,7.5726,0.0,7.7619,7.9197,8.0335,8.0881,8.3251,8.4903,8.5783,8.6958,8.8335,8.995,9.0391,9.1033,9.1803,9.1803,9.1803,9.1803,9.1803,9.1803,9.1803,9.1803,9.1803,9.1803,9.1803,9.1803,9.1803,9.1803,9.1803,9.1803,10.7713,10.7713,10.7482,10.6703,10.6587,10.6587,10.6587,10.6587,10.651,10.6395,10.6395,10.6395,10.6395,10.6395,10.6395,10.6395,10.6395,10.6097,10.529,10.602,10.579,10.4289,10.4789,10.4789,10.4097,10.3097,10.1789,10.0298,10.0183,9.9721,9.8981,9.8096,9.7634,9.748,9.6788,9.6403,9.6288,9.6288,9.6288,9.6288,9.6288,9.6288,9.6288,9.6288,9.6288,9.6288,9.6288,9.6288,9.6184,9.5576,9.5307,9.4951,9.3589,9.35,9.3793,9.3051,9.2224,9.1709,9.2425,9.2512,9.2432,9.2507,9.1862,9.1035,9.026,8.9479,8.844,8.6824,8.6286,8.544,8.3285,8.2554,8.1708,7.99,7.9592,7.8977,7.7169,0.0,7.7253,7.6608,7.7582,7.8052,7.749,7.8861,7.9559,7.8993,8.0241,8.1133,8.1497,8.2932,8.3586,8.3266,8.5016,8.6077,8.6334,8.7802,8.9234,9.0592,9.0739,9.1143,9.1803,9.1803,9.1803,9.1803,9.1803,9.1803,9.1803,9.1803,9.1803,9.1803,9.1803,9.1803,9.1803,9.1803,9.1803,9.1803,10.779,10.7713,10.7713,10.7521,10.7521,10.7521,10.7521,10.7521,10.7213,10.651,10.6395,10.6395,10.6395,10.6395,10.6395,10.6395,10.6395,10.628,10.6203,10.628,10.628,10.602,10.5405,10.4982,10.4905,10.3405,10.2097,10.1096,10.0404,9.999,9.9875,9.9029,9.8211,9.748,9.7365,9.6942,9.6288,9.6288,9.6288,9.6288,9.6288,9.6288,9.6288,9.6288,9.6288,9.6288,9.6288,9.6288,9.6269,9.6155,9.571,9.506,9.4198,9.3559,9.3019,9.2229,9.1869,9.1892,9.2585,9.2222,9.1811,9.2409,9.1991,9.1306,9.1035,9.0316,8.944,8.8479,8.7132,8.5978,8.5593,8.3747,8.1516,7.91,7.8715,7.7861,7.5438,0.0,7.8135,7.77,7.9047,7.9854,7.9391,7.9622,8.0036,8.0608,8.0865,8.1844,8.3782,8.4741,8.6144,8.8039,8.7275,8.7455,8.8812,8.9767,9.0372,9.0629,9.1289,9.1693,9.1803,9.1803,9.1803,9.1803,9.1803,9.1803,9.1803,9.1803,9.1803,9.1803,9.1803,9.1803,9.1803,9.1803,9.1803,9.1803,10.9098,10.8906,10.8713,10.8406,10.8598,10.8713,10.8406,10.829,10.8213,10.779,10.7713,10.7598,10.7087,10.7098,10.6895,10.6395,10.6395,10.6395,10.6395,10.6395,10.6395,10.6395,10.602,10.5597,10.5107,10.4289,10.3289,10.202,10.1597,10.0996,10.0114,9.9272,9.8177,9.6948,9.6937,9.6465,9.5731,9.6127,9.6288,9.6288,9.6288,9.6288,9.6288,9.6288,9.6288,9.6288,9.6288,9.6288,9.6288,9.6288,9.5821,9.5084,9.4332,9.3574,9.2826,9.2055,9.2106,9.2525,9.2809,9.2899,9.2967,9.3224,9.303,9.269,9.2592,9.1902,9.1056,9.021,8.9017,8.7855,8.6978,8.5478,8.3824,8.2208,8.117,0.0,7.9592,8.0092,8.0703,8.1109,8.1865,8.2523,8.2855,8.292,8.324,8.4012,8.4077,8.4905,8.6899,8.7326,8.8453,9.0406,8.9428,8.9273,9.0024,9.0391,9.0812,9.1253,9.162,9.1803,9.1803,9.1803,9.1803,9.1803,9.1803,9.1803,9.1803,9.1803,9.1803,9.1803,9.1803,9.1803,9.1803,9.1803,9.1803,9.1803,11.0214,10.9983,10.9713,10.929,10.9598,10.9713,10.929,10.9213,10.9098,10.8906,10.8906,10.8713,10.8021,10.779,10.7405,10.679,10.651,10.6395,10.6395,10.6395,10.6395,10.6395,10.6395,10.602,10.5107,10.5107,10.4405,10.2904,10.2712,10.1999,10.0715,9.9672,9.8351,9.6755,9.654,9.5866,9.4975,9.5731,9.603,9.604,9.6241,9.6288,9.6288,9.6288,9.6288,9.6288,9.6288,9.6288,9.6288,9.6288,9.5821,9.5107,9.4528,9.385,9.3077,9.2314,9.2382,9.2732,9.2732,9.314,9.3605,9.3883,9.3773,9.3705,9.3956,9.3364,9.2595,9.1902,9.1086,9.0056,8.8556,8.7401,8.6247,8.4824,0.0,8.3016,8.3255,8.3054,8.3321,8.4372,8.4571,8.4941,8.5687,8.5811,8.6091,8.6644,8.7059,8.7928,8.9364,8.9793,9.0651,9.2089,9.1236,9.0798,9.0886,9.0886,9.1179,9.1803,9.1803,9.1803,9.1803,9.1803,9.1803,9.1803,9.1803,9.1803,9.1803,9.1803,9.1803,9.1803,9.1803,9.1803,9.1803,9.1803,9.1803,9.1803,11.0406,11.0224,11.0224,11.0098,11.0098,11.0224,11.0098,11.0098,10.979,10.8983,10.8906,10.8906,10.879,10.8098,10.7713,10.7598,10.6905,10.6395,10.6395,10.6395,10.6395,10.6395,10.6395,10.602,10.5107,10.5107,10.4723,10.3789,10.2981,10.25,10.2412,10.0799,9.9219,9.757,9.6849,9.5605,9.4238,9.4951,9.5295,9.5341,9.602,9.6288,9.6288,9.6288,9.6288,9.6288,9.6288,9.6288,9.6288,9.6288,9.5821,9.5177,9.5131,9.4592,9.3878,9.3146,9.2434,9.1875,9.1875,9.1929,9.2311,9.3746,9.3491,9.3226,9.4609,9.422,9.3595,9.3518,9.2864,9.2018,9.1095,8.9594,8.7448,8.4217,0.0,0.0,8.2593,8.3747,8.5078,8.6108,8.6233,8.6311,8.6593,8.6606,8.6631,8.6682,8.8154,8.9338,9.01,9.1609,9.2855,9.3698,9.2344,9.1635,9.1711,9.1693,9.173,9.1803,9.1803,9.1803,9.1803,9.1803,9.1803,9.1803,9.1803,9.1803,9.1803,9.1803,9.1803,9.1803,9.1803,9.1803,9.1803,9.1803,9.1803,9.1803,11.1098,11.1021,11.1021,11.1021,11.1021,11.1021,11.1021,11.1021,11.0906,11.0598,11.0521,11.0291,10.979,10.9406,10.8983,10.8482,10.7713,10.7213,10.7213,10.6703,10.6395,10.6395,10.6395,10.6203,10.5905,10.5905,10.5482,10.4597,10.3789,10.2896,10.1797,10.0189,9.8588,9.6996,9.6686,9.5947,9.4945,9.5681,9.5971,9.599,9.68,9.6792,9.6403,9.7442,9.7211,9.6365,9.6865,9.6711,9.6288,9.6288,9.5821,9.5189,9.5189,9.4668,9.4047,9.3764,9.3455,9.3211,9.3211,9.2549,9.2157,9.3721,9.3838,9.3971,9.5482,9.5134,9.4527,9.4527,9.3826,9.3133,9.2826,9.1825,9.0633,8.9325,0.0,8.7209,8.7055,8.6709,8.6987,8.8383,8.8188,8.8339,8.9384,8.9571,8.982,9.0253,9.1344,9.2355,9.313,9.4291,9.4847,9.4693,9.4149,9.368,9.3227,9.3211,9.3211,9.3211,9.2761,9.2532,9.2552,9.2037,9.1803,9.1803,9.1803,9.1803,9.1803,9.1803,9.1803,9.1803,9.1803,9.1803,9.1803,9.1803,9.1803,9.1877,11.1511,11.1511,11.1511,11.1511,11.1511,11.1511,11.1511,11.1511,11.1511,11.1511,11.1511,11.1291,11.0714,11.0098,10.9598,10.8983,10.7905,10.729,10.729,10.6703,10.6395,10.6395,10.6395,10.6395,10.6395,10.6395,10.6097,10.5482,10.4405,10.3297,10.2084,10.0277,9.8526,9.6986,9.6716,9.6007,9.5098,9.5835,9.6257,9.6476,9.7267,9.7369,9.7211,9.8365,9.8096,9.7173,9.7711,9.7557,9.7096,9.7096,9.6748,9.632,9.632,9.5822,9.5221,9.5221,9.5061,9.4884,9.4884,9.3911,9.3135,9.4181,9.4437,9.478,9.601,9.5826,9.5412,9.5412,9.4941,9.4441,9.4181,9.3672,9.3095,9.2595,9.1018,9.0094,9.0624,8.9748,8.9517,9.0932,9.0676,9.0827,9.1867,9.2056,9.2342,9.2846,9.3633,9.4489,9.5365,9.598,9.6088,9.5555,9.5544,9.5307,9.4805,9.4332,9.4102,9.4102,9.3574,9.3218,9.2971,9.2434,9.2018,9.1803,9.2097,9.206,9.184,9.2354,9.2427,9.2244,9.2501,9.2574,9.2574,9.2574,9.2574,9.2684,11.1511,11.1511,11.1511,11.1511,11.1511,11.1511,11.1511,11.1511,11.1511,11.1511,11.1511,11.1511,11.1511,10.9983,10.8906,10.8906,10.7405,10.6395,10.6395,10.6395,10.6395,10.6395,10.6395,10.6395,10.6395,10.6395,10.6395,10.6395,10.4713,10.3905,10.3818,10.1407,9.9352,9.7762,9.697,9.5736,9.4374,9.5101,9.5835,9.6573,9.7312,9.8096,9.8788,9.8788,9.8788,9.8788,9.8788,9.8788,9.8788,9.8788,9.8788,9.8788,9.8788,9.8284,9.7703,9.7703,9.7186,9.6601,9.6601,9.5983,9.5302,9.5227,9.5189,9.5385,9.6127,9.6288,9.6288,9.6288,9.6288,9.6057,9.5181,9.5027,9.445,9.2787,9.2518,9.2518,9.2518,9.2518,9.2826,9.3595,9.371,9.371,9.371,9.371,9.371,9.371,9.4527,9.5412,9.6249,9.6288,9.6288,9.6288,9.6288,9.6288,9.6288,9.4854,9.4116,9.4116,9.4116,9.3721,9.3003,9.304,9.2586,9.1877,9.2721,9.2611,9.195,9.3602,9.3822,9.3198,9.3969,9.4299,9.4299,9.4299,9.4299,9.4299,11.1511,11.1511,11.1511,11.1511,11.1511,11.1511,11.1511,11.1511,11.1511,11.1511,11.1511,11.1511,11.1511,11.1011,11.0483,10.9906,10.879,10.7713,10.651,10.6395,10.6111,10.5615,10.5591,10.579,10.6395,10.5813,10.5802,10.6395,10.529,10.4492,10.3895,10.1905,10.0518,9.9429,9.8045,9.7194,9.6716,9.6435,9.6704,9.7422,9.8265,9.8673,9.8942,10.0096,9.9827,9.8865,9.949,9.9336,9.8788,9.8788,9.8788,9.8788,9.8788,9.8653,9.8485,9.8485,9.8333,9.8129,9.8129,9.7937,9.75,9.6326,9.562,9.5385,9.6127,9.6288,9.6288,9.6288,9.6288,9.6211,9.5942,9.5903,9.5557,9.445,9.4258,9.4027,9.3441,9.3326,9.3441,9.3672,9.371,9.371,9.371,9.4258,9.4604,9.4604,9.5403,9.6019,9.6288,9.6288,9.6288,9.6288,9.6288,9.6288,9.6288,9.5862,9.5657,9.5657,9.5702,9.5323,9.46,9.4653,9.4271,9.3565,9.3822,9.3455,9.2794,9.3859,9.3822,9.3198,9.3969,9.4299,9.4299,9.4299,9.4299,9.4373,11.1511,11.1511,11.1511,11.1511,11.1511,11.1511,11.1511,11.1511,11.1511,11.1511,11.1511,11.1511,11.1511,11.0906,11.0291,10.9713,10.8598,10.7598,10.7021,10.6587,10.621,10.5698,10.5407,10.5406,10.5897,10.5392,10.5577,10.6395,10.5482,10.4915,10.4289,10.2687,10.1388,10.0618,9.933,9.8389,9.7797,9.7663,9.7824,9.8305,9.9143,9.961,9.9904,10.0894,10.0712,9.9865,10.0404,10.0212,9.9788,9.9788,9.9788,9.9788,9.9788,9.9788,9.9788,9.9788,9.9788,9.9788,9.9788,9.9558,9.9067,9.8089,9.6969,9.6124,9.6251,9.6288,9.6288,9.6288,9.6288,9.6288,9.6288,9.6288,9.6134,9.5595,9.5518,9.5326,9.4788,9.4711,9.4711,9.4711,9.4711,9.4711,9.4711,9.5211,9.5518,9.5518,9.6019,9.6288,9.6288,9.6288,9.6288,9.6288,9.6596,9.6788,9.6788,9.7134,9.7134,9.6779,9.7166,9.6963,9.6245,9.5959,9.5421,9.4719,9.4761,9.4336,9.3675,9.4777,9.4777,9.4153,9.4923,9.5254,9.5254,9.5254,9.5254,9.5327,11.1511,11.1511,11.1511,11.1511,11.1511,11.1511,11.1511,11.1511,11.1511,11.1511,11.1511,11.1511,11.1511,11.0098,10.9098,10.8983,10.7521,10.6895,10.7713,10.701,10.649,10.6294,10.5692,10.5308,10.518,10.518,10.5577,10.6395,10.5597,10.5223,10.5107,10.3482,10.2292,10.1502,10.0602,9.9411,9.8058,9.8727,9.905,9.9179,9.9911,10.0595,10.1279,10.1394,10.1394,10.1279,10.151,10.151,10.1394,10.151,10.151,10.151,10.1394,10.151,10.151,10.1279,10.1394,10.1394,10.1279,10.0789,10.0183,10.0106,9.8904,9.7519,9.6596,9.6403,9.6403,9.6326,9.6288,9.6288,9.6288,9.6288,9.6288,9.6288,9.6288,9.6288,9.6288,9.6288,9.6288,9.6288,9.6288,9.6288,9.6288,9.6288,9.6288,9.6288,9.6288,9.6288,9.6288,9.6365,9.6403,9.6403,9.7211,9.7634,9.7634,9.8481,9.8481,9.7634,9.8481,9.8521,9.7794,9.7117,9.6381,9.5599,9.5698,9.5219,9.452,9.6061,9.6245,9.5565,9.6392,9.6685,9.6685,9.6685,9.6685,9.6685,11.1511,11.1511,11.1511,11.1511,11.1511,11.1511,11.1511,11.1511,11.1511,11.1511,11.1511,11.1511,11.1511,11.1203,11.0714,10.9983,10.8983,10.8213,10.7713,10.8098,10.7521,10.5493,10.5918,10.5803,10.518,10.518,10.5577,10.6395,10.6203,10.579,10.5107,10.4097,10.3191,10.2289,10.0792,9.9986,9.964,9.9193,9.936,9.9949,10.0085,10.0595,10.1394,10.2097,10.1904,10.151,10.2789,10.2904,10.2404,10.3097,10.3289,10.3212,10.252,10.2789,10.3097,10.1712,10.1789,10.2212,10.151,10.1212,10.0904,10.0298,9.9837,9.9144,9.7596,9.725,9.7057,9.6442,9.6288,9.6288,9.6288,9.6288,9.6288,9.6288,9.6288,9.6288,9.6288,9.6288,9.6288,9.6288,9.6288,9.6288,9.6288,9.6288,9.6288,9.6288,9.6288,9.6288,9.6288,9.6903,9.725,9.725,9.8057,9.8519,9.8519,9.9375,9.9375,9.8519,9.9413,9.9393,9.8647,9.9161,9.8635,9.7292,9.7312,9.6506,9.5327,9.6318,9.6245,9.5565,9.6392,9.6685,9.6685,9.6685,9.6685,9.6685,11.1511,11.1511,11.1511,11.1511,11.1511,11.1511,11.1511,11.1511,11.1511,11.1511,11.1511,11.1511,11.1511,11.1098,11.0714,11.0214,10.9406,10.8906,10.8906,10.8482,10.7691,10.6392,10.6419,10.6177,10.5794,10.5794,10.5991,10.6395,10.6395,10.6213,10.5713,10.4905,10.3982,10.3202,10.1914,10.0887,10.0185,10.011,10.0084,10.0297,10.1009,10.1611,10.202,10.2904,10.2904,10.2712,10.3597,10.3597,10.3289,10.3712,10.3905,10.3789,10.3405,10.3482,10.3712,10.2789,10.2597,10.252,10.202,10.1587,10.1212,10.0789,10.0712,10.0212,9.8519,9.8134,9.8019,9.7596,9.748,9.748,9.748,9.748,9.748,9.748,9.7134,9.6865,9.6865,9.6557,9.6288,9.6288,9.6288,9.6288,9.6288,9.6288,9.6288,9.6288,9.6288,9.648,9.6865,9.7288,9.7673,9.8096,9.8981,9.9413,9.9413,10.0289,10.0404,10.0019,10.0481,10.0486,9.9989,10.0213,9.9547,9.8342,9.796,9.7147,9.6098,9.6539,9.6465,9.6098,9.6539,9.6685,9.6685,9.6685,9.6685,9.6685,11.1511,11.1511,11.1511,11.1511,11.1511,11.1511,11.1511,11.1511,11.1511,11.1511,11.1511,11.1511,11.1511,11.0704,11.0105,11.0004,10.9507,10.9409,10.9919,10.9007,10.8213,10.7905,10.7213,10.679,10.6587,10.6301,10.6182,10.6182,10.6315,10.6315,10.6182,10.5403,10.4713,10.4097,10.3212,10.2121,10.0883,10.1482,10.1409,10.0895,10.2299,10.2789,10.2904,10.3789,10.3982,10.3905,10.4212,10.4289,10.4289,10.4289,10.4289,10.4289,10.4212,10.4212,10.4289,10.3982,10.3482,10.2981,10.2904,10.2289,10.1702,10.1702,10.1702,10.1289,9.9788,9.9211,9.8981,9.8827,9.8788,9.8788,9.8788,9.8788,9.8788,9.8788,9.8173,9.7711,9.7711,9.7134,9.6749,9.6749,9.6596,9.6519,9.6519,9.6365,9.6365,9.648,9.6519,9.6865,9.7673,9.7865,9.8288,9.8981,9.9865,10.0298,10.0298,10.1096,10.151,10.151,10.1712,10.1597,10.1308,10.0809,10.0088,9.9152,9.8519,9.7713,9.6906,9.6759,9.6685,9.6685,9.6685,9.6685,9.6685,9.6685,9.6685,9.6685,11.1511,11.1511,11.1511,11.1511,11.1511,11.1511,11.1511,11.1511,11.1511,11.1511,11.1511,11.1511,11.1511,11.0709,10.9878,10.9091,10.9693,10.9786,10.9086,11.0311,11.028,10.879,10.8598,10.8213,10.7521,10.6104,10.5395,10.5395,10.6085,10.5997,10.5407,10.5224,10.4982,10.4905,10.4097,10.3595,10.338,10.349,10.348,10.338,10.3605,10.3712,10.3789,10.4597,10.4482,10.4097,10.552,10.6097,10.6097,10.6097,10.6097,10.5905,10.5213,10.5482,10.579,10.4289,10.4289,10.4597,10.3905,10.3597,10.3482,10.3482,10.3482,10.3289,10.2289,10.0991,9.9721,9.8952,9.8788,9.8788,9.8788,9.8788,9.8788,9.8788,9.8711,9.8634,9.8634,9.8519,9.8442,9.8442,9.7788,9.7326,9.7326,9.6711,9.6596,9.7288,9.7326,9.7711,9.8596,9.9336,9.9798,9.9913,10.0712,10.1087,10.1087,10.202,10.2404,10.2404,10.3212,10.2789,10.1317,10.1979,10.1497,9.9982,9.9983,9.9129,9.7676,9.6979,9.6685,9.6685,9.6685,9.6685,9.6685,9.6685,9.6685,9.6685,11.1511,11.1511,11.1511,11.1511,11.1511,11.1511,11.1511,11.1511,11.1511,11.1511,11.1116,11.0814,11.0814,11.0014,10.9296,10.8925,10.9311,10.9316,10.8884,10.9594,10.9703,10.8899,10.839,10.7789,10.6997,10.5784,10.4702,10.3812,10.4588,10.5104,10.5193,10.5221,10.5109,10.5107,10.4713,10.4289,10.3905,10.3905,10.3905,10.3905,10.4405,10.4607,10.4723,10.5482,10.5597,10.5405,10.6087,10.6395,10.6395,10.6395,10.6395,10.628,10.5905,10.6097,10.629,10.552,10.5213,10.4982,10.4723,10.4212,10.3905,10.3905,10.3905,10.3789,10.3405,10.2789,10.1789,10.0481,10.0212,10.0212,10.0212,10.0212,10.0212,10.0212,9.9827,9.9529,9.9529,9.9096,9.8788,9.8788,9.8442,9.8211,9.8211,9.7904,9.7827,9.8211,9.8211,9.8596,9.949,9.9875,10.0298,10.0789,10.1597,10.202,10.202,10.2904,10.3289,10.3289,10.3712,10.3482,10.2702,10.261,10.1992,10.0887,10.0519,9.9649,9.8557,9.819,9.8043,9.8007,9.7566,9.7089,9.6759,9.7199,9.7346,9.7419]}]]